[[{"header":{"parameterUnit":"m.s-1","parameterCategory":1,"la1":31.0,"la2":29.5877,"lo1":-88.7671,"lo2":-86.6584,"dy":0.0162,"dx":0.0185,"nx":115,"ny":88,"refTime":"2023-05-30T06:00:00:Z","depth":0,"parameterNumber":2,"parameterNumberName":"U-component_of_WINDS"},"data":[0.0,0.0,0.0,0.0,0.0,0.0,0.0,0.0,0.0,0.0,0.0,0.0,0.0,0.0,0.0,0.0,0.0,0.0,0.0,0.0,0.0,0.0,0.0,0.0,0.0,0.0,0.0,0.0,0.0,0.0,0.0,0.0,0.0,0.0,0.0,0.0,0.0,0.0,0.0,0.0,0.0,0.0,0.0,0.0,0.0,0.0,0.0,0.0,0.0,0.0,0.0,0.0,0.0,0.0,0.0,0.0,0.0,0.0,0.0,0.0,0.0,0.0,0.0,0.0,0.0,0.0,0.0,0.0,0.0,0.0,0.0,0.0,0.0,0.0,0.0,0.0,0.0,0.0,0.0,0.0,0.0,0.0,0.0,0.0,0.0,0.0,0.0,0.0,0.0,0.0,0.0,0.0,0.0,0.0,0.0,0.0,0.0,0.0,0.0,0.0,0.0,0.0,0.0,0.0,0.0,0.0,0.0,0.0,0.0,0.0,0.0,0.0,0.0,0.0,0.0,0.0,0.0,0.0,0.0,0.0,0.0,0.0,0.0,0.0,0.0,0.0,0.0,0.0,0.0,0.0,0.0,0.0,0.0,0.0,0.0,0.0,0.0,0.0,0.0,0.0,0.0,0.0,0.0,0.0,0.0,0.0,0.0,0.0,0.0,0.0,0.0,0.0,0.0,0.0,0.0,0.0,0.0,0.0,0.0,0.0,0.0,0.0,0.0,0.0,0.0,0.0,0.0,0.0,0.0,0.0,0.0,0.0,0.0,0.0,0.0,0.0,0.0,0.0,0.0,0.0,0.0,0.0,0.0,0.0,0.0,0.0,0.0,0.0,0.0,0.0,0.0,0.0,0.0,0.0,0.0,0.0,0.0,0.0,0.0,0.0,0.0,0.0,0.0,0.0,0.0,0.0,0.0,0.0,0.0,0.0,0.0,0.0,0.0,0.0,0.0,0.0,0.0,0.0,0.0,0.0,0.0,0.0,0.0,0.0,0.0,0.0,0.0,0.0,0.0,0.0,0.0,0.0,0.0,0.0,0.0,0.0,0.0,0.0,0.0,0.0,0.0,0.0,0.0,0.0,0.0,0.0,0.0,0.0,0.0,0.0,0.0,0.0,0.0,0.0,0.0,0.0,0.0,0.0,0.0,0.0,0.0,0.0,0.0,0.0,0.0,0.0,0.0,0.0,0.0,0.0,0.0,0.0,0.0,0.0,0.0,0.0,0.0,0.0,0.0,0.0,0.0,0.0,0.0,0.0,0.0,0.0,0.0,0.0,0.0,0.0,0.0,0.0,0.0,0.0,0.0,0.0,0.0,0.0,0.0,0.0,0.0,0.0,0.0,0.0,0.0,0.0,0.0,0.0,0.0,0.0,0.0,0.0,0.0,0.0,0.0,0.0,0.0,0.0,0.0,0.0,0.0,0.0,0.0,0.0,0.0,0.0,0.0,0.0,0.0,0.0,0.0,0.0,0.0,0.0,0.0,0.0,0.0,0.0,0.0,0.0,0.0,0.0,0.0,0.0,0.0,0.0,0.0,0.0,0.0,0.0,0.0,0.0,0.0,0.0,0.0,0.0,0.0,0.0,0.0,0.0,0.0,0.0,0.0,0.0,0.0,0.0,0.0,0.0,0.0,0.0,0.0,0.0,0.0,0.0,0.0,0.0,0.0,0.0,0.0,0.0,0.0,0.0,0.0,0.0,0.0,0.0,0.0,0.0,0.0,0.0,0.0,0.0,0.0,0.0,0.0,0.0,0.0,0.0,0.0,0.0,0.0,0.0,0.0,0.0,0.0,0.0,0.0,0.0,0.0,0.0,0.0,0.0,0.0,0.0,0.0,0.0,0.0,0.0,0.0,0.0,0.0,0.0,0.0,0.0,0.0,0.0,0.0,0.0,0.0,0.0,0.0,0.0,0.0,0.0,0.0,0.0,0.0,0.0,0.0,0.0,0.0,0.0,0.0,0.0,0.0,0.0,0.0,0.0,0.0,0.0,0.0,0.0,0.0,0.0,0.0,0.0,0.0,0.0,0.0,0.0,0.0,0.0,0.0,0.0,0.0,0.0,0.0,0.0,0.0,0.0,0.0,0.0,0.0,0.0,0.0,0.0,0.0,0.0,0.0,0.0,0.0,0.0,0.0,0.0,0.0,0.0,0.0,0.0,0.0,0.0,0.0,0.0,0.0,0.0,0.0,0.0,0.0,0.0,0.0,0.0,0.0,0.0,0.0,0.0,0.0,0.0,0.0,0.0,0.0,0.0,0.0,0.0,0.0,0.0,0.0,0.0,0.0,0.0,0.0,0.0,0.0,0.0,0.0,0.0,0.0,0.0,0.0,0.0,0.0,0.0,0.0,0.0,0.0,0.0,0.0,0.0,0.0,0.0,0.0,0.0,0.0,0.0,0.0,0.0,0.0,0.0,0.0,0.0,0.0,0.0,0.0,0.0,0.0,0.0,0.0,0.0,0.0,0.0,0.0,0.0,0.0,0.0,0.0,0.0,0.0,0.0,0.0,0.0,0.0,0.0,0.0,0.0,0.0,0.0,0.0,0.0,0.0,0.0,0.0,0.0,0.0,0.0,0.0,0.0,0.0,0.0,0.0,0.0,0.0,0.0,0.0,0.0,0.0,0.0,0.0,0.0,0.0,0.0,0.0,0.0,0.0,0.0,0.0,0.0,0.0,0.0,0.0,0.0,0.0,0.0,0.0,0.0,0.0,0.0,0.0,0.0,0.0,0.0,0.0,0.0,0.0,0.0,0.0,0.0,0.0,0.0,0.0,0.0,0.0,0.0,0.0,0.0,0.0,0.0,0.0,0.0,0.0,0.0,0.0,0.0,0.0,0.0,0.0,0.0,0.0,0.0,0.0,0.0,0.0,0.0,0.0,0.0,0.0,0.0,0.0,0.0,0.0,0.0,0.0,0.0,0.0,0.0,0.0,0.0,0.0,0.0,0.0,0.0,0.0,0.0,0.0,0.0,0.0,0.0,0.0,0.0,0.0,0.0,0.0,0.0,0.0,0.0,0.0,0.0,0.0,0.0,0.0,0.0,0.0,0.0,0.0,0.0,0.0,0.0,0.0,0.0,0.0,0.0,0.0,0.0,0.0,0.0,0.0,0.0,0.0,0.0,0.0,0.0,0.0,0.0,0.0,0.0,0.0,0.0,0.0,0.0,0.0,0.0,0.0,0.0,0.0,0.0,0.0,0.0,0.0,0.0,0.0,0.0,0.0,0.0,0.0,0.0,0.0,0.0,0.0,0.0,0.0,0.0,0.0,0.0,0.0,0.0,0.0,0.0,0.0,0.0,0.0,0.0,0.0,0.0,0.0,0.0,0.0,0.0,0.0,0.0,0.0,0.0,0.0,0.0,0.0,0.0,0.0,0.0,0.0,0.0,0.0,0.0,0.0,0.0,0.0,0.0,0.0,0.0,0.0,0.0,0.0,0.0,0.0,0.0,0.0,0.0,0.0,0.0,0.0,0.0,0.0,0.0,0.0,0.0,0.0,0.0,0.0,0.0,0.0,0.0,0.0,0.0,0.0,0.0,0.0,0.0,0.0,0.0,0.0,0.0,0.0,0.0,0.0,0.0,0.0,0.0,0.0,0.0,0.0,0.0,0.0,0.0,0.0,0.0,0.0,0.0,0.0,0.0,0.0,0.0,0.0,0.0,0.0,0.0,0.0,0.0,0.0,0.0,0.0,0.0,0.0,0.0,0.0,0.0,0.0,0.0,0.0,0.0,0.0,0.0,0.0,0.0,0.0,0.0,0.0,0.0,0.0,0.0,0.0,0.0,0.0,0.0,0.0,0.0,0.0,0.0,0.0,0.0,0.0,0.0,0.0,0.0,0.0,0.0,0.0,0.0,0.0,0.0,0.0,0.0,0.0,0.0,0.0,0.0,0.0,0.0,0.0,0.0,0.0,0.0,0.0,0.0,0.0,0.0,0.0,0.0,0.0,0.0,0.0,0.0,0.0,0.0,0.0,0.0,0.0,0.0,0.0,0.0,0.0,0.0,0.0,0.0,0.0,0.0,0.0,0.0,0.0,0.0,0.0,0.0,0.0,0.0,0.0,0.0,0.0,0.0,0.0,0.0,0.0,0.0,0.0,0.0,0.0,0.0,0.0,0.0,0.0,0.0,0.0,0.0,0.0,0.0,0.0,0.0,0.0,0.0,0.0,0.0,0.0,0.0,0.0,0.0,0.0,0.0,0.0,0.0,0.0,0.0,0.0,0.0,0.0,0.0,0.0,0.0,0.0,0.0,0.0,0.0,0.0,0.0,0.5007,0.0,0.0,0.0,0.0,0.0,0.0,0.0,0.0,0.0,0.0,0.0,0.0,0.0,0.0,0.0,0.0,0.0,0.0,0.0,0.0,0.0,0.0,0.0,0.0,0.0,0.0,0.0,0.0,0.0,0.0,0.0,0.0,0.0,0.0,0.0,0.0,0.0,0.0,0.0,0.0,0.0,0.0,0.0,0.0,0.0,0.0,0.0,0.0,0.0,0.0,0.0,0.0,0.0,0.0,0.0,0.0,0.0,0.0,0.0,0.0,0.0,0.0,0.0,0.0,0.0,0.0,0.0,0.0,0.0,0.0,0.0,0.0,0.0,0.0,0.0,0.0,0.0,0.0,0.0,0.0,0.0,0.0,0.0,0.0,0.0,0.0,0.0,0.0,0.0,0.0,0.0,0.0,0.0,0.0,0.0,0.0,0.0,0.0,0.0,0.0,0.0,0.0,0.0,0.0,0.0,0.0,0.0,0.0,0.0,0.0,0.5007,0.5007,0.5007,0.5007,0.5007,0.0,0.0,0.0,0.0,0.0,0.0,0.0,0.0,0.0,0.0,0.0,0.0,0.0,0.0,0.0,0.0,0.0,0.0,0.0,0.0,0.0,0.0,0.0,0.0,0.0,0.0,0.0,0.0,0.0,0.0,0.0,0.0,0.0,0.0,0.0,0.0,0.0,0.0,0.0,0.0,0.0,0.0,0.0,0.0,0.0,0.0,0.0,0.0,0.0,0.0,0.0,0.0,0.0,0.0,0.0,0.0,0.0,0.0,0.0,0.0,0.0,0.0,0.0,0.0,0.0,0.0,0.0,0.0,0.0,0.0,0.0,0.0,0.0,0.0,0.0,0.0,0.0,0.0,0.0,0.0,0.0,0.0,0.0,0.0,0.0,0.0,0.0,0.0,0.0,0.0,0.0,0.0,0.0,0.0,0.0,0.0,0.0,0.0,0.0,0.0,0.0,0.0,0.0,0.0,0.0,0.0,0.0,0.0,0.0,0.0,0.0,0.0,0.5007,0.5007,0.5007,0.0,0.0,0.0,0.0,0.0,0.0,0.0,0.0,0.0,0.0,0.0,0.0,0.0,0.0,0.0,0.0,0.0,0.0,0.0,0.0,0.0,0.0,0.0,0.0,0.0,0.0,0.0,0.0,0.0,0.0,0.0,0.0,0.0,0.0,0.0,0.0,0.0,0.0,0.0,0.0,0.0,0.0,0.0,0.0,0.0,0.0,0.0,0.0,0.0,0.0,0.0,0.0,0.0,0.0,0.0,0.0,0.0,0.0,0.0,0.0,0.0,0.0,0.0,0.0,0.0,0.0,0.0,0.0,0.0,0.0,0.0,0.0,0.0,0.0,0.0,0.0,0.0,0.0,0.0,0.0,0.0,0.0,0.0,0.0,0.0,0.0,0.0,0.0,0.0,0.0,0.0,0.0,0.0,0.0,0.0,0.0,0.0,0.0,0.0,0.0,0.0,0.0,0.0,0.0,0.0,0.0,0.0,0.0,0.0,0.0,0.5007,0.5007,0.5007,0.0,0.5007,0.0,0.0,0.0,0.0,0.0,0.0,0.0,0.0,0.0,0.0,0.0,0.0,0.0,0.0,0.0,0.0,0.0,0.0,0.0,0.0,0.0,0.0,0.0,0.0,0.0,0.0,0.0,0.0,0.0,0.0,0.0,0.0,0.0,0.0,0.0,0.0,0.0,0.0,0.0,0.0,0.0,0.0,0.0,0.0,0.0,0.0,0.0,0.0,0.0,0.0,0.0,0.0,0.0,0.0,0.0,0.0,0.0,0.0,0.0,0.0,0.0,0.0,0.0,0.0,0.0,0.0,0.0,0.0,0.0,0.0,0.0,0.0,0.0,0.0,0.0,0.0,0.0,0.0,0.0,0.0,0.0,0.0,0.0,0.0,0.0,0.0,0.0,0.0,0.0,0.0,0.0,0.0,0.0,0.0,0.0,0.0,0.0,0.0,0.0,0.0,0.0,0.0,0.0,0.0,0.0,0.0,0.0,0.0,0.0,0.0,0.5007,0.5007,0.5007,0.5007,0.0,0.0,0.0,0.0,0.0,0.0,0.0,0.0,0.0,0.0,0.0,0.0,0.0,0.0,0.0,0.0,0.0,0.0,0.0,0.0,0.0,0.0,0.0,0.0,0.0,0.0,0.0,0.0,0.0,0.0,0.0,0.0,0.0,0.0,0.0,0.0,0.0,0.0,0.0,0.0,0.0,0.0,0.0,0.0,0.0,0.0,0.0,0.0,0.0,0.0,0.0,0.0,0.0,0.0,0.0,0.0,0.0,0.0,0.0,0.0,0.0,0.0,0.0,0.0,0.0,0.0,0.0,0.0,0.0,0.0,0.0,0.0,0.0,0.0,0.0,0.0,0.0,0.0,0.0,0.0,0.0,0.0,0.0,0.0,0.0,0.0,0.0,0.0,0.0,0.0,0.0,0.0,0.0,0.0,0.0,0.0,0.0,0.0,0.0,0.0,0.0,0.0,0.0,0.0,0.0,0.0,0.0,0.0,0.0,0.0,0.5007,0.5007,0.5007,0.5007,0.5035,0.507,0.0,0.0,0.0,0.0,0.0,0.0,0.0,0.0,0.0,0.0,0.0,0.0,0.0,0.0,0.0,0.0,0.0,0.0,0.0,0.0,0.0,0.0,0.0,0.0,0.0,0.0,0.0,0.0,0.0,0.0,0.0,0.0,0.0,0.0,0.0,0.0,0.0,0.0,0.0,0.0,0.0,0.0,0.0,0.0,0.0,0.0,0.0,0.0,0.0,0.0,0.0,0.0,0.0,0.0,0.0,0.0,0.0,0.0,0.0,0.0,0.0,0.0,0.0,0.0,0.0,0.0,0.0,0.0,0.0,0.0,0.0,0.0,0.0,0.0,0.0,0.0,0.0,0.0,0.0,0.0,0.0,0.0,0.0,0.0,0.0,0.0,0.0,0.0,0.0,0.0,0.0,0.0,0.0,0.0,0.0,0.0,0.0,0.0,0.0,0.0,0.0,0.0,0.0,0.0,0.0,0.0,0.0,0.0,0.5007,0.5001,0.5001,0.5011,0.5011,0.5079,0.0,0.0,0.0,0.0,0.0,0.0,0.0,0.0,0.0,0.0,0.0,0.0,0.0,0.0,0.0,0.0,0.0,0.0,0.0,0.0,0.0,0.0,0.0,0.0,0.0,0.0,0.0,0.0,0.0,0.0,0.0,0.0,0.0,0.0,0.0,0.0,0.0,0.0,0.0,0.0,0.0,0.0,0.0,0.0,0.0,0.0,0.0,0.0,0.0,0.0,0.0,0.0,0.0,0.0,0.0,0.0,0.0,0.0,0.0,0.0,0.0,0.0,0.0,0.0,0.0,0.0,0.0,0.0,0.0,0.0,0.0,0.0,0.0,0.0,0.0,0.0,0.0,0.0,0.0,0.0,0.0,0.0,0.0,0.0,0.0,0.0,0.0,0.0,0.0,0.0,0.0,0.0,0.0,0.0,0.0,0.0,0.0,0.0,0.0,0.0,0.0,0.0,0.0,0.0,0.0,0.0,0.0,0.0,0.0,0.5001,0.5128,0.5201,0.5195,0.5316,0.5415,0.0,0.0,0.0,0.0,0.0,0.0,0.0,0.0,0.0,0.0,0.0,0.0,0.0,0.0,0.0,0.0,0.0,0.0,0.0,0.0,0.0,0.0,0.0,0.0,0.0,0.0,0.0,0.0,0.0,0.0,0.0,0.0,0.0,0.0,0.0,0.0,0.0,0.0,0.0,0.0,0.0,0.0,0.0,0.0,0.0,0.0,0.0,0.0,0.0,0.0,0.0,0.0,0.0,0.0,0.0,0.0,0.0,0.0,0.0,0.0,0.0,0.0,0.0,0.0,0.0,0.0,0.0,0.0,0.0,0.0,0.0,0.0,0.0,0.0,0.0,0.0,0.0,0.0,0.0,0.0,0.0,0.0,0.0,0.0,0.0,0.0,0.0,0.0,0.0,0.0,0.0,0.0,0.0,0.0,0.0,0.0,0.0,0.0,0.0,0.0,0.0,0.0,0.0,0.0,0.0,0.0,0.0,0.0,0.0,0.5204,0.0,0.5396,0.5408,0.5521,0.5625,0.0,0.0,0.0,0.0,0.0,0.0,0.0,0.0,0.0,0.0,0.0,0.0,0.0,0.0,0.0,0.0,0.0,0.0,0.0,0.0,0.0,0.0,0.0,0.0,0.0,0.0,0.0,0.0,0.0,0.0,0.0,0.0,0.0,0.0,0.0,0.0,0.0,0.0,0.0,0.0,0.0,0.0,0.0,0.0,0.0,0.0,0.0,0.0,0.0,0.0,0.0,0.0,0.0,0.0,0.0,0.0,0.0,0.0,0.0,0.0,0.0,0.0,0.0,0.0,0.0,0.0,0.0,0.0,0.0,0.0,0.0,0.0,0.0,0.0,0.0,0.0,0.0,0.0,0.0,0.0,0.0,0.0,0.0,0.0,0.0,0.0,0.0,0.0,0.0,0.0,0.0,0.0,0.0,0.0,0.0,0.0,0.0,0.0,0.0,0.0,0.0,0.0,0.0,0.0,0.0,0.0,0.0,0.0,0.5408,0.5602,0.5604,0.5613,0.5601,0.561,0.5705,0.0,0.0,0.0,0.0,0.0,0.0,0.0,0.0,0.0,0.0,0.0,0.0,0.0,0.0,0.0,0.0,0.0,0.0,0.0,0.0,0.0,0.0,0.0,0.0,0.0,0.0,0.0,0.0,0.0,0.0,0.0,0.0,0.0,0.0,0.0,0.0,0.0,0.0,0.0,0.0,0.0,0.0,0.0,0.0,0.0,0.0,0.0,0.0,0.0,0.0,0.0,0.0,0.0,0.0,0.0,0.0,0.0,0.0,0.0,0.0,0.0,0.0,0.0,0.0,0.0,0.0,0.0,0.0,0.0,0.0,0.0,0.0,0.0,0.0,0.0,0.0,0.0,0.0,0.0,0.0,0.0,0.0,0.0,0.0,0.0,0.0,0.0,0.0,0.0,0.0,0.0,0.0,0.0,0.0,0.0,0.0,0.0,0.0,0.0,0.0,0.0,0.0,0.0,0.0,0.0,0.0,0.0,0.0,0.0,0.5613,0.5746,0.5804,0.5808,0.5937,0.604,0.0,0.0,0.0,0.0,0.0,0.0,0.0,0.0,0.0,0.0,0.0,0.0,0.0,0.0,0.0,0.0,0.0,0.0,0.0,0.0,0.0,0.0,0.0,0.0,0.0,0.0,0.0,0.0,0.0,0.0,0.0,0.0,0.0,0.0,0.0,0.0,0.0,0.0,0.0,0.0,0.0,0.0,0.0,0.0,0.0,0.0,0.0,0.0,0.0,0.0,0.0,0.0,0.0,0.0,0.0,0.0,0.0,0.0,0.0,0.0,0.0,0.0,0.0,0.0,0.0,0.0,0.0,0.0,0.0,0.0,0.0,0.0,0.0,0.0,0.0,0.0,0.0,0.0,0.0,0.0,0.0,0.0,0.0,0.0,0.0,0.0,0.0,0.0,0.0,0.0,0.0,0.0,0.0,0.0,0.0,0.0,0.0,0.0,0.0,0.0,0.0,0.0,0.0,0.0,0.0,0.0,0.0,0.0,0.0,0.5965,0.6074,0.6111,0.6124,0.6256,0.6299,0.6313,0.0,0.0,0.0,0.0,0.0,0.0,0.0,0.0,0.0,0.0,0.0,0.0,0.0,0.0,0.0,0.0,0.0,0.0,0.0,0.0,0.0,0.0,0.0,0.0,0.0,0.0,0.0,0.0,0.0,0.0,0.0,0.0,0.0,0.0,0.0,0.0,0.0,0.0,0.0,0.0,0.0,0.0,0.0,0.0,0.0,0.0,0.0,0.0,0.0,0.0,0.0,0.0,0.0,0.0,0.0,0.0,0.0,0.0,0.0,0.0,0.0,0.0,0.0,0.0,0.0,0.0,0.0,0.0,0.0,0.0,0.0,0.0,0.0,0.0,0.0,0.0,0.0,0.0,0.0,0.0,0.0,0.0,0.0,0.0,0.0,0.0,0.0,0.0,0.0,0.0,0.0,0.0,0.0,0.0,0.0,0.0,0.0,0.0,0.0,0.0,0.0,0.0,0.0,0.0,0.0,0.0,0.0,0.0,0.6566,0.6482,0.6472,0.6516,0.6501,0.6511,0.0,0.0,0.0,0.0,0.0,0.0,0.0,0.0,0.0,0.0,0.0,0.0,0.0,0.0,0.0,0.0,0.0,0.0,0.0,0.0,0.0,0.0,0.0,0.0,0.0,0.0,0.0,0.0,0.0,0.0,0.0,0.0,0.0,0.0,0.0,0.0,0.0,0.0,0.0,0.0,0.0,0.0,0.0,0.0,0.0,0.0,0.0,0.0,0.0,0.0,0.0,0.0,0.0,0.0,0.0,0.0,0.0,0.0,0.0,0.0,0.0,0.0,0.0,0.0,0.0,0.0,0.0,0.0,0.0,0.0,0.0,0.0,0.0,0.0,0.0,0.0,0.0,0.0,0.0,0.0,0.0,0.0,0.0,0.0,0.0,0.0,0.0,0.0,0.0,0.0,0.0,0.0,0.0,0.0,0.0,0.0,0.0,0.0,0.0,0.0,0.0,0.0,0.0,0.0,0.0,0.0,0.0,0.0,0.0,0.6132,0.5994,0.6173,0.6691,0.6727,0.6567,0.0,0.0,0.0,0.0,0.0,0.0,0.0,0.0,0.0,0.0,0.0,0.0,0.0,0.0,0.0,0.0,0.0,0.0,0.0,0.0,0.0,0.0,0.0,0.0,0.0,0.0,0.0,0.0,0.0,0.0,0.0,0.0,0.0,0.0,0.0,0.0,0.0,0.0,0.0,0.0,0.0,0.0,0.0,0.0,0.0,0.0,0.0,0.0,0.0,0.0,0.0,0.0,0.0,0.0,0.0,0.0,0.0,0.0,0.0,0.0,0.0,0.0,0.0,0.0,0.0,0.0,0.0,0.0,0.0,0.0,0.0,0.0,0.0,0.0,0.0,0.0,0.0,0.0,0.0,0.0,0.0,0.0,0.0,0.0,0.0,0.0,0.0,0.0,0.0,0.0,0.0,0.0,0.0,0.0,0.0,0.0,0.0,0.0,0.0,0.0,0.0,0.0,0.0,0.0,0.0,0.0,0.0,0.0,0.5615,0.6025,0.5953,0.6252,0.6956,0.6723,0.6458,0.0,0.0,0.0,0.0,0.0,0.0,0.0,0.0,0.0,0.0,0.0,0.0,0.0,0.0,0.0,0.0,0.0,0.0,0.0,0.0,0.0,0.0,0.0,0.0,0.0,0.0,0.0,0.0,0.0,0.0,0.0,0.0,0.0,0.0,0.0,0.0,0.0,0.0,0.0,0.0,0.0,0.0,0.0,0.0,0.0,0.0,0.0,0.0,0.0,0.0,0.0,0.0,0.0,0.0,0.0,0.0,0.0,0.0,0.0,0.0,0.0,0.0,0.0,0.0,0.0,0.0,0.0,0.0,0.0,0.0,0.0,0.0,0.0,0.0,0.0,0.0,0.0,0.0,0.0,0.0,0.0,0.0,0.0,0.0,0.0,0.0,0.0,0.0,0.0,0.0,0.0,0.0,0.0,0.0,0.0,0.0,0.0,0.0,0.0,0.0,0.0,0.0,0.0,0.0,0.0,0.0,0.0,0.0,0.5496,0.5976,0.6026,0.6341,0.6903,0.6558,0.6306,0.0,0.0,0.0,0.0,0.0,0.0,0.0,0.0,0.0,0.0,0.0,0.0,0.0,0.0,0.0,0.0,0.0,0.0,0.0,0.0,0.0,0.0,0.0,0.0,0.0,0.0,0.0,0.0,0.0,0.0,0.0,0.0,0.0,0.0,0.0,0.0,0.0,0.0,0.0,0.0,0.0,0.0,0.0,0.0,0.0,0.0,0.0,0.0,0.0,0.0,0.0,0.0,0.0,0.0,0.0,0.0,0.0,0.0,0.0,0.0,0.0,0.0,0.0,0.0,0.0,0.0,0.0,0.0,0.0,0.0,0.0,0.0,0.0,0.0,0.0,0.0,0.0,0.0,0.0,0.0,0.0,0.0,0.0,0.0,0.0,0.0,0.0,0.0,0.0,0.0,0.0,0.0,0.0,0.0,0.0,0.0,0.0,0.0,0.0,0.0,0.0,0.0,0.0,0.0,0.0,0.0,0.0,0.0,0.5152,0.5383,0.5206,0.5164,0.5309,0.6212,0.6785,0.0,0.0,0.0,0.0,0.0,0.0,0.0,0.0,0.0,0.0,0.0,0.0,0.0,0.0,0.0,0.0,0.0,0.0,0.0,0.0,0.0,0.0,0.0,0.0,0.0,0.0,0.0,0.0,0.0,0.0,0.0,0.0,0.0,0.0,0.0,0.0,0.0,0.0,0.0,0.0,0.0,0.0,0.0,0.0,0.0,0.0,0.0,0.0,0.7901,0.0,0.0,0.0,0.0,0.0,0.0,0.0,0.0,0.0,0.0,0.0,0.0,0.0,0.0,0.0,0.0,0.0,0.0,0.0,0.0,0.0,0.0,0.0,0.0,0.0,0.0,0.0,0.0,0.0,0.0,0.0,0.0,0.0,0.0,0.0,0.0,0.0,0.0,0.0,0.0,0.0,0.0,0.0,0.0,0.0,0.0,0.0,0.0,0.0,0.0,0.0,0.0,0.0,0.0,0.0,0.0,0.0,0.0,0.0,0.487,0.506,0.4961,0.514,0.5638,0.6221,0.652,0.0,0.0,0.0,0.0,0.0,0.0,0.0,0.0,0.0,0.0,0.0,0.0,0.0,0.0,0.0,0.0,0.0,0.0,0.0,0.0,0.0,0.0,0.0,0.0,0.0,0.0,0.0,0.0,0.0,0.0,0.0,0.0,0.0,0.0,0.0,0.0,0.0,0.0,0.0,0.0,0.0,0.0,0.0,0.0,0.0,0.0,0.0,0.0,0.0,0.0,0.0,0.0,0.0,0.0,0.0,0.0,0.0,0.0,0.0,0.0,0.0,0.0,0.0,0.0,0.0,0.0,0.0,0.0,0.0,0.0,0.0,0.0,0.0,0.0,0.0,0.0,0.0,0.0,0.0,0.0,0.0,0.0,0.0,0.0,0.0,0.0,0.0,0.0,0.0,0.0,0.0,0.0,0.0,0.0,0.0,0.0,0.0,0.0,0.0,0.0,0.0,0.0,0.0,0.0,0.0,0.0,0.0,0.4639,0.4623,0.4821,0.4922,0.5404,0.6281,0.6169,0.5969,0.5737,0.0,0.0,0.0,0.0,0.0,0.0,0.0,0.0,0.0,0.0,0.0,0.0,0.0,0.0,0.0,0.0,0.0,0.0,0.0,0.0,0.0,0.0,0.0,0.0,0.0,0.0,0.0,0.0,0.0,0.0,0.0,0.0,0.0,0.0,0.0,0.0,0.0,0.0,0.7955,0.7955,0.0,0.0,0.0,0.0,0.0,0.0,0.0,0.0,0.7937,0.0,0.0,0.0,0.0,0.0,0.0,0.0,0.0,0.0,0.0,0.0,0.0,0.0,0.0,0.0,0.0,0.0,0.0,0.0,0.0,0.0,0.0,0.0,0.0,0.0,0.0,0.0,0.0,0.0,0.0,0.0,0.0,0.0,0.0,0.0,0.0,0.0,0.0,0.0,0.0,0.0,0.0,0.0,0.0,0.0,0.0,0.0,0.0,0.0,0.0,0.0,0.0,0.0,0.0,0.0,0.0,0.4671,0.4674,0.4636,0.4568,0.4676,0.483,0.5026,0.5393,0.5682,0.5785,0.0,0.0,0.0,0.0,0.0,0.0,0.0,0.0,0.0,0.0,0.0,0.0,0.0,0.0,0.0,0.0,0.0,0.0,0.0,0.0,0.0,0.0,0.0,0.0,0.0,0.0,0.0,0.0,0.0,0.0,0.0,0.0,0.0,0.0,0.0,0.0,0.0,0.0,0.0,0.8225,0.8303,0.0,0.0,0.0,0.0,0.0,0.0,0.0,0.0,0.8225,0.0,0.0,0.0,0.0,0.0,0.0,0.0,0.0,0.0,0.0,0.0,0.0,0.0,0.0,0.0,0.0,0.0,0.0,0.0,0.0,0.0,0.0,0.0,0.0,0.0,0.0,0.0,0.0,0.0,0.0,0.0,0.0,0.0,0.0,0.0,0.0,0.0,0.0,0.0,0.0,0.0,0.0,0.0,0.0,0.0,0.0,0.0,0.0,0.0,0.0,0.0,0.0,0.0,0.0,0.0,0.4466,0.4475,0.4497,0.4506,0.4624,0.4785,0.5,0.5314,0.5655,0.0,0.0,0.0,0.0,0.0,0.0,0.0,0.0,0.0,0.0,0.0,0.0,0.0,0.0,0.0,0.0,0.0,0.0,0.0,0.0,0.0,0.0,0.0,0.0,0.0,0.0,0.0,0.0,0.0,0.0,0.0,0.0,0.0,0.0,0.0,0.0,0.0,0.0,0.0,0.0,0.8305,0.8347,0.8473,0.0,0.0,0.0,0.0,0.0,0.0,0.8297,0.8353,0.0,0.0,0.0,0.0,0.0,0.0,0.0,0.0,0.0,0.0,0.0,0.0,0.0,0.0,0.0,0.0,0.0,0.0,0.0,0.0,0.0,0.0,0.0,0.0,0.0,0.0,0.0,0.0,0.0,0.0,0.0,0.0,0.0,0.0,0.0,0.0,0.0,0.0,0.0,0.0,0.0,0.0,0.0,0.0,0.0,0.0,0.0,0.0,0.0,0.0,0.0,0.0,0.0,0.0,0.0,0.4323,0.4257,0.427,0.438,0.4517,0.4743,0.5055,0.5242,0.5504,0.0,0.0,0.0,0.0,0.0,0.0,0.0,0.0,0.0,0.0,0.0,0.0,0.0,0.0,0.0,0.0,0.0,0.0,0.0,0.0,0.0,0.0,0.0,0.0,0.0,0.0,0.0,0.0,0.0,0.0,0.0,0.0,0.0,0.0,0.0,0.0,0.0,0.0,0.0,0.0,0.0,0.8461,0.8461,0.8509,0.0,0.0,0.0,0.0,0.8671,0.8605,0.0,0.0,0.0,0.0,0.0,0.0,0.0,0.0,0.0,0.0,0.0,0.0,0.0,0.0,0.0,0.0,0.0,0.0,0.0,0.0,0.0,0.0,0.0,0.0,0.0,0.0,0.0,0.0,0.0,0.0,0.0,0.0,0.0,0.0,0.0,0.0,0.0,0.0,0.0,0.0,0.0,0.0,0.0,0.0,0.0,0.0,0.0,0.0,0.0,0.0,0.0,0.0,0.0,0.0,0.0,0.0,0.4362,0.4104,0.3969,0.397,0.4102,0.4205,0.4258,0.4537,0.4856,0.0,0.0,0.0,0.0,0.0,0.0,0.0,0.0,0.0,0.0,0.0,0.0,0.0,0.0,0.0,0.0,0.0,0.0,0.0,0.0,0.0,0.0,0.0,0.0,0.0,0.0,0.0,0.0,0.0,0.0,0.0,0.0,0.0,0.0,0.0,0.0,0.0,0.0,0.0,0.0,0.0,0.9005,0.9011,0.9221,0.9194,0.0,0.0,0.8918,0.874,0.9068,0.0,0.0,0.0,0.0,0.0,0.0,0.0,0.0,0.0,0.0,0.0,0.0,0.0,0.0,0.0,0.0,0.0,0.0,0.0,0.0,0.0,0.0,0.0,0.0,0.0,0.0,0.0,0.0,0.0,0.0,0.0,0.0,0.0,0.0,0.0,0.0,0.0,0.0,0.0,0.0,0.0,0.0,0.0,0.0,0.0,0.0,0.0,0.0,0.0,0.0,0.0,0.0,0.0,0.0,0.0,0.3963,0.411,0.3941,0.388,0.3903,0.3954,0.4032,0.4086,0.4364,0.4686,0.0,0.0,0.0,0.0,0.0,0.0,0.0,0.0,0.0,0.0,0.0,0.0,0.0,0.0,0.0,0.0,0.0,0.0,0.0,0.0,0.0,0.0,0.0,0.0,0.0,0.0,0.0,0.0,0.0,0.0,0.0,0.0,0.0,0.0,0.0,0.0,0.0,0.0,0.0,0.0,0.0,0.0,0.8896,0.9101,0.0,0.0,0.0,0.9516,0.9386,0.0,0.0,0.0,0.0,0.0,0.0,0.0,0.0,0.0,0.0,0.0,0.0,0.0,0.0,0.0,0.0,0.0,0.0,0.0,0.0,0.0,0.0,0.0,0.0,0.0,0.0,0.0,0.0,0.0,0.0,0.0,0.0,0.0,0.0,0.0,0.0,0.0,0.0,0.0,0.0,0.0,0.0,0.0,0.0,0.0,0.0,0.0,0.0,0.0,0.0,0.0,0.0,0.0,0.0,0.0,0.0,0.0,0.3882,0.3799,0.3768,0.3814,0.3843,0.3933,0.4023,0.4231,0.0,0.0,0.0,0.0,0.0,0.0,0.0,0.0,0.0,0.0,0.0,0.0,0.0,0.0,0.0,0.0,0.0,0.0,0.0,0.0,0.0,0.0,0.0,0.0,0.0,0.0,0.0,0.7861,0.0,0.0,0.0,0.0,0.0,0.0,0.0,0.0,0.0,0.0,0.0,0.0,0.0,0.0,0.9203,0.893,0.9116,0.9212,0.0,0.0,0.989,0.989,0.9955,0.9888,0.0,0.0,0.0,0.0,0.0,0.0,0.0,0.0,0.0,0.0,0.0,0.0,0.0,0.0,0.0,0.0,0.0,0.0,0.0,0.0,0.0,0.0,0.0,0.0,0.0,0.0,0.0,0.0,0.0,0.0,0.0,0.0,0.0,0.0,0.0,0.0,0.0,0.0,0.0,0.0,0.0,0.0,0.0,0.0,0.0,0.0,0.0,0.0,0.0,0.0,0.0,0.0,0.0,0.0,0.0,0.3786,0.3667,0.3616,0.3627,0.3754,0.3811,0.3825,0.4017,0.4236,0.0,0.0,0.0,0.0,0.0,0.0,0.0,0.0,0.0,0.0,0.0,0.0,0.0,0.0,0.0,0.0,0.0,0.0,0.0,0.0,0.0,0.0,0.0,0.0,0.0,0.0,0.0,0.0,0.0,0.0,0.0,0.0,0.0,0.0,0.0,0.0,0.0,0.0,0.0,0.0,0.0,0.9734,0.9498,0.9684,0.9841,0.0,0.0,0.989,0.989,1.0112,1.0003,0.9185,0.0,0.0,0.0,0.0,0.0,0.0,0.0,0.0,0.0,0.0,0.0,0.0,0.0,0.0,0.0,0.0,0.0,0.0,0.0,0.0,0.0,0.0,0.0,0.0,0.0,0.0,0.0,0.0,0.0,0.0,0.0,0.0,0.0,0.0,0.0,0.0,0.0,0.0,0.0,0.0,0.0,0.0,0.0,0.0,0.0,0.0,0.0,0.0,0.0,0.0,0.0,0.0,0.0,0.3632,0.3676,0.3635,0.3599,0.3599,0.364,0.3747,0.3863,0.3942,0.4138,0.0,0.0,0.0,0.0,0.0,0.0,0.0,0.0,0.0,0.0,0.0,0.0,0.0,0.0,0.0,0.0,0.0,0.0,0.0,0.0,0.0,0.0,0.0,0.0,0.0,0.0,0.0,0.0,0.7403,0.7267,0.729,0.0,0.0,0.0,0.0,0.0,0.0,0.0,0.0,0.0,0.0,0.9695,0.952,0.9722,0.0,0.0,0.9937,1.0002,0.9651,0.9816,0.9696,0.8897,0.8596,0.0,0.0,0.0,0.0,0.0,0.0,0.0,0.0,0.0,0.0,0.0,0.0,0.0,0.0,0.0,0.0,0.0,0.0,0.0,0.0,0.0,0.0,0.0,0.0,0.0,0.0,0.0,0.0,0.0,0.0,0.0,0.0,0.0,0.0,0.0,0.0,0.0,0.0,0.0,0.0,0.0,0.0,0.0,0.0,0.0,0.0,0.0,0.0,0.0,0.0,0.0,0.0,0.3665,0.3665,0.3616,0.3599,0.3599,0.3599,0.3695,0.3856,0.3884,0.4062,0.0,0.0,0.0,0.0,0.0,0.0,0.0,0.0,0.0,0.0,0.0,0.0,0.0,0.0,0.0,0.0,0.0,0.0,0.0,0.0,0.0,0.0,0.0,0.0,0.0,0.0,0.0,0.0,0.7352,0.7217,0.733,0.0,0.0,0.0,0.0,0.0,0.0,0.0,0.0,0.0,0.0,0.9692,0.9508,0.9687,0.976,0.9554,0.9828,0.9927,0.949,0.9544,0.9322,0.849,0.0,0.0,0.0,0.0,0.0,0.0,0.0,0.0,0.0,0.0,0.0,0.0,0.0,0.0,0.0,0.0,0.0,0.0,0.0,0.0,0.0,0.0,0.0,0.0,0.0,0.0,0.0,0.0,0.0,0.0,0.5809,0.0,0.0,0.0,0.0,0.0,0.0,0.0,0.0,0.0,0.0,0.0,0.0,0.0,0.0,0.0,0.0,0.0,0.0,0.0,0.0,0.0,0.0,0.3807,0.3789,0.3668,0.3599,0.3599,0.3599,0.3671,0.3788,0.3873,0.398,0.4124,0.0,0.0,0.0,0.0,0.0,0.0,0.0,0.0,0.0,0.0,0.0,0.0,0.0,0.0,0.0,0.0,0.0,0.0,0.0,0.0,0.0,0.0,0.0,0.0,0.0,0.0,0.7498,0.726,0.7179,0.0,0.0,0.0,0.0,0.0,0.0,0.0,0.0,0.0,0.0,0.9503,0.9767,0.9438,0.9571,0.9663,0.9601,0.9534,0.9501,0.9451,0.9316,0.8906,0.0,0.0,0.0,0.0,0.0,0.0,0.0,0.0,0.0,0.0,0.0,0.0,0.0,0.0,0.0,0.0,0.0,0.0,0.0,0.0,0.0,0.0,0.0,0.0,0.0,0.0,0.0,0.5877,0.5848,0.0,0.0,0.0,0.0,0.0,0.0,0.0,0.0,0.0,0.0,0.0,0.4718,0.469,0.0,0.0,0.0,0.0,0.0,0.0,0.0,0.0,0.0,0.0,0.0,0.0,0.3812,0.3807,0.3657,0.3599,0.3599,0.3599,0.3692,0.3868,0.3884,0.3997,0.4216,0.0,0.0,0.0,0.0,0.0,0.0,0.0,0.0,0.0,0.0,0.0,0.0,0.0,0.0,0.0,0.0,0.0,0.0,0.0,0.0,0.0,0.0,0.0,0.0,0.0,0.7404,0.0,0.0,0.0,0.0,0.0,0.0,0.0,0.0,0.0,0.0,0.0,0.8602,0.8611,0.9014,0.93,0.9277,0.9322,0.928,0.0,0.0,0.0,0.0,0.0,0.0,0.0,0.0,0.0,0.0,0.0,0.0,0.0,0.0,0.7157,0.7279,0.7226,0.7241,0.7449,0.0,0.0,0.0,0.0,0.0,0.0,0.0,0.0,0.0,0.0,0.0,0.0,0.0,0.0,0.5381,0.0,0.54,0.0,0.0,0.0,0.0,0.0,0.0,0.0,0.0,0.4607,0.4596,0.4692,0.4695,0.4638,0.0,0.4537,0.4499,0.0,0.0,0.0,0.0,0.0,0.0,0.0,0.0,0.3846,0.3823,0.3676,0.3599,0.3599,0.3599,0.3675,0.3865,0.394,0.4078,0.4295,0.4414,0.4578,0.0,0.0,0.0,0.0,0.0,0.0,0.0,0.0,0.0,0.0,0.0,0.0,0.0,0.0,0.0,0.0,0.0,0.0,0.0,0.0,0.0,0.0,0.0,0.7385,0.0,0.0,0.0,0.0,0.0,0.0,0.0,0.0,0.0,0.7841,0.794,0.8003,0.8208,0.8424,0.8605,0.8759,0.0,0.0,0.0,0.0,0.0,0.0,0.0,0.7513,0.733,0.704,0.6895,0.6969,0.6994,0.6988,0.6968,0.0,0.0,0.7063,0.7032,0.7045,0.7312,0.7359,0.7379,0.7419,0.7498,0.7533,0.0,0.0,0.0,0.0,0.0,0.0,0.0,0.0,0.4608,0.4672,0.0,0.4702,0.0,0.0,0.0,0.0,0.0,0.4519,0.0,0.0,0.4265,0.4207,0.4449,0.4457,0.4386,0.4291,0.4391,0.44,0.428,0.4272,0.0,0.0,0.0,0.0,0.0,0.0,0.3908,0.3903,0.3719,0.3602,0.3607,0.3599,0.3671,0.3809,0.399,0.4156,0.4292,0.4303,0.4384,0.4578,0.4592,0.0,0.0,0.0,0.0,0.0,0.0,0.0,0.0,0.0,0.0,0.0,0.0,0.0,0.0,0.0,0.0,0.0,0.0,0.0,0.0,0.7542,0.0,0.0,0.0,0.0,0.0,0.0,0.0,0.0,0.0,0.0,0.7672,0.7315,0.7157,0.7785,0.0,0.0,0.0,0.0,0.7489,0.7477,0.7469,0.745,0.7446,0.7395,0.7272,0.6964,0.0,0.0,0.6816,0.7084,0.7261,0.7285,0.7014,0.6819,0.6871,0.688,0.6924,0.7048,0.7082,0.7134,0.7252,0.7491,0.7724,0.5937,0.0,0.0,0.0,0.0,0.5504,0.539,0.5265,0.5175,0.505,0.4945,0.4904,0.0,0.0,0.0,0.0,0.0,0.0,0.4181,0.4188,0.3787,0.3633,0.3701,0.3719,0.3703,0.3664,0.369,0.385,0.4073,0.3995,0.4058,0.4303,0.0,0.0,0.0,0.0,0.3949,0.4011,0.3748,0.3652,0.3745,0.3637,0.3695,0.3876,0.4005,0.4159,0.4298,0.4303,0.4331,0.4381,0.4528,0.0,0.0,0.0,0.0,0.0,0.0,0.0,0.0,0.0,0.0,0.0,0.0,0.0,0.0,0.0,0.0,0.0,0.0,0.0,0.7122,0.6753,0.6486,0.0,0.0,0.0,0.0,0.0,0.0,0.0,0.0,0.0,0.6353,0.6828,0.7145,0.0,0.0,0.7367,0.7423,0.7226,0.6999,0.6828,0.6741,0.0,0.6509,0.6717,0.6903,0.6959,0.7043,0.7091,0.7091,0.7045,0.7034,0.7013,0.6843,0.6743,0.6759,0.6678,0.6668,0.678,0.6822,0.6832,0.6871,0.7104,0.7323,0.5426,0.6096,0.5396,0.5035,0.4964,0.4879,0.4855,0.4876,0.4821,0.4766,0.4717,0.4642,0.4523,0.4377,0.4286,0.0,0.0,0.0,0.3992,0.4166,0.3934,0.3951,0.4102,0.4124,0.4061,0.3951,0.3967,0.4058,0.4272,0.4204,0.4264,0.4436,0.0,0.0,0.421,0.4067,0.4011,0.4086,0.3842,0.3771,0.3837,0.3739,0.3736,0.3845,0.3982,0.4086,0.4221,0.4276,0.4303,0.4303,0.4428,0.4528,0.0,0.0,0.0,0.0,0.0,0.0,0.0,0.0,0.0,0.0,0.0,0.5914,0.5963,0.0,0.0,0.0,0.6119,0.6478,0.6679,0.6261,0.0,0.0,0.0,0.0,0.0,0.0,0.0,0.5663,0.5441,0.5362,0.5619,0.6198,0.6561,0.6558,0.6577,0.6637,0.6859,0.0,0.6454,0.6417,0.6317,0.6194,0.6078,0.6298,0.6551,0.6734,0.6921,0.7007,0.6899,0.6924,0.6949,0.6874,0.685,0.6857,0.6875,0.6776,0.6736,0.6762,0.6772,0.6806,0.6936,0.7134,0.7313,0.4817,0.4726,0.4353,0.4014,0.3728,0.3742,0.3812,0.393,0.3939,0.4086,0.4306,0.4148,0.3931,0.3761,0.3523,0.0,0.3514,0.3478,0.3796,0.4412,0.4351,0.4596,0.4995,0.4995,0.4863,0.4615,0.4636,0.4611,0.4559,0.4543,0.4589,0.4594,0.4347,0.4199,0.4119,0.4094,0.4073,0.4081,0.3955,0.3875,0.39,0.3842,0.3817,0.3833,0.389,0.3976,0.4113,0.424,0.4303,0.4303,0.4303,0.4381,0.4561,0.0,0.0,0.0,0.0,0.0,0.0,0.0,0.0,0.0,0.0,0.0,0.0,0.0,0.0,0.0,0.5466,0.0,0.6307,0.5978,0.0,0.0,0.0,0.5453,0.5453,0.5285,0.5177,0.5186,0.0,0.0,0.5373,0.55,0.564,0.5818,0.5724,0.5816,0.6294,0.6021,0.5896,0.6198,0.609,0.5957,0.5949,0.6114,0.6263,0.643,0.6612,0.6672,0.6511,0.6732,0.694,0.6827,0.6944,0.7066,0.7092,0.7068,0.708,0.6945,0.6938,0.7026,0.7308,0.7478,0.7631,0.354,0.3512,0.3424,0.3568,0.3865,0.4055,0.4126,0.4071,0.4159,0.4351,0.4596,0.4571,0.4447,0.4281,0.382,0.3653,0.3715,0.3356,0.3327,0.356,0.3272,0.3191,0.3293,0.3314,0.3246,0.312,0.3115,0.3236,0.3469,0.3423,0.3505,0.369,0.3645,0.3806,0.4151,0.3963,0.3917,0.402,0.3846,0.3786,0.3903,0.3876,0.3936,0.4028,0.4043,0.4116,0.4251,0.4284,0.4303,0.4303,0.4303,0.4331,0.4367,0.4511,0.0,0.0,0.0,0.0,0.0,0.0,0.0,0.0,0.0,0.4891,0.4977,0.0,0.4863,0.0,0.488,0.5186,0.5782,0.5412,0.0,0.0,0.5194,0.5035,0.5054,0.4924,0.4904,0.5109,0.5118,0.5167,0.5298,0.5342,0.5375,0.5368,0.5684,0.5919,0.5942,0.5749,0.5618,0.5785,0.5692,0.5605,0.5754,0.5972,0.6175,0.6381,0.6451,0.6473,0.6406,0.6473,0.6609,0.6748,0.684,0.6925,0.7054,0.7117,0.7088,0.7061,0.7183,0.7285,0.7386,0.7577,0.7746,0.3155,0.3154,0.3154,0.3312,0.3588,0.3718,0.3837,0.3986,0.403,0.416,0.4273,0.4036,0.3839,0.3675,0.3418,0.3331,0.3352,0.308,0.3139,0.3416,0.3203,0.3164,0.3326,0.3326,0.3267,0.3177,0.3177,0.3262,0.3429,0.3402,0.3473,0.3574,0.3515,0.3601,0.3786,0.3744,0.3732,0.3778,0.3811,0.3821,0.3765,0.3906,0.3961,0.3914,0.4027,0.41,0.4082,0.4234,0.4303,0.4303,0.4303,0.4303,0.4303,0.4448,0.454,0.0,0.0,0.0,0.0,0.0,0.0,0.0,0.0,0.0,0.0,0.0,0.4732,0.4785,0.4738,0.4921,0.544,0.5101,0.4934,0.5133,0.5041,0.4947,0.4947,0.4873,0.4898,0.5037,0.5045,0.5089,0.516,0.5213,0.5229,0.5218,0.5495,0.5717,0.5679,0.5532,0.5517,0.5672,0.5549,0.5513,0.5686,0.5772,0.5887,0.6068,0.6191,0.6235,0.6102,0.6257,0.6435,0.6479,0.6571,0.6656,0.6764,0.6896,0.6966,0.7005,0.722,0.741,0.7461,0.7675,0.7824,0.3205,0.3205,0.3205,0.3205,0.3198,0.3142,0.3334,0.3716,0.3716,0.3763,0.3782,0.3321,0.3038,0.2861,0.2849,0.282,0.2828,0.2828,0.3071,0.3497,0.3521,0.3662,0.394,0.394,0.3898,0.3758,0.3756,0.3694,0.3592,0.359,0.3527,0.3404,0.3277,0.3176,0.308,0.3253,0.3394,0.3433,0.3765,0.3843,0.3607,0.3896,0.3958,0.3742,0.395,0.4008,0.3891,0.4137,0.4313,0.4344,0.4363,0.4361,0.4346,0.4456,0.4528,0.0,0.4627,0.0,0.0,0.0,0.0,0.0,0.0,0.0,0.0,0.479,0.4799,0.4923,0.4834,0.4889,0.5182,0.4993,0.4933,0.5085,0.5068,0.5031,0.5001,0.4998,0.4998,0.4998,0.4998,0.4998,0.5021,0.5105,0.5165,0.5206,0.529,0.5388,0.548,0.5447,0.546,0.5637,0.5594,0.5564,0.5632,0.5613,0.5594,0.5692,0.5874,0.5972,0.5777,0.6016,0.6257,0.6171,0.626,0.6387,0.6406,0.6587,0.6748,0.6748,0.704,0.7371,0.7553,0.7678,0.7814,0.3205,0.3205,0.3205,0.3205,0.3202,0.3181,0.3221,0.3321,0.3319,0.3544,0.394,0.3853,0.3764,0.3652,0.3234,0.3018,0.2949,0.2971,0.2998,0.303,0.303,0.3068,0.3123,0.3123,0.3089,0.3006,0.3003,0.2669,0.2046,0.2046,0.1753,0.123,0.1184,0.1396,0.1821,0.0,0.0,0.0,0.3472,0.363,0.354,0.3746,0.3861,0.3859,0.3898,0.0,0.4197,0.4278,0.4413,0.4603,0.4621,0.0,0.0,0.0,0.0,0.0,0.0,0.0,0.0,0.0,0.0,0.0,0.5073,0.5024,0.478,0.4854,0.4985,0.5134,0.5125,0.5186,0.5343,0.5222,0.5158,0.5161,0.516,0.5118,0.5012,0.5001,0.4998,0.4998,0.5001,0.5001,0.5006,0.5017,0.5086,0.5182,0.5127,0.5175,0.5398,0.5398,0.5423,0.5513,0.5575,0.561,0.5532,0.5594,0.5586,0.5602,0.5651,0.5744,0.5733,0.575,0.5927,0.6041,0.6146,0.6213,0.6362,0.6451,0.6476,0.6473,0.6815,0.7191,0.752,0.7621,0.7695,0.3205,0.3205,0.3205,0.3205,0.0,0.3205,0.3205,0.3205,0.3205,0.3338,0.3559,0.3591,0.3577,0.3506,0.3223,0.309,0.3051,0.305,0.3034,0.3007,0.2984,0.3007,0.2984,0.2544,0.2345,0.2275,0.1937,0.1551,0.1129,0.1095,0.0929,0.0557,0.0571,0.0762,0.1059,0.1452,0.2017,0.2753,0.3126,0.3257,0.3173,0.3428,0.363,0.3848,0.3923,0.0,0.0,0.0,0.0,0.0,0.0,0.0,0.0,0.4729,0.0,0.4762,0.4798,0.4852,0.4854,0.4942,0.5034,0.5099,0.5208,0.522,0.5057,0.5141,0.5214,0.5288,0.5297,0.5321,0.5378,0.5355,0.5317,0.5297,0.5317,0.5272,0.5203,0.5212,0.5189,0.5192,0.5189,0.519,0.5108,0.5099,0.5097,0.5099,0.5036,0.5061,0.5253,0.523,0.5238,0.5329,0.5415,0.5442,0.5461,0.5426,0.5486,0.5489,0.5532,0.5605,0.5694,0.5659,0.5681,0.5844,0.5911,0.5952,0.6038,0.6169,0.6257,0.6282,0.649,0.6788,0.7105,0.7286,0.7395,0.3205,0.3205,0.3205,0.3205,0.3205,0.3205,0.3205,0.3205,0.0,0.0,0.0,0.3183,0.3174,0.311,0.3109,0.3123,0.3115,0.3113,0.3108,0.3097,0.293,0.2883,0.2835,0.1999,0.157,0.1546,0.0984,0.0668,0.0635,0.049,0.0414,0.0361,0.0292,0.0371,0.0653,0.1251,0.1884,0.2476,0.2787,0.2875,0.2782,0.3069,0.3374,0.3643,0.383,0.4072,0.4345,0.457,0.4716,0.4755,0.4755,0.4753,0.4755,0.4814,0.4828,0.4833,0.4941,0.5006,0.5028,0.5132,0.5205,0.5267,0.5384,0.5436,0.5398,0.5411,0.5422,0.5401,0.5422,0.5409,0.5452,0.5433,0.5422,0.5422,0.5422,0.5414,0.5392,0.5392,0.5399,0.5392,0.5381,0.5354,0.5253,0.5215,0.5154,0.5069,0.5015,0.5048,0.5127,0.5135,0.5154,0.5238,0.5318,0.5292,0.5327,0.534,0.532,0.5459,0.5474,0.5513,0.5632,0.5607,0.5588,0.5694,0.571,0.571,0.571,0.5888,0.5952,0.5813,0.5947,0.6081,0.6051,0.6268,0.6441,0.3205,0.3205,0.3205,0.3205,0.3205,0.3205,0.3205,0.3205,0.3205,0.3201,0.3194,0.3201,0.3197,0.3206,0.3189,0.3136,0.3104,0.3102,0.3124,0.3074,0.2333,0.1975,0.1928,0.1143,0.0763,0.0762,0.0665,0.0664,0.0685,0.0071,-0.0208,-0.0201,-0.0775,-0.0499,0.0627,0.1182,0.1774,0.2491,0.2657,0.2694,0.2644,0.2861,0.2988,0.3119,0.346,0.3816,0.4149,0.4498,0.4787,0.4947,0.4947,0.4966,0.4966,0.496,0.4971,0.4971,0.5007,0.5059,0.5174,0.5178,0.5276,0.5437,0.5591,0.5597,0.5414,0.5442,0.5481,0.5481,0.5483,0.5548,0.5615,0.5562,0.5481,0.5502,0.5505,0.5464,0.5417,0.5406,0.5408,0.5411,0.5392,0.5392,0.5354,0.5275,0.5206,0.5148,0.5047,0.5004,0.5067,0.5203,0.5332,0.537,0.5428,0.54,0.5283,0.536,0.5407,0.5396,0.5483,0.5512,0.5561,0.5479,0.5427,0.5616,0.551,0.5555,0.5577,0.571,0.5352,0.4768,0.4783,0.4681,0.3941,0.3843,0.4228,0.2548,0.2598,0.3029,0.3205,0.3205,0.3205,0.3205,0.3155,0.2725,0.2801,0.318,0.3205,0.3205,0.3205,0.3205,0.2939,0.249,0.249,0.2254,0.1843,0.1448,0.1253,0.1179,0.0443,0.0074,0.0025,-0.0389,-0.0557,-0.0532,-0.0839,-0.0969,-0.0904,-0.0885,-0.0329,0.0673,0.1276,0.1882,0.2537,0.2513,0.2487,0.2509,0.2583,0.2766,0.3048,0.3223,0.3623,0.425,0.4426,0.4681,0.4998,0.4998,0.4998,0.4998,0.4998,0.5025,0.5102,0.511,0.5182,0.5297,0.5347,0.544,0.5591,0.5656,0.5667,0.5556,0.5594,0.5605,0.5607,0.5605,0.5626,0.5705,0.5637,0.5607,0.5607,0.5605,0.5583,0.5578,0.5567,0.5567,0.5567,0.5567,0.5515,0.5406,0.534,0.5245,0.5124,0.5023,0.4998,0.4998,0.5105,0.5181,0.5181,0.5211,0.5197,0.5121,0.5267,0.537,0.5407,0.4989,0.4843,0.484,0.4577,0.4184,0.4154,0.421,0.4186,0.421,0.4166,0.3965,0.3762,0.3626,0.3403,0.3002,0.2594,0.2701,0.1714,0.1815,0.2598,0.2927,0.2927,0.2927,0.2851,0.2598,0.1992,0.2068,0.2623,0.2649,0.2649,0.2675,0.2675,0.2321,0.179,0.1739,0.1412,0.0832,0.0605,0.0529,0.0429,-0.0278,-0.0657,-0.0731,-0.1319,-0.1533,-0.1356,-0.146,-0.1518,-0.1435,-0.0784,-0.0044,0.0688,0.1361,0.2016,0.2594,0.2493,0.2404,0.242,0.2421,0.2618,0.2937,0.3041,0.3431,0.4053,0.4287,0.4543,0.484,0.4959,0.5009,0.5034,0.5056,0.5108,0.5211,0.5247,0.5302,0.5425,0.5481,0.5588,0.568,0.571,0.571,0.571,0.571,0.571,0.571,0.5705,0.571,0.571,0.571,0.571,0.571,0.571,0.5702,0.571,0.571,0.571,0.571,0.571,0.5629,0.5499,0.5422,0.5294,0.5078,0.4998,0.4998,0.4998,0.4879,0.474,0.4779,0.4859,0.4873,0.4809,0.4771,0.4805,0.4832,0.4179,0.3884,0.3824,0.3268,0.2904,0.3037,0.3001,0.3068,0.2956,0.2978,0.2889,0.2689,0.2576,0.2488,0.2108,0.1585,0.1331,0.0907,0.1033,0.1765,0.2118,0.2118,0.2093,0.1714,0.1109,0.0932,0.0958,0.1058,0.1033,0.1033,0.1033,0.1058,0.1033,0.0907,0.0907,0.0832,0.0655,0.005,-0.0278,-0.0353,-0.1086,-0.1491,-0.1465,-0.1562,-0.1257,-0.0729,-0.128,-0.1569,-0.149,-0.08,0.0,0.0708,0.139,0.2077,0.2764,0.2717,0.2608,0.2508,0.2501,0.2506,0.2549,0.2904,0.3121,0.3276,0.3975,0.4423,0.4484,0.4806,0.5067,0.5156,0.519,0.5245,0.5383,0.5394,0.5404,0.5483,0.5605,0.5675,0.571,0.571,0.571,0.571,0.571,0.571,0.571,0.571,0.571,0.571,0.571,0.571,0.571,0.571,0.571,0.571,0.571,0.571,0.571,0.571,0.57,0.5629,0.5483,0.5299,0.5066,0.5012,0.4948,0.4839,0.4387,0.3971,0.4068,0.4462,0.4543,0.4084,0.3819,0.3652,0.3164,0.3012,0.2966,0.2932,0.2862,0.284,0.2323,0.2665,0.2598,0.2688,0.2867,0.2443,0.1749,0.148,0.13,0.0561,0.0,0.0,0.0101,0.0151,0.0958,0.1286,0.1311,0.1286,0.1109,0.0781,0.0277,0.0101,0.0025,-0.0404,-0.0101,0.0781,0.0781,0.0555,0.0101,0.0101,-0.0177,-0.0605,-0.096,-0.1111,-0.1162,-0.1415,-0.1592,-0.1592,-0.1592,-0.144,-0.1212,-0.144,-0.1376,-0.086,-0.0121,0.0666,0.1479,0.2102,0.2548,0.2857,0.2741,0.2668,0.2621,0.2583,0.2546,0.2514,0.2668,0.2863,0.3124,0.3754,0.4221,0.4522,0.4962,0.5267,0.5313,0.5313,0.5349,0.5448,0.5524,0.5583,0.5613,0.5661,0.571,0.571,0.571,0.571,0.571,0.571,0.571,0.571,0.571,0.571,0.571,0.571,0.571,0.571,0.571,0.571,0.571,0.571,0.571,0.571,0.571,0.5659,0.5567,0.5391,0.5288,0.5192,0.5121,0.4891,0.4441,0.4005,0.3618,0.3207,0.3345,0.3384,0.3062,0.2781,0.2634,0.2596,0.2272,0.2023,0.1962,0.1457,0.1166,0.0,0.0,0.0,0.1099,0.1189,0.101,0.0,0.0,0.0427,0.0045,0.0,0.0,-0.0732,-0.0606,0.0126,0.048,0.0457,0.048,0.0353,0.0076,-0.048,-0.0732,-0.0808,-0.1364,-0.0959,0.005,0.0151,-0.0177,-0.0682,-0.0732,-0.1035,-0.1541,-0.1592,-0.1592,-0.1592,-0.1592,-0.1592,-0.1592,-0.1592,-0.1592,-0.1592,-0.1592,-0.1204,-0.0396,0.0344,0.1119,0.1964,0.2621,0.2945,0.296,0.2838,0.278,0.2758,0.2683,0.2623,0.2567,0.256,0.27,0.3004,0.3474,0.3955,0.4424,0.4927,0.5259,0.5417,0.5417,0.5472,0.5545,0.5637,0.571,0.571,0.571,0.571,0.571,0.571,0.571,0.571,0.571,0.571,0.571,0.571,0.571,0.571,0.571,0.571,0.571,0.571,0.571,0.571,0.571,0.571,0.571,0.571,0.5642,0.5518,0.5388,0.5325,0.5348,0.5224,0.4793,0.4065,0.367,0.317,0.2317,0.2007,0.1925,0.209,0.1995,0.1932,0.1684,0.133,0.101,0.1,0.0357,0.0,0.0,0.0,0.0,0.0,0.0,0.0,0.0,0.0,0.0,0.0,0.0,0.0,-0.1541,-0.1415,-0.0682,-0.0357,-0.0336,-0.0356,-0.0758,-0.1313,-0.1465,-0.1516,-0.1491,-0.1568,-0.1567,-0.1417,-0.1342,-0.1466,-0.1516,-0.1491,-0.1516,-0.1592,-0.1592,-0.1592,-0.1592,-0.1592,-0.1592,-0.1592,-0.1592,-0.1592,-0.1592,-0.1592,-0.1187,-0.0353,0.0371,0.1127,0.1976,0.2729,0.3087,0.3075,0.301,0.2937,0.2885,0.2826,0.2767,0.2712,0.2681,0.2697,0.2783,0.3122,0.3542,0.4018,0.4518,0.4988,0.5422,0.5478,0.5575,0.5661,0.5708,0.571,0.571,0.571,0.571,0.571,0.571,0.571,0.571,0.571,0.571,0.571,0.571,0.571,0.571,0.571,0.571,0.571,0.571,0.571,0.571,0.571,0.571,0.571,0.571,0.5645,0.5532,0.5502,0.5451,0.5415,0.536,0.4924,0.3945,0.3217,0.2391,0.1513,0.0842,0.0413,0.1151,0.1251,0.0913,0.0,0.0,0.0,0.0,0.0,0.0,0.0,0.0,0.0,0.0,0.0,0.0,0.0,0.0,0.0,0.0,0.0,0.0,-0.1592,-0.1566,-0.1313,-0.1167,-0.1172,-0.1165,-0.1338,-0.1592,-0.1592,-0.1592,-0.1595,-0.1663,-0.1672,-0.1672,-0.1665,-0.1626,-0.1594,-0.1592,-0.1592,-0.1592,-0.1592,-0.1592,-0.1592,-0.1592,-0.1592,-0.1592,-0.1592,-0.1592,-0.1592,-0.1592,-0.0934,0.0202,0.0626,0.1397,0.2533,0.2953,0.3115,0.3093,0.3033,0.2994,0.2978,0.2951,0.2913,0.283,0.2753,0.2694,0.2694,0.3174,0.3644,0.4112,0.4623,0.5114,0.5571,0.5623,0.564,0.5683,0.571,0.571,0.571,0.571,0.571,0.571,0.571,0.571,0.571,0.571,0.571,0.571,0.571,0.571,0.571,0.571,0.571,0.571,0.571,0.571,0.571,0.571,0.571,0.571,0.571,0.5689,0.5621,0.5537,0.5524,0.5507,0.494,0.418,0.3347,0.2454,0.155,0.0727,0.023,0.0105,0.0351,0.0458,0.0,0.0,0.0,0.0,0.0,0.0,0.0,0.0,0.0,0.0,0.0,0.0,0.0,0.0,0.0,0.0,0.0,0.0,0.0,-0.1622,-0.163,-0.1621,-0.1622,-0.163,-0.1621,-0.1592,-0.1592,-0.1592,-0.1592,-0.1596,-0.1665,-0.1679,-0.169,-0.1709,-0.1677,-0.1645,-0.1637,-0.1637,-0.1618,-0.1636,-0.1631,-0.1631,-0.1632,-0.1626,-0.1593,-0.1592,-0.1592,-0.1592,-0.1592,-0.0757,0.0706,0.0781,0.1613,0.2938,0.3146,0.3131,0.3117,0.3068,0.3041,0.3039,0.3021,0.3109,0.3196,0.3096,0.2921,0.2775,0.3267,0.3751,0.4216,0.4729,0.5213,0.5621,0.571,0.571,0.571,0.571,0.571,0.571,0.571,0.571,0.571,0.571,0.571,0.571,0.571,0.571,0.571,0.571,0.571,0.571,0.571,0.571,0.571,0.571,0.571,0.571,0.571,0.571,0.571,0.571,0.571,0.5702,0.5635,0.5456,0.5324,0.4471,0.3709,0.2577,0.1845,0.1029,0.0,0.0,0.0,0.0,0.0,0.0,0.0,0.0,0.0,0.0,0.0,0.0,0.0,0.0,0.0,0.0,0.0,0.0,0.0,0.0,0.0,0.0,0.0,0.0,-0.1633,-0.1677,-0.1604,-0.1631,-0.1675,-0.1627,-0.1592,-0.1592,-0.1592,-0.1592,-0.1618,-0.1621,-0.1642,-0.1687,-0.1701,-0.1708,-0.1698,-0.1706,-0.1703,-0.1692,-0.17,-0.1714,-0.1688,-0.1688,-0.1673,-0.1597,-0.1592,-0.1592,-0.1592,-0.1465,-0.0681,0.0554,0.0882,0.1714,0.3205,0.3193,0.3196,0.3185,0.3133,0.3083,0.3106,0.3102,0.3303,0.3715,0.3673,0.3425,0.2988,0.3384,0.387,0.4342,0.477,0.5216,0.5648,0.5721,0.571,0.5721,0.5716,0.571,0.571,0.571,0.571,0.571,0.571,0.5719,0.5732,0.5729,0.5735,0.5754,0.5748,0.5738,0.5743,0.5748,0.5735,0.571,0.571,0.571,0.571,0.571,0.571,0.571,0.571,0.571,0.571,0.5697,0.5406,0.4668,0.4192,0.3466,0.1978,0.137,0.0928,0.0,0.0,0.0,0.0,0.0,0.0,0.0,0.0,0.0,0.0,0.0,0.0,0.0,0.0,0.0,0.0,0.0,0.0,0.0,0.0,0.0,0.0,0.0,0.0,-0.1622,-0.163,-0.1621,-0.1622,-0.163,-0.162,-0.1592,-0.1592,-0.1592,-0.1592,-0.1595,-0.1664,-0.169,-0.1692,-0.174,-0.1765,-0.1763,-0.1763,-0.1743,-0.1705,-0.1722,-0.1718,-0.1718,-0.1717,-0.1675,-0.1648,-0.1626,-0.1592,-0.1491,-0.1036,-0.0202,0.0706,0.1361,0.2169,0.3155,0.3205,0.3205,0.3202,0.3188,0.3159,0.312,0.3121,0.3189,0.336,0.3666,0.3737,0.362,0.3913,0.4355,0.4865,0.5049,0.5382,0.5816,0.58,0.5729,0.5808,0.5751,0.571,0.571,0.5716,0.5721,0.5713,0.5713,0.5754,0.5816,0.585,0.5885,0.593,0.5975,0.5975,0.5977,0.5977,0.5884,0.5707,0.571,0.5716,0.571,0.571,0.571,0.571,0.571,0.571,0.5688,0.5688,0.524,0.4336,0.3723,0.2757,0.1673,0.0822,0.042,0.0,0.0,0.0,0.0,0.0,0.0,0.0,0.0,0.0,0.0,0.0,0.0,0.0,0.0,0.0,0.0,0.0,0.0,0.0,0.0,0.0,0.0,0.0,0.0,-0.1592,-0.1592,-0.1592,-0.1592,-0.1592,-0.1592,-0.1592,-0.1592,-0.1592,-0.1592,-0.1598,-0.1675,-0.1704,-0.1733,-0.1763,-0.1794,-0.1791,-0.1802,-0.1783,-0.1737,-0.1751,-0.1748,-0.1716,-0.1723,-0.1706,-0.1611,-0.1283,-0.1148,-0.1096,-0.0306,0.0483,0.1236,0.1739,0.2371,0.313,0.3205,0.3205,0.3205,0.3205,0.3188,0.3133,0.3148,0.3326,0.37,0.4057,0.4402,0.4749,0.4916,0.5043,0.5261,0.5438,0.5733,0.6041,0.5947,0.5873,0.5937,0.5909,0.583,0.5789,0.585,0.5816,0.5792,0.5816,0.5893,0.5956,0.5992,0.6013,0.6091,0.6104,0.611,0.6107,0.6107,0.601,0.5862,0.5803,0.5757,0.5727,0.571,0.571,0.571,0.571,0.571,0.5688,0.5285,0.4815,0.3887,0.2946,0.2004,0.1093,0.0378,0.0,0.0,0.0,0.0,0.0,0.0,0.0,0.0,0.0,0.0,0.0,0.0,0.0,0.0,0.0,0.0,0.0,0.0,0.0,0.0,0.0,0.0,0.0,0.0,0.0,-0.1592,-0.1592,-0.1592,-0.1592,-0.1592,-0.1592,-0.1592,-0.1592,-0.1592,-0.1592,-0.1598,-0.1675,-0.1704,-0.1733,-0.1763,-0.1794,-0.1791,-0.1793,-0.1789,-0.178,-0.1792,-0.1779,-0.1774,-0.1758,-0.1629,-0.1386,-0.0755,-0.0389,-0.0234,0.0545,0.1311,0.1876,0.2103,0.2424,0.308,0.3205,0.3205,0.3205,0.3205,0.3202,0.32,0.3201,0.3626,0.4541,0.4648,0.5074,0.5793,0.5923,0.5839,0.5576,0.5858,0.606,0.6108,0.6121,0.6091,0.611,0.6112,0.6036,0.5961,0.5991,0.6015,0.5934,0.5996,0.6115,0.6112,0.6089,0.6102,0.614,0.6162,0.613,0.6132,0.6135,0.6116,0.6107,0.5961,0.5827,0.5729,0.571,0.571,0.571,0.571,0.5644,0.5532,0.4835,0.3985,0.2956,0.2057,0.1276,0.0,0.0,0.0,0.0,0.0,0.0,0.0,0.0,0.0,0.0,0.0,0.0,0.0,0.0,0.0,0.0,0.0,0.0,0.0,0.0,0.0,0.0,0.0,0.0,0.0,0.0,0.0,-0.1592,-0.1592,-0.1592,-0.1592,-0.1592,-0.1592,-0.1592,-0.1592,-0.1592,-0.1594,-0.1598,-0.1675,-0.1706,-0.1706,-0.1764,-0.1794,-0.1789,-0.1795,-0.1795,-0.1794,-0.1788,-0.1811,-0.1805,-0.1773,-0.1401,-0.0807,-0.0372,-0.0026,0.0661,0.1454,0.1938,0.2086,0.2647,0.2989,0.3213,0.3205,0.3205,0.3205,0.3205,0.3205,0.3205,0.323,0.3533,0.4155,0.4585,0.5119,0.577,0.6141,0.6252,0.6107,0.6171,0.6263,0.6282,0.6189,0.6164,0.6219,0.6162,0.6102,0.6056,0.6075,0.6096,0.6069,0.6104,0.6124,0.6238,0.6195,0.6236,0.6282,0.632,0.6312,0.6312,0.6309,0.6304,0.6233,0.6045,0.5857,0.5759,0.571,0.571,0.571,0.5694,0.5352,0.4835,0.432,0.3539,0.2241,0.1503,0.0,0.0,0.0,0.0,0.0,0.0,0.0,0.0,0.0,0.0,0.0,0.0,0.0,0.0,0.0,0.0,0.0,0.0,0.0,0.0,0.0,0.0,0.0,0.0,0.0,0.0,0.0,0.0,-0.1647,-0.1637,-0.1623,-0.1614,-0.162,-0.163,-0.1629,-0.1621,-0.1631,-0.1628,-0.1631,-0.1704,-0.1727,-0.1708,-0.1776,-0.1805,-0.1793,-0.1795,-0.1795,-0.1795,-0.1794,-0.1787,-0.1718,-0.1481,-0.0929,-0.0355,0.0379,0.1023,0.1589,0.2342,0.2657,0.2706,0.306,0.3265,0.3209,0.3205,0.3205,0.3205,0.3205,0.3205,0.3205,0.3432,0.3833,0.4332,0.486,0.5386,0.5909,0.6234,0.6379,0.6352,0.6342,0.6372,0.639,0.6293,0.6268,0.6333,0.6268,0.6217,0.6205,0.6203,0.6208,0.6184,0.6195,0.6263,0.632,0.6295,0.6333,0.636,0.6412,0.6412,0.6412,0.6412,0.6358,0.6295,0.6164,0.6007,0.5893,0.5816,0.582,0.5724,0.5395,0.4882,0.4119,0.3561,0.2622,0.1659,0.1032,0.0584,0.0,0.0,0.0,0.0,0.0,0.0,0.0,0.0,0.0,0.0,0.0,0.0,0.0,0.0,0.0,0.0,0.0,0.0,0.0,0.0,0.0,0.0,0.0,0.0,0.0,0.0,0.0,-0.1716,-0.1721,-0.172,-0.1674,-0.1636,-0.168,-0.1679,-0.1636,-0.1656,-0.1679,-0.1651,-0.1741,-0.1756,-0.1713,-0.1766,-0.1794,-0.1795,-0.1795,-0.1795,-0.1739,-0.1653,-0.1533,-0.1435,-0.0854,-0.0302,0.022,0.1617,0.2138,0.2467,0.315,0.3366,0.3271,0.3294,0.3274,0.3232,0.3213,0.3205,0.3205,0.3205,0.3205,0.3306,0.3657,0.4158,0.4709,0.5384,0.5859,0.6234,0.6412,0.6406,0.6409,0.6412,0.6404,0.6409,0.6381,0.6379,0.6398,0.6379,0.6339,0.6342,0.6361,0.636,0.6314,0.6347,0.6409,0.6398,0.6387,0.6393,0.6409,0.6412,0.6412,0.6412,0.6412,0.6399,0.632,0.6306,0.6252,0.6156,0.6005,0.5934,0.5909,0.5015,0.4257,0.3371,0.2451,0.1375,0.1078,0.0,0.0,0.0,0.0,0.0,0.0,0.0,0.0,0.0,0.0,0.0,0.0,0.0,0.0,0.0,0.0,0.0,0.0,0.0,0.0,0.0,0.0,0.0,0.0,0.0,0.0,0.0,0.0,0.0,-0.1701,-0.1696,-0.1702,-0.1697,-0.1688,-0.1692,-0.1691,-0.1684,-0.1691,-0.169,-0.1695,-0.1758,-0.1799,-0.1767,-0.1773,-0.1795,-0.1793,-0.1793,-0.1795,-0.1711,-0.0981,-0.0756,-0.0669,-0.0362,0.039,0.1335,0.1949,0.2591,0.3175,0.3388,0.353,0.3461,0.3405,0.3336,0.3277,0.3231,0.3206,0.3205,0.3205,0.3232,0.3381,0.3808,0.4359,0.491,0.5734,0.6212,0.6362,0.6412,0.6412,0.6412,0.6412,0.6412,0.6412,0.6412,0.6412,0.6412,0.6412,0.6398,0.6385,0.6393,0.6404,0.6379,0.6387,0.6412,0.6412,0.6412,0.6412,0.6412,0.6412,0.6412,0.6412,0.6412,0.6396,0.6368,0.6363,0.6358,0.6309,0.6173,0.6048,0.5826,0.5046,0.3902,0.2537,0.1907,0.1086,0.0491,0.0,0.0,0.0,0.0,0.0,0.0,0.0,0.0,0.0,0.0,0.0,0.0,0.0,0.0,0.0,0.0,0.0,0.0,0.0,0.0,0.0,0.0,0.0,0.0,0.0,0.0,0.0,0.0,0.0,-0.1738,-0.1727,-0.1741,-0.173,-0.1709,-0.1746,-0.1717,-0.171,-0.172,-0.1718,-0.1716,-0.1777,-0.1782,-0.1759,-0.1786,-0.1801,-0.1806,-0.1789,-0.1795,-0.1598,-0.0869,-0.0196,0.0336,0.0644,0.14,0.224,0.2687,0.3166,0.3475,0.361,0.3552,0.3501,0.3465,0.3374,0.3307,0.3261,0.3234,0.3285,0.3456,0.3556,0.3657,0.4359,0.501,0.5459,0.6112,0.6412,0.6412,0.6412,0.6412,0.6412,0.6412,0.6412,0.6412,0.6412,0.6412,0.6412,0.6412,0.6412,0.6412,0.6412,0.6412,0.6412,0.6412,0.6412,0.6412,0.6412,0.6412,0.6412,0.6412,0.6412,0.6412,0.6412,0.6412,0.6412,0.6412,0.6412,0.6385,0.6279,0.6213,0.586,0.475,0.2987,0.1713,0.0,0.0,0.0,0.0,0.0,0.0,0.0,0.0,0.0,0.0,0.0,0.0,0.0,0.0,0.0,0.0,0.0,0.0,0.0,0.0,0.0,0.0,0.0,0.0,0.0,0.0,0.0,0.0,0.0,0.0,0.0,0.0,-0.1808,-0.1814,-0.1812,-0.1765,-0.1727,-0.1773,-0.1771,-0.1727,-0.1772,-0.1745,-0.1731,-0.1775,-0.1791,-0.1756,-0.1775,-0.1812,-0.1765,-0.153,-0.143,-0.129,-0.0224,0.0533,0.1177,0.1877,0.238,0.252,0.3109,0.3531,0.3587,0.3585,0.3564,0.3518,0.3496,0.3448,0.3344,0.3297,0.3347,0.3462,0.3742,0.4008,0.4209,0.501,0.5709,0.6184,0.6337,0.6412,0.6412,0.6412,0.6412,0.6412,0.6412,0.6412,0.6412,0.6412,0.6412,0.6412,0.6412,0.6412,0.6412,0.6412,0.6412,0.6412,0.6412,0.6412,0.6412,0.6417,0.6431,0.6447,0.6455,0.6442,0.6417,0.6412,0.6412,0.6412,0.6412,0.6412,0.6371,0.6251,0.597,0.5661,0.4358,0.2637,0.0,0.0,0.0,0.0,0.0,0.0,0.0,0.0,0.0,0.0,0.0,0.0,0.0,0.0,0.0,0.0,0.0,0.0,0.0,0.0,0.0,0.0,0.0,0.0,0.0,0.0,0.0,0.0,0.0,0.0,0.0,0.0,0.0,-0.1792,-0.1788,-0.1793,-0.1789,-0.1781,-0.1813,-0.1782,-0.1781,-0.1782,-0.1785,-0.178,-0.1789,-0.1803,-0.1782,-0.1801,-0.1813,-0.167,-0.1202,-0.0758,-0.0421,0.073,0.174,0.1967,0.2755,0.3255,0.339,0.3559,0.3587,0.3587,0.3586,0.3578,0.3589,0.3525,0.3478,0.3437,0.3407,0.3589,0.3871,0.4111,0.4362,0.4775,0.5313,0.5884,0.6362,0.6412,0.6412,0.6412,0.6412,0.6412,0.6412,0.6412,0.6412,0.6412,0.6412,0.6412,0.6412,0.6412,0.6412,0.6412,0.6412,0.6412,0.6412,0.6412,0.6412,0.6412,0.6425,0.6477,0.6536,0.655,0.652,0.6423,0.6417,0.6412,0.6412,0.6412,0.6412,0.6257,0.5717,0.5051,0.4739,0.3581,0.0,0.0,0.0,0.0,0.0,0.0,0.0,0.0,0.0,0.0,0.0,0.0,0.0,0.0,0.0,0.0,0.0,0.0,0.0,0.0,0.0,0.0,0.0,0.0,0.0,0.0,0.0,0.0,0.0,0.0,0.0,0.0,0.0,0.0,-0.1795,-0.1795,-0.1795,-0.1795,-0.1795,-0.1795,-0.1795,-0.1795,-0.1795,-0.1795,-0.1795,-0.1793,-0.1805,-0.1787,-0.179,-0.1799,-0.1525,-0.0839,-0.0422,0.0,0.1334,0.2241,0.2381,0.3234,0.3555,0.3625,0.3587,0.3587,0.3587,0.3587,0.3587,0.361,0.3555,0.3529,0.3604,0.3793,0.3949,0.4285,0.471,0.5075,0.5306,0.5773,0.6164,0.6312,0.6412,0.6412,0.6412,0.6412,0.6412,0.6412,0.6412,0.6412,0.6412,0.6412,0.6412,0.6412,0.6412,0.6412,0.6412,0.6412,0.6412,0.6412,0.6412,0.6412,0.6431,0.6471,0.6581,0.666,0.6609,0.6572,0.6515,0.6433,0.6417,0.6412,0.642,0.6423,0.6167,0.5391,0.4618,0.3814,0.2732,0.0,0.0,0.0,0.0,0.0,0.0,0.0,0.0,0.0,0.0,0.0,0.0,0.0,0.0,0.0,0.0,0.0,0.0,0.0,0.0,0.0,0.0,0.0,0.0,0.0,0.0,0.0,0.0,0.0,0.0,0.0,0.0,0.0,0.0,-0.1795,-0.1795,-0.1795,-0.1795,-0.1795,-0.1795,-0.1795,-0.1795,-0.1795,-0.1795,-0.1795,-0.1793,-0.1806,-0.1811,-0.1778,-0.1698,-0.1484,-0.053,0.0,0.0629,0.1854,0.2599,0.2811,0.32,0.3658,0.3621,0.3587,0.3587,0.3587,0.3587,0.3587,0.3614,0.3614,0.3677,0.3824,0.4118,0.4356,0.4941,0.5452,0.5927,0.6056,0.6276,0.6428,0.6414,0.6412,0.6412,0.6412,0.6412,0.6412,0.6412,0.6412,0.6412,0.6412,0.6412,0.6412,0.6412,0.6412,0.6412,0.6412,0.6412,0.6412,0.6412,0.6412,0.6412,0.6455,0.6536,0.6681,0.6738,0.676,0.6664,0.6631,0.6547,0.6509,0.6504,0.6507,0.6392,0.6103,0.5373,0.4205,0.3226,0.2064,0.0,0.0,0.0,0.0,0.0,0.0,0.0,0.0,0.0,0.0,0.0,0.0,0.0,0.0,0.0,0.0,0.0,0.0,0.0,0.0,0.0,0.0,0.0,0.0,0.0,0.0,0.0,0.0,0.0,0.0,0.0,0.0,0.0,0.0,-0.1795,-0.1795,-0.1795,-0.1795,-0.1795,-0.1795,-0.1795,-0.1795,-0.1795,-0.1795,-0.1795,-0.1793,-0.1807,-0.1786,-0.1725,-0.1297,-0.0557,0.0336,0.1074,0.1745,0.2784,0.3328,0.3462,0.3534,0.3639,0.3589,0.3587,0.3587,0.3587,0.3587,0.3643,0.3643,0.3754,0.386,0.4366,0.4598,0.4938,0.5703,0.5979,0.6194,0.6437,0.6546,0.647,0.6439,0.6412,0.6412,0.6412,0.6412,0.6412,0.6412,0.6412,0.6412,0.6412,0.6412,0.6412,0.6412,0.6412,0.6412,0.6412,0.6412,0.6412,0.6412,0.6412,0.6412,0.6474,0.6593,0.6717,0.6643,0.679,0.6864,0.679,0.6757,0.6752,0.6733,0.6706,0.6639,0.6359,0.4912,0.3777,0.2691,0.1564,0.0,0.0,0.0,0.0,0.0,0.0,0.0,0.0,0.0,0.0,0.0,0.0,0.0,0.0,0.0,0.0,0.0,0.0,0.0,0.0,0.0,0.0,0.0,0.0,0.0,0.0,0.0,0.0,0.0,0.0,0.0,0.0,0.0,0.0,-0.1795,-0.1795,-0.1795,-0.1795,-0.1795,-0.1795,-0.1795,-0.1795,-0.1795,-0.1795,-0.1795,-0.1795,-0.1787,-0.1692,-0.1304,-0.0779,-0.014,0.1009,0.1837,0.2404,0.3193,0.365,0.3666,0.3678,0.3656,0.359,0.3587,0.3587,0.3615,0.3643,0.3699,0.4063,0.4145,0.4452,0.4992,0.5307,0.5704,0.6126,0.6373,0.6545,0.6625,0.6572,0.6443,0.6417,0.6417,0.6417,0.6412,0.6412,0.6412,0.6412,0.6412,0.6412,0.6412,0.6412,0.6412,0.6412,0.6412,0.6412,0.6412,0.6412,0.6412,0.6412,0.6417,0.6442,0.6515,0.6607,0.6768,0.6836,0.685,0.6883,0.6888,0.6839,0.6812,0.6806,0.6839,0.6295,0.5811,0.4436,0.315,0.2098,0.0,0.0,0.0,0.0,0.0,0.0,0.0,0.0,0.0,0.0,0.0,0.0,0.0,0.0,0.0,0.0,0.0,0.0,0.0,0.0,0.0,0.0,0.0,0.0,0.0,0.0,0.0,0.0,0.0,0.0,0.0,0.0,0.0,0.0,0.0,-0.1795,-0.1795,-0.1795,-0.1795,-0.1795,-0.1795,-0.1795,-0.1795,-0.1795,-0.1795,-0.1795,-0.1767,-0.1683,-0.1346,-0.07,-0.0196,0.0392,0.1624,0.2292,0.2799,0.3263,0.3634,0.3692,0.3689,0.3654,0.3615,0.3587,0.3727,0.3839,0.3895,0.4089,0.451,0.4706,0.5101,0.5613,0.6024,0.6374,0.6593,0.6793,0.6872,0.6825,0.6687,0.655,0.646,0.643,0.6444,0.6417,0.6412,0.6412,0.6412,0.6412,0.6412,0.6412,0.6412,0.6412,0.6412,0.6412,0.6412,0.6412,0.6412,0.6412,0.6412,0.6423,0.6455,0.6594,0.6615,0.671,0.694,0.6959,0.6997,0.701,0.6972,0.6964,0.6956,0.6921,0.6117,0.5246,0.4127,0.3004,0.1958,0.0,0.0,0.0,0.0,0.0,0.0,0.0,0.0,0.0,0.0,0.0,0.0,0.0,0.0,0.0,0.0,0.0,0.0,0.0,0.0,0.0,0.0,0.0,0.0,0.0,0.0,0.0,0.0,0.0,0.0,0.0,0.0,0.0,0.0,0.0,-0.1795,-0.1795,-0.1795,-0.1795,-0.1795,-0.1795,-0.1795,-0.1795,-0.1795,-0.1767,-0.1655,-0.1711,-0.1206,-0.0589,-0.014,0.0644,0.1932,0.2128,0.2742,0.3295,0.363,0.3634,0.3696,0.3682,0.3681,0.3699,0.3839,0.4119,0.4342,0.4566,0.4538,0.4571,0.5225,0.5797,0.6189,0.6527,0.6813,0.6999,0.7102,0.7054,0.6997,0.6883,0.6798,0.6615,0.6572,0.6531,0.6425,0.6428,0.6436,0.6436,0.6417,0.6433,0.6439,0.642,0.6414,0.6412,0.6412,0.6412,0.6412,0.6412,0.6412,0.6412,0.6423,0.646,0.658,0.6722,0.6844,0.6959,0.6999,0.7103,0.7138,0.7155,0.7128,0.7114,0.6874,0.6105,0.5199,0.4223,0.3075,0.1921,0.0,0.0,0.0,0.0,0.0,0.0,0.0,0.0,0.0,0.0,0.0,0.0,0.0,0.0,0.0,0.0,0.0,0.0,0.0,0.0,0.0,0.0,0.0,0.0,0.0,0.0,0.0,0.0,0.0,0.0,0.0,0.0,0.0,0.0,0.0,-0.1795,-0.1795,-0.1795,-0.1795,-0.1795,-0.1795,-0.1795,-0.1795,-0.1795,-0.143,-0.0953,-0.0897,-0.0448,0.0308,0.1037,0.1484,0.224,0.2857,0.3266,0.3467,0.3604,0.3604,0.372,0.397,0.4175,0.4231,0.4484,0.4822,0.514,0.5352,0.5664,0.5847,0.6014,0.6417,0.6789,0.6971,0.7122,0.717,0.7165,0.7024,0.6989,0.6902,0.6825,0.6752,0.6733,0.6668,0.655,0.6528,0.6525,0.6507,0.6455,0.6463,0.6482,0.645,0.6417,0.6412,0.6412,0.6417,0.6423,0.642,0.6412,0.6412,0.6417,0.6471,0.6604,0.6679,0.6801,0.6921,0.7059,0.7119,0.7174,0.7207,0.7193,0.7207,0.6846,0.6149,0.5059,0.3999,0.2657,0.1286,0.0,0.0,0.0,0.0,0.0,0.0,0.0,0.0,0.0,0.0,0.0,0.0,0.0,0.0,0.0,0.0,0.0,0.0,0.0,0.0,0.0,0.0,0.0,0.0,0.0,0.0,0.0,0.0,0.0,0.0,0.0,0.0,0.0,0.0,0.0,-0.1795,-0.1795,-0.1795,-0.1795,-0.1795,-0.1795,-0.1795,-0.1795,-0.1795,-0.129,-0.042,-0.0364,0.0252,0.1205,0.1849,0.2381,0.2744,0.325,0.3503,0.3589,0.359,0.3699,0.3949,0.4234,0.455,0.4836,0.5136,0.5446,0.5886,0.6188,0.6448,0.6647,0.6836,0.7116,0.7248,0.7378,0.7365,0.7308,0.7173,0.7068,0.7051,0.697,0.6891,0.6869,0.6855,0.6793,0.6711,0.665,0.6647,0.6609,0.6561,0.6523,0.6517,0.6493,0.6425,0.6414,0.6414,0.64,0.6455,0.6466,0.6469,0.6482,0.6534,0.6596,0.6661,0.6728,0.6874,0.7035,0.7076,0.7098,0.721,0.721,0.721,0.721,0.721,0.6513,0.4836,0.3525,0.2043,0.0,0.0,0.0,0.0,0.0,0.0,0.0,0.0,0.0,0.0,0.0,0.0,0.0,0.0,0.0,0.0,0.0,0.0,0.0,0.0,0.0,0.0,0.0,0.0,0.0,0.0,0.0,0.0,0.0,0.0,0.0,0.0,0.0,0.0,0.0,0.0,-0.1794,-0.1795,-0.1793,-0.1794,-0.1795,-0.1795,-0.1795,-0.1767,-0.1683,-0.1149,-0.0308,-0.0196,0.07,0.1904,0.2409,0.2772,0.325,0.3503,0.3587,0.3587,0.3755,0.4005,0.4339,0.4653,0.509,0.5433,0.5734,0.6107,0.656,0.6582,0.6907,0.728,0.7452,0.7546,0.7674,0.7541,0.7489,0.7481,0.7299,0.7204,0.7174,0.7144,0.7076,0.6999,0.6978,0.6947,0.6828,0.6798,0.6798,0.6779,0.6681,0.6646,0.6631,0.6484,0.645,0.6455,0.6433,0.6477,0.6574,0.6588,0.6604,0.6627,0.6676,0.6779,0.6912,0.6967,0.7007,0.7117,0.7152,0.7191,0.721,0.721,0.721,0.7154,0.7127,0.626,0.4529,0.3134,0.1707,0.0,0.0,0.0,0.0,0.0,0.0,0.0,0.0,0.0,0.0,0.0,0.0,0.0,0.0,0.0,0.0,0.0,0.0,0.0,0.0,0.0,0.0,0.0,0.0,0.0,0.0,0.0,0.0,0.0,0.0,0.0,0.0,0.0,0.0,0.0,0.0,-0.1804,-0.1793,-0.1801,-0.1804,-0.1793,-0.1795,-0.1795,-0.1683,-0.1121,-0.0364,0.0476,0.1009,0.1933,0.2857,0.3109,0.3278,0.3503,0.3587,0.3587,0.3643,0.3979,0.4257,0.4646,0.5292,0.576,0.6125,0.6395,0.6715,0.719,0.7093,0.7324,0.7692,0.7763,0.7837,0.7782,0.7706,0.7641,0.7597,0.7421,0.7246,0.7266,0.7234,0.7196,0.7125,0.7125,0.7068,0.6934,0.6947,0.6923,0.691,0.6806,0.6774,0.6782,0.6653,0.6572,0.6622,0.6599,0.6588,0.673,0.6793,0.6817,0.6796,0.6796,0.6883,0.6994,0.6986,0.7076,0.7147,0.7207,0.721,0.721,0.721,0.7154,0.696,0.6596,0.5367,0.3916,0.2798,0.0,0.0,0.0,0.0,0.0,0.0,0.0,0.0,0.0,0.0,0.0,0.0,0.0,0.0,0.0,0.0,0.0,0.0,0.0,0.0,0.0,0.0,0.0,0.0,0.0,0.0,0.0,0.0,0.0,0.0,0.0,0.0,0.0,0.0,0.0,0.0,0.0,-0.1758,-0.179,-0.179,-0.1795,-0.1793,-0.1795,-0.1795,-0.1627,-0.0813,0.0084,0.0925,0.1793,0.2688,0.3334,0.3587,0.3587,0.3615,0.3839,0.3921,0.4005,0.4536,0.4953,0.5399,0.5884,0.6334,0.6717,0.7033,0.7363,0.759,0.7576,0.7684,0.7807,0.7903,0.7889,0.7859,0.7791,0.7693,0.7622,0.7438,0.7324,0.7316,0.7276,0.7225,0.7217,0.7203,0.719,0.7106,0.707,0.7068,0.7032,0.6986,0.6934,0.6902,0.6834,0.6736,0.6749,0.6796,0.6785,0.6869,0.6997,0.7007,0.6977,0.6926,0.6961,0.7054,0.7081,0.7114,0.7188,0.7207,0.721,0.721,0.721,0.696,0.6763,0.5898,0.4698,0.3244,0.2099,0.0,0.0,0.0,0.0,0.0,0.0,0.0,0.0,0.0,0.0,0.0,0.0,0.0,0.0,0.0,0.0,0.0,0.0,0.0,0.0,0.0,0.0,0.0,0.0,0.0,0.0,0.0,0.0,0.0,0.0,0.0,0.0,0.0,0.0,0.0,0.0,0.0,-0.1765,-0.1784,-0.1788,-0.1792,-0.179,-0.1709,-0.1683,-0.1627,-0.0729,0.0196,0.1035,0.1986,0.2824,0.3469,0.3613,0.3587,0.3727,0.4173,0.4341,0.4646,0.5093,0.5594,0.6017,0.634,0.6791,0.7182,0.7435,0.7551,0.7842,0.7752,0.7771,0.7872,0.79,0.7903,0.7864,0.7821,0.7739,0.7676,0.7522,0.7452,0.7457,0.7378,0.7324,0.7308,0.7281,0.7255,0.7212,0.7171,0.7166,0.713,0.7076,0.7037,0.6956,0.6874,0.6834,0.6839,0.6918,0.6991,0.7024,0.7119,0.7172,0.7117,0.7169,0.7171,0.7166,0.7149,0.7191,0.7199,0.721,0.721,0.721,0.696,0.6738,0.6151,0.5425,0.4055,0.2463,0.1512,0.1008,0.0,0.0,0.0,0.0,0.0,0.0,0.0,0.0,0.0,0.0,0.0,0.0,0.0,0.0,0.0,0.0,0.0,0.0,0.0,0.0,0.0,0.0,0.0,0.0,0.0,0.0,0.0,0.0,0.0,0.0,0.0,0.0,0.0,0.0,0.0,0.0,-0.1697,-0.1729,-0.172,-0.1762,-0.1708,-0.1088,-0.0785,-0.0673,0.014,0.1004,0.1901,0.2789,0.3282,0.3527,0.3567,0.3611,0.3866,0.4145,0.4397,0.4873,0.5633,0.6042,0.6398,0.6756,0.7124,0.7326,0.7513,0.7616,0.7736,0.7761,0.7848,0.7897,0.7903,0.7903,0.7889,0.7867,0.7851,0.7771,0.7635,0.7619,0.76,0.7498,0.7457,0.7427,0.7368,0.7336,0.7279,0.7229,0.7204,0.7166,0.7152,0.7133,0.7125,0.7029,0.6934,0.6945,0.7057,0.7163,0.7138,0.7163,0.721,0.721,0.721,0.721,0.721,0.721,0.721,0.721,0.721,0.721,0.721,0.7015,0.6374,0.5509,0.4698,0.3469,0.1959,0.0981,0.0,0.0,0.0,0.0,0.0,0.0,0.0,0.0,0.0,0.0,0.0,0.0,0.0,0.0,0.0,0.0,0.0,0.0,0.0,0.0,0.0,0.0,0.0,0.0,0.0,0.0,0.0,0.0,0.0,0.0,0.0,0.0,0.0,0.0,0.0,0.0,0.0,-0.1667,-0.1701,-0.1718,-0.1544,-0.1219,-0.0689,-0.0111,0.0578,0.119,0.1765,0.2274,0.3148,0.3669,0.3897,0.3973,0.4145,0.4452,0.5037,0.5316,0.5573,0.6186,0.6542,0.6881,0.7045,0.7209,0.7384,0.7513,0.7627,0.7712,0.7834,0.7903,0.7903,0.7903,0.7903,0.7897,0.7894,0.7897,0.7853,0.7799,0.7774,0.7703,0.7655,0.7581,0.7546,0.747,0.7414,0.7319,0.7283,0.7239,0.7193,0.721,0.721,0.7204,0.7111,0.7081,0.7089,0.7125,0.7196,0.7199,0.7202,0.721,0.721,0.721,0.721,0.721,0.721,0.721,0.721,0.721,0.721,0.721,0.7043,0.5926,0.4838,0.3888,0.2909,0.1707,0.0533,0.0,0.0,0.0,0.0,0.0,0.0,0.0,0.0,0.0,0.0,0.0,0.0,0.0,0.0,0.0,0.0,0.0,0.0,0.0,0.0,0.0,0.0,0.0,0.0,0.0,0.0,0.0,0.0,0.0,0.0,0.0,0.0,0.0,0.0,0.0,0.0,0.0,-0.1648,-0.1693,-0.1645,-0.1155,-0.0533,-0.0298,0.0649,0.2055,0.2245,0.2367,0.2609,0.3222,0.3932,0.4359,0.4502,0.4799,0.517,0.5706,0.6002,0.63,0.6774,0.7093,0.7124,0.7277,0.7297,0.7349,0.7441,0.7606,0.7712,0.7837,0.7903,0.7903,0.7903,0.7903,0.7903,0.7903,0.79,0.7886,0.7837,0.7771,0.7809,0.7771,0.7714,0.7712,0.7665,0.76,0.7403,0.7308,0.7257,0.7239,0.7213,0.7213,0.7177,0.7174,0.7171,0.7171,0.7174,0.7177,0.721,0.721,0.721,0.721,0.721,0.721,0.721,0.721,0.721,0.721,0.721,0.721,0.721,0.6652,0.5676,0.4431,0.3316,0.2161,0.0896,0.0,0.0,0.0,0.0,0.0,0.0,0.0,0.0,0.0,0.0,0.0,0.0,0.0,0.0,0.0,0.0,0.0,0.0,0.0,0.0,0.0,0.0,0.0,0.0,0.0,0.0,0.0,0.0,0.0,0.0,0.0,0.0,0.0,0.0,0.0,0.0,0.0,0.0,-0.1625,-0.1563,-0.0956,-0.0602,-0.0319,0.0936,0.1685,0.2208,0.3239,0.3601,0.3694,0.3984,0.4418,0.4901,0.5039,0.5263,0.5586,0.6128,0.6312,0.6544,0.6999,0.7258,0.7279,0.7292,0.7305,0.7346,0.743,0.7581,0.7703,0.7834,0.7903,0.7903,0.7903,0.7903,0.7903,0.7903,0.79,0.79,0.7878,0.7853,0.7878,0.7889,0.7862,0.7832,0.7785,0.7693,0.7546,0.7392,0.7332,0.7259,0.7223,0.7193,0.721,0.721,0.721,0.721,0.721,0.721,0.721,0.721,0.721,0.721,0.721,0.721,0.721,0.721,0.721,0.721,0.7127,0.7099,0.6877,0.6151,0.5266,0.3967,0.28,0.1494,0.0,0.0,0.0,0.0,0.0,0.0,0.0,0.0,0.0,0.0,0.0,0.0,0.0,0.0,0.0,0.0,0.0,0.0,0.0,0.0,0.0,0.0,0.0,0.0,0.0,0.0,0.0,0.0,0.0,0.0,0.0,0.0,0.0,0.0,0.0,0.0,0.0,0.0,0.0,-0.1592,-0.1494,-0.0746,0.0,0.0729,0.1677,0.2385,0.3043,0.3759,0.4358,0.471,0.4742,0.4968,0.5483,0.5621,0.5888,0.6144,0.6513,0.6733,0.6898,0.6996,0.7191,0.7288,0.7319,0.7307,0.7334,0.743,0.7552,0.7703,0.7807,0.7903,0.7903,0.7903,0.7903,0.7903,0.7903,0.7903,0.7903,0.7903,0.7903,0.7903,0.7903,0.7903,0.7872,0.7845,0.7755,0.7649,0.7484,0.7384,0.7294,0.7217,0.7193,0.721,0.721,0.721,0.721,0.721,0.721,0.721,0.721,0.7182,0.7127,0.7154,0.7154,0.721,0.721,0.721,0.7127,0.6346,0.6207,0.5871,0.5228,0.4086,0.2836,0.2253,0.1399,0.0,0.0,0.0,0.0,0.0,0.0,0.0,0.0,0.0,0.0,0.0,0.0,0.0,0.0,0.0,0.0,0.0,0.0,0.0,0.0,0.0,0.0,0.0,0.0,0.0,0.0,0.0,0.0,0.0,0.0,0.0,0.0,0.0,0.0,0.0,0.0,0.0,0.0,0.0,-0.1516,-0.1342,-0.059,0.0614,0.1898,0.2129,0.2793,0.3753,0.4126,0.4655,0.533,0.5322,0.5653,0.6022,0.6315,0.6756,0.7008,0.6985,0.7107,0.7161,0.7207,0.726,0.729,0.7339,0.7293,0.7339,0.7435,0.7554,0.7703,0.7837,0.7903,0.7903,0.7903,0.7903,0.7903,0.7903,0.7903,0.7903,0.7903,0.7903,0.7903,0.7903,0.7903,0.7903,0.7894,0.7818,0.7717,0.7608,0.7457,0.7357,0.7282,0.7226,0.7215,0.721,0.721,0.721,0.721,0.721,0.721,0.721,0.7043,0.6932,0.6988,0.6884,0.6837,0.6804,0.6804,0.6359,0.5574,0.5324,0.4987,0.4081,0.2896,0.2061,0.1669,0.0,0.0,0.0,0.0,0.0,0.0,0.0,0.0,0.0,0.0,0.0,0.0,0.0,0.0,0.0,0.0,0.0,0.0,0.0,0.0,0.0,0.0,0.0,0.0,0.0,0.0,0.0,0.0,0.0,0.0,0.0,0.0,0.0,0.0,0.0,0.0,0.0,0.0,0.0,0.0,-0.1212,-0.0556,0.0228,0.1137,0.2044,0.2686,0.3139,0.3484,0.4349,0.4822,0.5261,0.6129,0.659,0.6619,0.6672,0.6924,0.7124,0.721,0.7256,0.7273,0.723,0.7244,0.7274,0.7293,0.7271,0.7372,0.7519,0.7655,0.772,0.7842,0.7903,0.7903,0.7903,0.7903,0.7903,0.7903,0.7903,0.7903,0.7903,0.7903,0.7903,0.7903,0.7903,0.7903,0.79,0.7889,0.784,0.7725,0.7671,0.7578,0.7395,0.7277,0.7237,0.7207,0.7226,0.7223,0.7248,0.7045,0.705,0.6936,0.6715,0.5777,0.5645,0.5376,0.5344,0.5326,0.5189,0.4866,0.4478,0.4944,0.4514,0.299,0.1753,0.1447,0.1077,0.0,0.0,0.0,0.0,0.0,0.0,0.0,0.0,0.0,0.0,0.0,0.0,0.0,0.0,0.0,0.0,0.0,0.0,0.0,0.0,0.0,0.0,0.0,0.0,0.0,0.0,0.0,0.0,0.0,0.0,0.0,0.0,0.0,0.0,0.0,0.0,0.0,0.0,0.0,0.0]},{"header":{"parameterUnit":"m.s-1","parameterCategory":1,"la1":31.0,"la2":29.5877,"lo1":-88.7671,"lo2":-86.6584,"dy":0.0162,"dx":0.0185,"nx":115,"ny":88,"refTime":"2023-05-30T06:00:00:Z","depth":0,"parameterNumber":3,"parameterNumberName":"V-component_of_WINDS"},"data":[0.0,0.0,0.0,0.0,0.0,0.0,0.0,0.0,0.0,0.0,0.0,0.0,0.0,0.0,0.0,0.0,0.0,0.0,0.0,0.0,0.0,0.0,0.0,0.0,0.0,0.0,0.0,0.0,0.0,0.0,0.0,0.0,0.0,0.0,0.0,0.0,0.0,0.0,0.0,0.0,0.0,0.0,0.0,0.0,0.0,0.0,0.0,0.0,0.0,0.0,0.0,0.0,0.0,0.0,0.0,0.0,0.0,0.0,0.0,0.0,0.0,0.0,0.0,0.0,0.0,0.0,0.0,0.0,0.0,0.0,0.0,0.0,0.0,0.0,0.0,0.0,0.0,0.0,0.0,0.0,0.0,0.0,0.0,0.0,0.0,0.0,0.0,0.0,0.0,0.0,0.0,0.0,0.0,0.0,0.0,0.0,0.0,0.0,0.0,0.0,0.0,0.0,0.0,0.0,0.0,0.0,0.0,0.0,0.0,0.0,0.0,0.0,0.0,0.0,0.0,0.0,0.0,0.0,0.0,0.0,0.0,0.0,0.0,0.0,0.0,0.0,0.0,0.0,0.0,0.0,0.0,0.0,0.0,0.0,0.0,0.0,0.0,0.0,0.0,0.0,0.0,0.0,0.0,0.0,0.0,0.0,0.0,0.0,0.0,0.0,0.0,0.0,0.0,0.0,0.0,0.0,0.0,0.0,0.0,0.0,0.0,0.0,0.0,0.0,0.0,0.0,0.0,0.0,0.0,0.0,0.0,0.0,0.0,0.0,0.0,0.0,0.0,0.0,0.0,0.0,0.0,0.0,0.0,0.0,0.0,0.0,0.0,0.0,0.0,0.0,0.0,0.0,0.0,0.0,0.0,0.0,0.0,0.0,0.0,0.0,0.0,0.0,0.0,0.0,0.0,0.0,0.0,0.0,0.0,0.0,0.0,0.0,0.0,0.0,0.0,0.0,0.0,0.0,0.0,0.0,0.0,0.0,0.0,0.0,0.0,0.0,0.0,0.0,0.0,0.0,0.0,0.0,0.0,0.0,0.0,0.0,0.0,0.0,0.0,0.0,0.0,0.0,0.0,0.0,0.0,0.0,0.0,0.0,0.0,0.0,0.0,0.0,0.0,0.0,0.0,0.0,0.0,0.0,0.0,0.0,0.0,0.0,0.0,0.0,0.0,0.0,0.0,0.0,0.0,0.0,0.0,0.0,0.0,0.0,0.0,0.0,0.0,0.0,0.0,0.0,0.0,0.0,0.0,0.0,0.0,0.0,0.0,0.0,0.0,0.0,0.0,0.0,0.0,0.0,0.0,0.0,0.0,0.0,0.0,0.0,0.0,0.0,0.0,0.0,0.0,0.0,0.0,0.0,0.0,0.0,0.0,0.0,0.0,0.0,0.0,0.0,0.0,0.0,0.0,0.0,0.0,0.0,0.0,0.0,0.0,0.0,0.0,0.0,0.0,0.0,0.0,0.0,0.0,0.0,0.0,0.0,0.0,0.0,0.0,0.0,0.0,0.0,0.0,0.0,0.0,0.0,0.0,0.0,0.0,0.0,0.0,0.0,0.0,0.0,0.0,0.0,0.0,0.0,0.0,0.0,0.0,0.0,0.0,0.0,0.0,0.0,0.0,0.0,0.0,0.0,0.0,0.0,0.0,0.0,0.0,0.0,0.0,0.0,0.0,0.0,0.0,0.0,0.0,0.0,0.0,0.0,0.0,0.0,0.0,0.0,0.0,0.0,0.0,0.0,0.0,0.0,0.0,0.0,0.0,0.0,0.0,0.0,0.0,0.0,0.0,0.0,0.0,0.0,0.0,0.0,0.0,0.0,0.0,0.0,0.0,0.0,0.0,0.0,0.0,0.0,0.0,0.0,0.0,0.0,0.0,0.0,0.0,0.0,0.0,0.0,0.0,0.0,0.0,0.0,0.0,0.0,0.0,0.0,0.0,0.0,0.0,0.0,0.0,0.0,0.0,0.0,0.0,0.0,0.0,0.0,0.0,0.0,0.0,0.0,0.0,0.0,0.0,0.0,0.0,0.0,0.0,0.0,0.0,0.0,0.0,0.0,0.0,0.0,0.0,0.0,0.0,0.0,0.0,0.0,0.0,0.0,0.0,0.0,0.0,0.0,0.0,0.0,0.0,0.0,0.0,0.0,0.0,0.0,0.0,0.0,0.0,0.0,0.0,0.0,0.0,0.0,0.0,0.0,0.0,0.0,0.0,0.0,0.0,0.0,0.0,0.0,0.0,0.0,0.0,0.0,0.0,0.0,0.0,0.0,0.0,0.0,0.0,0.0,0.0,0.0,0.0,0.0,0.0,0.0,0.0,0.0,0.0,0.0,0.0,0.0,0.0,0.0,0.0,0.0,0.0,0.0,0.0,0.0,0.0,0.0,0.0,0.0,0.0,0.0,0.0,0.0,0.0,0.0,0.0,0.0,0.0,0.0,0.0,0.0,0.0,0.0,0.0,0.0,0.0,0.0,0.0,0.0,0.0,0.0,0.0,0.0,0.0,0.0,0.0,0.0,0.0,0.0,0.0,0.0,0.0,0.0,0.0,0.0,0.0,0.0,0.0,0.0,0.0,0.0,0.0,0.0,0.0,0.0,0.0,0.0,0.0,0.0,0.0,0.0,0.0,0.0,0.0,0.0,0.0,0.0,0.0,0.0,0.0,0.0,0.0,0.0,0.0,0.0,0.0,0.0,0.0,0.0,0.0,0.0,0.0,0.0,0.0,0.0,0.0,0.0,0.0,0.0,0.0,0.0,0.0,0.0,0.0,0.0,0.0,0.0,0.0,0.0,0.0,0.0,0.0,0.0,0.0,0.0,0.0,0.0,0.0,0.0,0.0,0.0,0.0,0.0,0.0,0.0,0.0,0.0,0.0,0.0,0.0,0.0,0.0,0.0,0.0,0.0,0.0,0.0,0.0,0.0,0.0,0.0,0.0,0.0,0.0,0.0,0.0,0.0,0.0,0.0,0.0,0.0,0.0,0.0,0.0,0.0,0.0,0.0,0.0,0.0,0.0,0.0,0.0,0.0,0.0,0.0,0.0,0.0,0.0,0.0,0.0,0.0,0.0,0.0,0.0,0.0,0.0,0.0,0.0,0.0,0.0,0.0,0.0,0.0,0.0,0.0,0.0,0.0,0.0,0.0,0.0,0.0,0.0,0.0,0.0,0.0,0.0,0.0,0.0,0.0,0.0,0.0,0.0,0.0,0.0,0.0,0.0,0.0,0.0,0.0,0.0,0.0,0.0,0.0,0.0,0.0,0.0,0.0,0.0,0.0,0.0,0.0,0.0,0.0,0.0,0.0,0.0,0.0,0.0,0.0,0.0,0.0,0.0,0.0,0.0,0.0,0.0,0.0,0.0,0.0,0.0,0.0,0.0,0.0,0.0,0.0,0.0,0.0,0.0,0.0,0.0,0.0,0.0,0.0,0.0,0.0,0.0,0.0,0.0,0.0,0.0,0.0,0.0,0.0,0.0,0.0,0.0,0.0,0.0,0.0,0.0,0.0,0.0,0.0,0.0,0.0,0.0,0.0,0.0,0.0,0.0,0.0,0.0,0.0,0.0,0.0,0.0,0.0,0.0,0.0,0.0,0.0,0.0,0.0,0.0,0.0,0.0,0.0,0.0,0.0,0.0,0.0,0.0,0.0,0.0,0.0,0.0,0.0,0.0,0.0,0.0,0.0,0.0,0.0,0.0,0.0,0.0,0.0,0.0,0.0,0.0,0.0,0.0,0.0,0.0,0.0,0.0,0.0,0.0,0.0,0.0,0.0,0.0,0.0,0.0,0.0,0.0,0.0,0.0,0.0,0.0,0.0,0.0,0.0,0.0,0.0,0.0,0.0,0.0,0.0,0.0,0.0,0.0,0.0,0.0,0.0,0.0,0.0,0.0,0.0,0.0,0.0,0.0,0.0,0.0,0.0,0.0,0.0,0.0,0.0,0.0,0.0,0.0,0.0,0.0,0.0,0.0,0.0,0.0,0.0,0.0,0.0,0.0,0.0,0.0,0.0,0.0,0.0,0.0,0.0,0.0,0.0,0.0,0.0,0.0,0.0,0.0,0.0,0.0,0.0,0.0,0.0,0.0,0.0,0.0,0.0,0.0,0.0,0.0,0.0,0.0,0.0,0.0,0.0,0.0,0.0,0.0,0.0,0.0,0.0,0.0,0.0,0.0,0.0,0.0,0.0,0.0,0.0,0.0,0.0,0.0,0.0,0.0,0.0,0.0,0.0,0.0,0.0,0.0,0.0,0.0,0.0,0.0,0.0,1.9988,0.0,0.0,0.0,0.0,0.0,0.0,0.0,0.0,0.0,0.0,0.0,0.0,0.0,0.0,0.0,0.0,0.0,0.0,0.0,0.0,0.0,0.0,0.0,0.0,0.0,0.0,0.0,0.0,0.0,0.0,0.0,0.0,0.0,0.0,0.0,0.0,0.0,0.0,0.0,0.0,0.0,0.0,0.0,0.0,0.0,0.0,0.0,0.0,0.0,0.0,0.0,0.0,0.0,0.0,0.0,0.0,0.0,0.0,0.0,0.0,0.0,0.0,0.0,0.0,0.0,0.0,0.0,0.0,0.0,0.0,0.0,0.0,0.0,0.0,0.0,0.0,0.0,0.0,0.0,0.0,0.0,0.0,0.0,0.0,0.0,0.0,0.0,0.0,0.0,0.0,0.0,0.0,0.0,0.0,0.0,0.0,0.0,0.0,0.0,0.0,0.0,0.0,0.0,0.0,0.0,0.0,0.0,0.0,0.0,0.0,1.9988,1.9988,1.9988,1.9988,1.9988,0.0,0.0,0.0,0.0,0.0,0.0,0.0,0.0,0.0,0.0,0.0,0.0,0.0,0.0,0.0,0.0,0.0,0.0,0.0,0.0,0.0,0.0,0.0,0.0,0.0,0.0,0.0,0.0,0.0,0.0,0.0,0.0,0.0,0.0,0.0,0.0,0.0,0.0,0.0,0.0,0.0,0.0,0.0,0.0,0.0,0.0,0.0,0.0,0.0,0.0,0.0,0.0,0.0,0.0,0.0,0.0,0.0,0.0,0.0,0.0,0.0,0.0,0.0,0.0,0.0,0.0,0.0,0.0,0.0,0.0,0.0,0.0,0.0,0.0,0.0,0.0,0.0,0.0,0.0,0.0,0.0,0.0,0.0,0.0,0.0,0.0,0.0,0.0,0.0,0.0,0.0,0.0,0.0,0.0,0.0,0.0,0.0,0.0,0.0,0.0,0.0,0.0,0.0,0.0,0.0,0.0,0.0,0.0,0.0,0.0,0.0,0.0,1.9988,1.9988,1.9988,0.0,0.0,0.0,0.0,0.0,0.0,0.0,0.0,0.0,0.0,0.0,0.0,0.0,0.0,0.0,0.0,0.0,0.0,0.0,0.0,0.0,0.0,0.0,0.0,0.0,0.0,0.0,0.0,0.0,0.0,0.0,0.0,0.0,0.0,0.0,0.0,0.0,0.0,0.0,0.0,0.0,0.0,0.0,0.0,0.0,0.0,0.0,0.0,0.0,0.0,0.0,0.0,0.0,0.0,0.0,0.0,0.0,0.0,0.0,0.0,0.0,0.0,0.0,0.0,0.0,0.0,0.0,0.0,0.0,0.0,0.0,0.0,0.0,0.0,0.0,0.0,0.0,0.0,0.0,0.0,0.0,0.0,0.0,0.0,0.0,0.0,0.0,0.0,0.0,0.0,0.0,0.0,0.0,0.0,0.0,0.0,0.0,0.0,0.0,0.0,0.0,0.0,0.0,0.0,0.0,0.0,0.0,0.0,0.0,0.0,1.9988,1.9988,1.9988,0.0,1.9988,0.0,0.0,0.0,0.0,0.0,0.0,0.0,0.0,0.0,0.0,0.0,0.0,0.0,0.0,0.0,0.0,0.0,0.0,0.0,0.0,0.0,0.0,0.0,0.0,0.0,0.0,0.0,0.0,0.0,0.0,0.0,0.0,0.0,0.0,0.0,0.0,0.0,0.0,0.0,0.0,0.0,0.0,0.0,0.0,0.0,0.0,0.0,0.0,0.0,0.0,0.0,0.0,0.0,0.0,0.0,0.0,0.0,0.0,0.0,0.0,0.0,0.0,0.0,0.0,0.0,0.0,0.0,0.0,0.0,0.0,0.0,0.0,0.0,0.0,0.0,0.0,0.0,0.0,0.0,0.0,0.0,0.0,0.0,0.0,0.0,0.0,0.0,0.0,0.0,0.0,0.0,0.0,0.0,0.0,0.0,0.0,0.0,0.0,0.0,0.0,0.0,0.0,0.0,0.0,0.0,0.0,0.0,0.0,0.0,0.0,1.9988,1.9988,1.9988,1.9988,0.0,0.0,0.0,0.0,0.0,0.0,0.0,0.0,0.0,0.0,0.0,0.0,0.0,0.0,0.0,0.0,0.0,0.0,0.0,0.0,0.0,0.0,0.0,0.0,0.0,0.0,0.0,0.0,0.0,0.0,0.0,0.0,0.0,0.0,0.0,0.0,0.0,0.0,0.0,0.0,0.0,0.0,0.0,0.0,0.0,0.0,0.0,0.0,0.0,0.0,0.0,0.0,0.0,0.0,0.0,0.0,0.0,0.0,0.0,0.0,0.0,0.0,0.0,0.0,0.0,0.0,0.0,0.0,0.0,0.0,0.0,0.0,0.0,0.0,0.0,0.0,0.0,0.0,0.0,0.0,0.0,0.0,0.0,0.0,0.0,0.0,0.0,0.0,0.0,0.0,0.0,0.0,0.0,0.0,0.0,0.0,0.0,0.0,0.0,0.0,0.0,0.0,0.0,0.0,0.0,0.0,0.0,0.0,0.0,0.0,1.9988,1.9988,1.9988,1.9988,2.0102,2.0334,0.0,0.0,0.0,0.0,0.0,0.0,0.0,0.0,0.0,0.0,0.0,0.0,0.0,0.0,0.0,0.0,0.0,0.0,0.0,0.0,0.0,0.0,0.0,0.0,0.0,0.0,0.0,0.0,0.0,0.0,0.0,0.0,0.0,0.0,0.0,0.0,0.0,0.0,0.0,0.0,0.0,0.0,0.0,0.0,0.0,0.0,0.0,0.0,0.0,0.0,0.0,0.0,0.0,0.0,0.0,0.0,0.0,0.0,0.0,0.0,0.0,0.0,0.0,0.0,0.0,0.0,0.0,0.0,0.0,0.0,0.0,0.0,0.0,0.0,0.0,0.0,0.0,0.0,0.0,0.0,0.0,0.0,0.0,0.0,0.0,0.0,0.0,0.0,0.0,0.0,0.0,0.0,0.0,0.0,0.0,0.0,0.0,0.0,0.0,0.0,0.0,0.0,0.0,0.0,0.0,0.0,0.0,0.0,1.9988,2.001,2.001,2.0007,2.0007,2.0372,0.0,0.0,0.0,0.0,0.0,0.0,0.0,0.0,0.0,0.0,0.0,0.0,0.0,0.0,0.0,0.0,0.0,0.0,0.0,0.0,0.0,0.0,0.0,0.0,0.0,0.0,0.0,0.0,0.0,0.0,0.0,0.0,0.0,0.0,0.0,0.0,0.0,0.0,0.0,0.0,0.0,0.0,0.0,0.0,0.0,0.0,0.0,0.0,0.0,0.0,0.0,0.0,0.0,0.0,0.0,0.0,0.0,0.0,0.0,0.0,0.0,0.0,0.0,0.0,0.0,0.0,0.0,0.0,0.0,0.0,0.0,0.0,0.0,0.0,0.0,0.0,0.0,0.0,0.0,0.0,0.0,0.0,0.0,0.0,0.0,0.0,0.0,0.0,0.0,0.0,0.0,0.0,0.0,0.0,0.0,0.0,0.0,0.0,0.0,0.0,0.0,0.0,0.0,0.0,0.0,0.0,0.0,0.0,0.0,2.001,2.0521,2.0765,2.0786,2.132,2.1718,0.0,0.0,0.0,0.0,0.0,0.0,0.0,0.0,0.0,0.0,0.0,0.0,0.0,0.0,0.0,0.0,0.0,0.0,0.0,0.0,0.0,0.0,0.0,0.0,0.0,0.0,0.0,0.0,0.0,0.0,0.0,0.0,0.0,0.0,0.0,0.0,0.0,0.0,0.0,0.0,0.0,0.0,0.0,0.0,0.0,0.0,0.0,0.0,0.0,0.0,0.0,0.0,0.0,0.0,0.0,0.0,0.0,0.0,0.0,0.0,0.0,0.0,0.0,0.0,0.0,0.0,0.0,0.0,0.0,0.0,0.0,0.0,0.0,0.0,0.0,0.0,0.0,0.0,0.0,0.0,0.0,0.0,0.0,0.0,0.0,0.0,0.0,0.0,0.0,0.0,0.0,0.0,0.0,0.0,0.0,0.0,0.0,0.0,0.0,0.0,0.0,0.0,0.0,0.0,0.0,0.0,0.0,0.0,0.0,2.0824,0.0,2.1642,2.1639,2.2195,2.2612,0.0,0.0,0.0,0.0,0.0,0.0,0.0,0.0,0.0,0.0,0.0,0.0,0.0,0.0,0.0,0.0,0.0,0.0,0.0,0.0,0.0,0.0,0.0,0.0,0.0,0.0,0.0,0.0,0.0,0.0,0.0,0.0,0.0,0.0,0.0,0.0,0.0,0.0,0.0,0.0,0.0,0.0,0.0,0.0,0.0,0.0,0.0,0.0,0.0,0.0,0.0,0.0,0.0,0.0,0.0,0.0,0.0,0.0,0.0,0.0,0.0,0.0,0.0,0.0,0.0,0.0,0.0,0.0,0.0,0.0,0.0,0.0,0.0,0.0,0.0,0.0,0.0,0.0,0.0,0.0,0.0,0.0,0.0,0.0,0.0,0.0,0.0,0.0,0.0,0.0,0.0,0.0,0.0,0.0,0.0,0.0,0.0,0.0,0.0,0.0,0.0,0.0,0.0,0.0,0.0,0.0,0.0,0.0,2.1639,2.2416,2.2476,2.2514,2.2517,2.2555,2.2934,0.0,0.0,0.0,0.0,0.0,0.0,0.0,0.0,0.0,0.0,0.0,0.0,0.0,0.0,0.0,0.0,0.0,0.0,0.0,0.0,0.0,0.0,0.0,0.0,0.0,0.0,0.0,0.0,0.0,0.0,0.0,0.0,0.0,0.0,0.0,0.0,0.0,0.0,0.0,0.0,0.0,0.0,0.0,0.0,0.0,0.0,0.0,0.0,0.0,0.0,0.0,0.0,0.0,0.0,0.0,0.0,0.0,0.0,0.0,0.0,0.0,0.0,0.0,0.0,0.0,0.0,0.0,0.0,0.0,0.0,0.0,0.0,0.0,0.0,0.0,0.0,0.0,0.0,0.0,0.0,0.0,0.0,0.0,0.0,0.0,0.0,0.0,0.0,0.0,0.0,0.0,0.0,0.0,0.0,0.0,0.0,0.0,0.0,0.0,0.0,0.0,0.0,0.0,0.0,0.0,0.0,0.0,0.0,0.0,2.2514,2.3044,2.3332,2.3351,2.3923,2.434,0.0,0.0,0.0,0.0,0.0,0.0,0.0,0.0,0.0,0.0,0.0,0.0,0.0,0.0,0.0,0.0,0.0,0.0,0.0,0.0,0.0,0.0,0.0,0.0,0.0,0.0,0.0,0.0,0.0,0.0,0.0,0.0,0.0,0.0,0.0,0.0,0.0,0.0,0.0,0.0,0.0,0.0,0.0,0.0,0.0,0.0,0.0,0.0,0.0,0.0,0.0,0.0,0.0,0.0,0.0,0.0,0.0,0.0,0.0,0.0,0.0,0.0,0.0,0.0,0.0,0.0,0.0,0.0,0.0,0.0,0.0,0.0,0.0,0.0,0.0,0.0,0.0,0.0,0.0,0.0,0.0,0.0,0.0,0.0,0.0,0.0,0.0,0.0,0.0,0.0,0.0,0.0,0.0,0.0,0.0,0.0,0.0,0.0,0.0,0.0,0.0,0.0,0.0,0.0,0.0,0.0,0.0,0.0,0.0,2.4378,2.4533,2.4624,2.4621,2.5151,2.5443,2.5439,0.0,0.0,0.0,0.0,0.0,0.0,0.0,0.0,0.0,0.0,0.0,0.0,0.0,0.0,0.0,0.0,0.0,0.0,0.0,0.0,0.0,0.0,0.0,0.0,0.0,0.0,0.0,0.0,0.0,0.0,0.0,0.0,0.0,0.0,0.0,0.0,0.0,0.0,0.0,0.0,0.0,0.0,0.0,0.0,0.0,0.0,0.0,0.0,0.0,0.0,0.0,0.0,0.0,0.0,0.0,0.0,0.0,0.0,0.0,0.0,0.0,0.0,0.0,0.0,0.0,0.0,0.0,0.0,0.0,0.0,0.0,0.0,0.0,0.0,0.0,0.0,0.0,0.0,0.0,0.0,0.0,0.0,0.0,0.0,0.0,0.0,0.0,0.0,0.0,0.0,0.0,0.0,0.0,0.0,0.0,0.0,0.0,0.0,0.0,0.0,0.0,0.0,0.0,0.0,0.0,0.0,0.0,0.0,2.7549,2.6806,2.6386,2.6254,2.6258,2.6235,0.0,0.0,0.0,0.0,0.0,0.0,0.0,0.0,0.0,0.0,0.0,0.0,0.0,0.0,0.0,0.0,0.0,0.0,0.0,0.0,0.0,0.0,0.0,0.0,0.0,0.0,0.0,0.0,0.0,0.0,0.0,0.0,0.0,0.0,0.0,0.0,0.0,0.0,0.0,0.0,0.0,0.0,0.0,0.0,0.0,0.0,0.0,0.0,0.0,0.0,0.0,0.0,0.0,0.0,0.0,0.0,0.0,0.0,0.0,0.0,0.0,0.0,0.0,0.0,0.0,0.0,0.0,0.0,0.0,0.0,0.0,0.0,0.0,0.0,0.0,0.0,0.0,0.0,0.0,0.0,0.0,0.0,0.0,0.0,0.0,0.0,0.0,0.0,0.0,0.0,0.0,0.0,0.0,0.0,0.0,0.0,0.0,0.0,0.0,0.0,0.0,0.0,0.0,0.0,0.0,0.0,0.0,0.0,0.0,2.8468,2.8976,2.8579,2.7217,2.7168,2.6584,0.0,0.0,0.0,0.0,0.0,0.0,0.0,0.0,0.0,0.0,0.0,0.0,0.0,0.0,0.0,0.0,0.0,0.0,0.0,0.0,0.0,0.0,0.0,0.0,0.0,0.0,0.0,0.0,0.0,0.0,0.0,0.0,0.0,0.0,0.0,0.0,0.0,0.0,0.0,0.0,0.0,0.0,0.0,0.0,0.0,0.0,0.0,0.0,0.0,0.0,0.0,0.0,0.0,0.0,0.0,0.0,0.0,0.0,0.0,0.0,0.0,0.0,0.0,0.0,0.0,0.0,0.0,0.0,0.0,0.0,0.0,0.0,0.0,0.0,0.0,0.0,0.0,0.0,0.0,0.0,0.0,0.0,0.0,0.0,0.0,0.0,0.0,0.0,0.0,0.0,0.0,0.0,0.0,0.0,0.0,0.0,0.0,0.0,0.0,0.0,0.0,0.0,0.0,0.0,0.0,0.0,0.0,0.0,2.7599,2.9947,3.0896,3.0817,2.9684,2.8976,2.7835,0.0,0.0,0.0,0.0,0.0,0.0,0.0,0.0,0.0,0.0,0.0,0.0,0.0,0.0,0.0,0.0,0.0,0.0,0.0,0.0,0.0,0.0,0.0,0.0,0.0,0.0,0.0,0.0,0.0,0.0,0.0,0.0,0.0,0.0,0.0,0.0,0.0,0.0,0.0,0.0,0.0,0.0,0.0,0.0,0.0,0.0,0.0,0.0,0.0,0.0,0.0,0.0,0.0,0.0,0.0,0.0,0.0,0.0,0.0,0.0,0.0,0.0,0.0,0.0,0.0,0.0,0.0,0.0,0.0,0.0,0.0,0.0,0.0,0.0,0.0,0.0,0.0,0.0,0.0,0.0,0.0,0.0,0.0,0.0,0.0,0.0,0.0,0.0,0.0,0.0,0.0,0.0,0.0,0.0,0.0,0.0,0.0,0.0,0.0,0.0,0.0,0.0,0.0,0.0,0.0,0.0,0.0,0.0,2.8439,3.1568,3.2513,3.291,3.2737,3.1273,2.9589,0.0,0.0,0.0,0.0,0.0,0.0,0.0,0.0,0.0,0.0,0.0,0.0,0.0,0.0,0.0,0.0,0.0,0.0,0.0,0.0,0.0,0.0,0.0,0.0,0.0,0.0,0.0,0.0,0.0,0.0,0.0,0.0,0.0,0.0,0.0,0.0,0.0,0.0,0.0,0.0,0.0,0.0,0.0,0.0,0.0,0.0,0.0,0.0,0.0,0.0,0.0,0.0,0.0,0.0,0.0,0.0,0.0,0.0,0.0,0.0,0.0,0.0,0.0,0.0,0.0,0.0,0.0,0.0,0.0,0.0,0.0,0.0,0.0,0.0,0.0,0.0,0.0,0.0,0.0,0.0,0.0,0.0,0.0,0.0,0.0,0.0,0.0,0.0,0.0,0.0,0.0,0.0,0.0,0.0,0.0,0.0,0.0,0.0,0.0,0.0,0.0,0.0,0.0,0.0,0.0,0.0,0.0,0.0,3.0585,3.2605,3.3583,3.4044,3.4002,3.2816,3.1005,0.0,0.0,0.0,0.0,0.0,0.0,0.0,0.0,0.0,0.0,0.0,0.0,0.0,0.0,0.0,0.0,0.0,0.0,0.0,0.0,0.0,0.0,0.0,0.0,0.0,0.0,0.0,0.0,0.0,0.0,0.0,0.0,0.0,0.0,0.0,0.0,0.0,0.0,0.0,0.0,0.0,0.0,0.0,0.0,0.0,0.0,0.0,0.0,2.45,0.0,0.0,0.0,0.0,0.0,0.0,0.0,0.0,0.0,0.0,0.0,0.0,0.0,0.0,0.0,0.0,0.0,0.0,0.0,0.0,0.0,0.0,0.0,0.0,0.0,0.0,0.0,0.0,0.0,0.0,0.0,0.0,0.0,0.0,0.0,0.0,0.0,0.0,0.0,0.0,0.0,0.0,0.0,0.0,0.0,0.0,0.0,0.0,0.0,0.0,0.0,0.0,0.0,0.0,0.0,0.0,0.0,0.0,0.0,3.1303,3.2993,3.435,3.4778,3.4266,3.3668,3.2138,0.0,0.0,0.0,0.0,0.0,0.0,0.0,0.0,0.0,0.0,0.0,0.0,0.0,0.0,0.0,0.0,0.0,0.0,0.0,0.0,0.0,0.0,0.0,0.0,0.0,0.0,0.0,0.0,0.0,0.0,0.0,0.0,0.0,0.0,0.0,0.0,0.0,0.0,0.0,0.0,0.0,0.0,0.0,0.0,0.0,0.0,0.0,0.0,0.0,0.0,0.0,0.0,0.0,0.0,0.0,0.0,0.0,0.0,0.0,0.0,0.0,0.0,0.0,0.0,0.0,0.0,0.0,0.0,0.0,0.0,0.0,0.0,0.0,0.0,0.0,0.0,0.0,0.0,0.0,0.0,0.0,0.0,0.0,0.0,0.0,0.0,0.0,0.0,0.0,0.0,0.0,0.0,0.0,0.0,0.0,0.0,0.0,0.0,0.0,0.0,0.0,0.0,0.0,0.0,0.0,0.0,0.0,2.9817,3.14,3.2871,3.4475,3.4857,3.3995,3.3797,3.2702,3.058,0.0,0.0,0.0,0.0,0.0,0.0,0.0,0.0,0.0,0.0,0.0,0.0,0.0,0.0,0.0,0.0,0.0,0.0,0.0,0.0,0.0,0.0,0.0,0.0,0.0,0.0,0.0,0.0,0.0,0.0,0.0,0.0,0.0,0.0,0.0,0.0,0.0,0.0,2.4667,2.4667,0.0,0.0,0.0,0.0,0.0,0.0,0.0,0.0,2.4611,0.0,0.0,0.0,0.0,0.0,0.0,0.0,0.0,0.0,0.0,0.0,0.0,0.0,0.0,0.0,0.0,0.0,0.0,0.0,0.0,0.0,0.0,0.0,0.0,0.0,0.0,0.0,0.0,0.0,0.0,0.0,0.0,0.0,0.0,0.0,0.0,0.0,0.0,0.0,0.0,0.0,0.0,0.0,0.0,0.0,0.0,0.0,0.0,0.0,0.0,0.0,0.0,0.0,0.0,0.0,0.0,2.8981,3.0701,3.1733,3.2,3.301,3.3442,3.3255,3.2445,3.1821,3.1306,0.0,0.0,0.0,0.0,0.0,0.0,0.0,0.0,0.0,0.0,0.0,0.0,0.0,0.0,0.0,0.0,0.0,0.0,0.0,0.0,0.0,0.0,0.0,0.0,0.0,0.0,0.0,0.0,0.0,0.0,0.0,0.0,0.0,0.0,0.0,0.0,0.0,0.0,0.0,2.5503,2.5745,0.0,0.0,0.0,0.0,0.0,0.0,0.0,0.0,2.5503,0.0,0.0,0.0,0.0,0.0,0.0,0.0,0.0,0.0,0.0,0.0,0.0,0.0,0.0,0.0,0.0,0.0,0.0,0.0,0.0,0.0,0.0,0.0,0.0,0.0,0.0,0.0,0.0,0.0,0.0,0.0,0.0,0.0,0.0,0.0,0.0,0.0,0.0,0.0,0.0,0.0,0.0,0.0,0.0,0.0,0.0,0.0,0.0,0.0,0.0,0.0,0.0,0.0,0.0,0.0,2.9231,3.0513,3.1379,3.1811,3.2643,3.2876,3.237,3.1864,3.1369,0.0,0.0,0.0,0.0,0.0,0.0,0.0,0.0,0.0,0.0,0.0,0.0,0.0,0.0,0.0,0.0,0.0,0.0,0.0,0.0,0.0,0.0,0.0,0.0,0.0,0.0,0.0,0.0,0.0,0.0,0.0,0.0,0.0,0.0,0.0,0.0,0.0,0.0,0.0,0.0,2.5703,2.5833,2.6224,0.0,0.0,0.0,0.0,0.0,0.0,2.5726,2.5852,0.0,0.0,0.0,0.0,0.0,0.0,0.0,0.0,0.0,0.0,0.0,0.0,0.0,0.0,0.0,0.0,0.0,0.0,0.0,0.0,0.0,0.0,0.0,0.0,0.0,0.0,0.0,0.0,0.0,0.0,0.0,0.0,0.0,0.0,0.0,0.0,0.0,0.0,0.0,0.0,0.0,0.0,0.0,0.0,0.0,0.0,0.0,0.0,0.0,0.0,0.0,0.0,0.0,0.0,0.0,2.9253,2.9815,3.0385,3.104,3.1889,3.1974,3.1254,3.1322,3.1019,0.0,0.0,0.0,0.0,0.0,0.0,0.0,0.0,0.0,0.0,0.0,0.0,0.0,0.0,0.0,0.0,0.0,0.0,0.0,0.0,0.0,0.0,0.0,0.0,0.0,0.0,0.0,0.0,0.0,0.0,0.0,0.0,0.0,0.0,0.0,0.0,0.0,0.0,0.0,0.0,0.0,2.6186,2.6186,2.6335,0.0,0.0,0.0,0.0,2.6837,2.6632,0.0,0.0,0.0,0.0,0.0,0.0,0.0,0.0,0.0,0.0,0.0,0.0,0.0,0.0,0.0,0.0,0.0,0.0,0.0,0.0,0.0,0.0,0.0,0.0,0.0,0.0,0.0,0.0,0.0,0.0,0.0,0.0,0.0,0.0,0.0,0.0,0.0,0.0,0.0,0.0,0.0,0.0,0.0,0.0,0.0,0.0,0.0,0.0,0.0,0.0,0.0,0.0,0.0,0.0,0.0,0.0,2.9187,2.8633,2.8356,2.8474,2.9304,2.9684,2.9597,3.0247,3.0554,0.0,0.0,0.0,0.0,0.0,0.0,0.0,0.0,0.0,0.0,0.0,0.0,0.0,0.0,0.0,0.0,0.0,0.0,0.0,0.0,0.0,0.0,0.0,0.0,0.0,0.0,0.0,0.0,0.0,0.0,0.0,0.0,0.0,0.0,0.0,0.0,0.0,0.0,0.0,0.0,0.0,2.7817,2.7836,2.8486,2.8454,0.0,0.0,2.7599,2.6999,2.8064,0.0,0.0,0.0,0.0,0.0,0.0,0.0,0.0,0.0,0.0,0.0,0.0,0.0,0.0,0.0,0.0,0.0,0.0,0.0,0.0,0.0,0.0,0.0,0.0,0.0,0.0,0.0,0.0,0.0,0.0,0.0,0.0,0.0,0.0,0.0,0.0,0.0,0.0,0.0,0.0,0.0,0.0,0.0,0.0,0.0,0.0,0.0,0.0,0.0,0.0,0.0,0.0,0.0,0.0,0.0,2.6818,2.8455,2.7709,2.7501,2.7991,2.8358,2.8801,2.9306,2.9641,3.0007,0.0,0.0,0.0,0.0,0.0,0.0,0.0,0.0,0.0,0.0,0.0,0.0,0.0,0.0,0.0,0.0,0.0,0.0,0.0,0.0,0.0,0.0,0.0,0.0,0.0,0.0,0.0,0.0,0.0,0.0,0.0,0.0,0.0,0.0,0.0,0.0,0.0,0.0,0.0,0.0,0.0,0.0,2.7483,2.8114,0.0,0.0,0.0,2.9396,2.9049,0.0,0.0,0.0,0.0,0.0,0.0,0.0,0.0,0.0,0.0,0.0,0.0,0.0,0.0,0.0,0.0,0.0,0.0,0.0,0.0,0.0,0.0,0.0,0.0,0.0,0.0,0.0,0.0,0.0,0.0,0.0,0.0,0.0,0.0,0.0,0.0,0.0,0.0,0.0,0.0,0.0,0.0,0.0,0.0,0.0,0.0,0.0,0.0,0.0,0.0,0.0,0.0,0.0,0.0,0.0,0.0,0.0,2.7619,2.6822,2.6708,2.7353,2.7565,2.7987,2.8625,2.9069,0.0,0.0,0.0,0.0,0.0,0.0,0.0,0.0,0.0,0.0,0.0,0.0,0.0,0.0,0.0,0.0,0.0,0.0,0.0,0.0,0.0,0.0,0.0,0.0,0.0,0.0,0.0,2.4512,0.0,0.0,0.0,0.0,0.0,0.0,0.0,0.0,0.0,0.0,0.0,0.0,0.0,0.0,2.843,2.7636,2.8212,2.851,0.0,0.0,3.061,3.061,3.0753,3.0775,0.0,0.0,0.0,0.0,0.0,0.0,0.0,0.0,0.0,0.0,0.0,0.0,0.0,0.0,0.0,0.0,0.0,0.0,0.0,0.0,0.0,0.0,0.0,0.0,0.0,0.0,0.0,0.0,0.0,0.0,0.0,0.0,0.0,0.0,0.0,0.0,0.0,0.0,0.0,0.0,0.0,0.0,0.0,0.0,0.0,0.0,0.0,0.0,0.0,0.0,0.0,0.0,0.0,0.0,0.0,2.6725,2.5992,2.5625,2.5702,2.6395,2.6801,2.6897,2.8468,2.9325,0.0,0.0,0.0,0.0,0.0,0.0,0.0,0.0,0.0,0.0,0.0,0.0,0.0,0.0,0.0,0.0,0.0,0.0,0.0,0.0,0.0,0.0,0.0,0.0,0.0,0.0,0.0,0.0,0.0,0.0,0.0,0.0,0.0,0.0,0.0,0.0,0.0,0.0,0.0,0.0,0.0,3.0126,2.9341,2.9917,3.04,0.0,0.0,3.061,3.061,3.1236,3.125,2.9808,0.0,0.0,0.0,0.0,0.0,0.0,0.0,0.0,0.0,0.0,0.0,0.0,0.0,0.0,0.0,0.0,0.0,0.0,0.0,0.0,0.0,0.0,0.0,0.0,0.0,0.0,0.0,0.0,0.0,0.0,0.0,0.0,0.0,0.0,0.0,0.0,0.0,0.0,0.0,0.0,0.0,0.0,0.0,0.0,0.0,0.0,0.0,0.0,0.0,0.0,0.0,0.0,0.0,2.5642,2.5952,2.5662,2.5509,2.5509,2.5799,2.6455,2.7484,2.8163,2.8983,0.0,0.0,0.0,0.0,0.0,0.0,0.0,0.0,0.0,0.0,0.0,0.0,0.0,0.0,0.0,0.0,0.0,0.0,0.0,0.0,0.0,0.0,0.0,0.0,0.0,0.0,0.0,0.0,2.5449,2.5712,2.6232,0.0,0.0,0.0,0.0,0.0,0.0,0.0,0.0,0.0,0.0,3.0344,2.9518,3.0089,0.0,0.0,3.0697,3.1189,3.0727,3.1371,3.1592,3.0588,3.0288,0.0,0.0,0.0,0.0,0.0,0.0,0.0,0.0,0.0,0.0,0.0,0.0,0.0,0.0,0.0,0.0,0.0,0.0,0.0,0.0,0.0,0.0,0.0,0.0,0.0,0.0,0.0,0.0,0.0,0.0,0.0,0.0,0.0,0.0,0.0,0.0,0.0,0.0,0.0,0.0,0.0,0.0,0.0,0.0,0.0,0.0,0.0,0.0,0.0,0.0,0.0,0.0,2.5874,2.5874,2.5625,2.5509,2.5509,2.5509,2.6186,2.7544,2.7855,2.8678,0.0,0.0,0.0,0.0,0.0,0.0,0.0,0.0,0.0,0.0,0.0,0.0,0.0,0.0,0.0,0.0,0.0,0.0,0.0,0.0,0.0,0.0,0.0,0.0,0.0,0.0,0.0,0.0,2.6398,2.6759,2.7598,0.0,0.0,0.0,0.0,0.0,0.0,0.0,0.0,0.0,0.0,3.0448,2.9871,3.049,3.0897,3.0593,3.1531,3.2093,3.1594,3.2026,3.2112,3.1209,0.0,0.0,0.0,0.0,0.0,0.0,0.0,0.0,0.0,0.0,0.0,0.0,0.0,0.0,0.0,0.0,0.0,0.0,0.0,0.0,0.0,0.0,0.0,0.0,0.0,0.0,0.0,0.0,0.0,0.0,2.5098,0.0,0.0,0.0,0.0,0.0,0.0,0.0,0.0,0.0,0.0,0.0,0.0,0.0,0.0,0.0,0.0,0.0,0.0,0.0,0.0,0.0,0.0,2.6663,2.6646,2.5894,2.5509,2.5509,2.5509,2.5913,2.6745,2.7561,2.8434,2.934,0.0,0.0,0.0,0.0,0.0,0.0,0.0,0.0,0.0,0.0,0.0,0.0,0.0,0.0,0.0,0.0,0.0,0.0,0.0,0.0,0.0,0.0,0.0,0.0,0.0,0.0,2.7269,2.7333,2.7698,0.0,0.0,0.0,0.0,0.0,0.0,0.0,0.0,0.0,0.0,3.0139,3.0629,3.0691,3.1426,3.2235,3.3007,3.325,3.3341,3.3233,3.3312,3.2878,0.0,0.0,0.0,0.0,0.0,0.0,0.0,0.0,0.0,0.0,0.0,0.0,0.0,0.0,0.0,0.0,0.0,0.0,0.0,0.0,0.0,0.0,0.0,0.0,0.0,0.0,0.0,2.6785,2.6791,0.0,0.0,0.0,0.0,0.0,0.0,0.0,0.0,0.0,0.0,0.0,2.9172,2.9196,0.0,0.0,0.0,0.0,0.0,0.0,0.0,0.0,0.0,0.0,0.0,0.0,2.6702,2.6663,2.5915,2.5509,2.5509,2.5509,2.6167,2.7522,2.7855,2.8668,3.0116,0.0,0.0,0.0,0.0,0.0,0.0,0.0,0.0,0.0,0.0,0.0,0.0,0.0,0.0,0.0,0.0,0.0,0.0,0.0,0.0,0.0,0.0,0.0,0.0,0.0,2.8184,0.0,0.0,0.0,0.0,0.0,0.0,0.0,0.0,0.0,0.0,0.0,2.9453,2.8839,3.0431,3.165,3.1636,3.2376,3.2835,0.0,0.0,0.0,0.0,0.0,0.0,0.0,0.0,0.0,0.0,0.0,0.0,0.0,0.0,3.422,3.3615,3.3547,3.3704,3.4218,0.0,0.0,0.0,0.0,0.0,0.0,0.0,0.0,0.0,0.0,0.0,0.0,0.0,0.0,2.7207,0.0,2.7462,0.0,0.0,0.0,0.0,0.0,0.0,0.0,0.0,2.9506,2.9863,3.0935,3.0954,3.0805,0.0,3.082,3.0214,0.0,0.0,0.0,0.0,0.0,0.0,0.0,0.0,2.7151,2.7095,2.605,2.5509,2.5509,2.5509,2.6149,2.7503,2.8143,2.913,3.0559,3.0562,3.0518,0.0,0.0,0.0,0.0,0.0,0.0,0.0,0.0,0.0,0.0,0.0,0.0,0.0,0.0,0.0,0.0,0.0,0.0,0.0,0.0,0.0,0.0,0.0,2.9077,0.0,0.0,0.0,0.0,0.0,0.0,0.0,0.0,0.0,2.9584,2.9699,2.9803,2.9788,3.0701,3.1563,3.2128,0.0,0.0,0.0,0.0,0.0,0.0,0.0,3.3804,3.3584,3.3846,3.4274,3.4837,3.5668,3.6266,3.627,0.0,0.0,3.4619,3.4466,3.4722,3.5545,3.5675,3.577,3.6061,3.7062,3.7871,0.0,0.0,0.0,0.0,0.0,0.0,0.0,0.0,2.5723,2.6664,0.0,2.7273,0.0,0.0,0.0,0.0,0.0,2.9361,0.0,0.0,3.0228,3.0295,3.178,3.1838,3.1453,3.0776,3.1492,3.1432,3.0699,3.0641,0.0,0.0,0.0,0.0,0.0,0.0,2.803,2.7991,2.636,2.5528,2.5567,2.5509,2.5913,2.6781,2.8393,2.9691,3.054,3.0617,3.0586,3.0518,3.0496,0.0,0.0,0.0,0.0,0.0,0.0,0.0,0.0,0.0,0.0,0.0,0.0,0.0,0.0,0.0,0.0,0.0,0.0,0.0,0.0,2.9903,0.0,0.0,0.0,0.0,0.0,0.0,0.0,0.0,0.0,0.0,3.2264,3.1064,3.062,3.2117,0.0,0.0,0.0,0.0,3.2929,3.3812,3.4673,3.5237,3.5218,3.5946,3.625,3.5515,0.0,0.0,3.6776,3.7421,3.7905,3.792,3.7275,3.6458,3.5553,3.5392,3.5622,3.6474,3.6646,3.6915,3.7747,3.8994,4.0202,3.1178,0.0,0.0,0.0,0.0,3.1515,3.1574,3.0843,3.1452,3.1334,3.0678,3.0428,0.0,0.0,0.0,0.0,0.0,0.0,3.1757,3.278,3.2298,3.2355,3.28,3.2798,3.2662,3.247,3.2703,3.2684,3.2441,3.182,3.1222,3.0617,0.0,0.0,0.0,0.0,2.832,2.8765,2.6671,2.5778,2.6337,2.578,2.6186,2.758,2.8726,2.971,3.0578,3.0617,3.0574,3.0566,3.0525,0.0,0.0,0.0,0.0,0.0,0.0,0.0,0.0,0.0,0.0,0.0,0.0,0.0,0.0,0.0,0.0,0.0,0.0,0.0,3.0026,3.0071,3.011,0.0,0.0,0.0,0.0,0.0,0.0,0.0,0.0,0.0,3.4279,3.2473,3.1104,0.0,0.0,3.2976,3.3484,3.4086,3.4592,3.4925,3.5717,0.0,3.6336,3.7032,3.7475,3.7206,3.7886,3.8493,3.8493,3.872,3.89,3.8904,3.82,3.7524,3.7263,3.6702,3.6644,3.7378,3.7609,3.7667,3.7997,3.9285,4.0495,3.5644,3.4465,3.2682,3.2246,3.285,3.3909,3.3873,3.3119,3.3641,3.3648,3.33,3.264,3.244,3.2559,3.1881,0.0,0.0,0.0,3.3572,3.4712,3.4699,3.4678,3.466,3.4677,3.4311,3.3695,3.3673,3.3505,3.3144,3.2621,3.212,3.1565,0.0,0.0,3.0078,2.9053,2.8765,2.9188,2.7447,2.6727,2.7192,2.6397,2.6476,2.7467,2.8335,2.9188,3.0037,3.0424,3.0617,3.0617,3.054,3.0525,0.0,0.0,0.0,0.0,0.0,0.0,0.0,0.0,0.0,0.0,0.0,3.0248,3.0238,0.0,0.0,0.0,3.0246,3.0152,3.0128,3.0517,0.0,0.0,0.0,0.0,0.0,0.0,0.0,3.232,3.2299,3.2926,3.4744,3.3851,3.2986,3.2967,3.364,3.4345,3.4978,0.0,3.6028,3.6392,3.6885,3.7262,3.7321,3.8017,3.8628,3.8934,3.9377,3.9738,3.9757,3.9773,3.9788,3.9742,3.935,3.9011,3.8988,3.855,3.82,3.8473,3.853,3.8723,3.9335,4.0589,4.1608,3.9768,3.9562,3.644,3.5064,3.4919,3.5055,3.4634,3.3835,3.3913,3.4682,3.5875,3.4399,3.4503,3.5779,3.4233,0.0,3.4705,3.4729,3.556,3.7102,3.7109,3.7099,3.7008,3.7008,3.6178,3.4616,3.4632,3.4163,3.3362,3.3246,3.318,3.3081,3.1557,3.0355,2.9538,2.9364,2.9328,2.9386,2.8477,2.8014,2.7972,2.723,2.6839,2.6955,2.7677,2.8513,2.9381,3.0172,3.0617,3.0617,3.0617,3.0566,3.052,0.0,0.0,0.0,0.0,0.0,0.0,0.0,0.0,0.0,0.0,0.0,0.0,0.0,0.0,0.0,3.051,0.0,3.0407,3.121,0.0,0.0,0.0,3.3029,3.3029,3.3017,3.3034,3.3092,0.0,0.0,3.4288,3.5099,3.5611,3.5602,3.5024,3.5107,3.6512,3.6717,3.7093,3.7796,3.8051,3.8151,3.837,3.9016,3.9684,4.0311,4.0598,4.0548,4.0535,4.0499,4.0523,4.0523,4.0542,4.0462,4.0477,4.0342,4.0281,3.9511,3.9473,3.9973,4.1312,4.2412,4.3278,4.2607,4.255,4.1754,4.0272,3.8596,3.9833,3.9885,3.9144,3.9783,3.9527,3.8653,3.8263,3.757,3.6685,3.6343,3.6281,3.6491,3.6526,3.7097,3.8056,3.8121,3.8148,3.812,3.8118,3.7575,3.6586,3.6527,3.6086,3.522,3.4557,3.3882,3.3194,3.2786,3.2158,3.1269,2.9973,2.9625,3.0281,2.8846,2.8046,2.7991,2.7797,2.8006,2.8664,2.8879,2.9401,3.025,3.0482,3.0617,3.0617,3.0617,3.0574,3.0588,3.0528,0.0,0.0,0.0,0.0,0.0,0.0,0.0,0.0,0.0,3.0449,3.0455,0.0,3.1482,0.0,3.2052,3.24,3.2279,3.2561,0.0,0.0,3.2913,3.3076,3.3073,3.3073,3.3313,3.3934,3.3992,3.432,3.5189,3.5479,3.583,3.6462,3.6928,3.7109,3.6868,3.6819,3.7175,3.8,3.8231,3.8658,3.984,4.0262,4.041,4.0575,4.0584,4.0581,4.0591,4.0581,4.0579,4.0595,4.06,4.0565,4.0523,4.0492,4.0458,4.0304,4.0739,4.1316,4.1754,4.297,4.407,4.4772,4.4752,4.4752,4.3918,4.2623,4.2768,4.2522,4.2116,4.2583,4.2237,4.1303,4.0974,3.9639,3.7732,3.8109,3.8312,3.8311,3.8333,3.8799,3.954,3.9597,3.9385,3.8999,3.8999,3.8553,3.7737,3.7737,3.7279,3.6441,3.5953,3.5259,3.4365,3.3979,3.3557,3.3065,3.134,3.0534,3.0627,2.9698,2.9027,2.8601,2.8582,2.8634,2.8758,2.9117,2.9521,2.9997,3.037,3.0617,3.0617,3.0617,3.0617,3.0617,3.0912,3.1076,0.0,0.0,0.0,0.0,0.0,0.0,0.0,0.0,0.0,0.0,0.0,3.239,3.2383,3.2804,3.3054,3.2952,3.3382,3.3644,3.3594,3.3984,3.4254,3.4254,3.4265,3.4439,3.4872,3.493,3.5102,3.5585,3.5952,3.6344,3.6839,3.7608,3.8109,3.7996,3.7721,3.7901,3.9122,3.9021,3.9224,4.0619,4.043,4.0295,4.0604,4.0664,4.0657,4.0678,4.0654,4.0626,4.0619,4.0624,4.0591,4.0553,4.0531,4.0539,4.0631,4.1208,4.1889,4.2316,4.3389,4.4374,4.6197,4.6197,4.6197,4.6197,4.61,4.4577,4.3897,4.3847,4.3847,4.3843,4.3782,4.3095,4.149,3.9369,4.0114,4.0331,4.0135,4.0135,4.043,4.1003,4.1021,4.0577,3.9786,3.9786,3.9358,3.8587,3.8567,3.8142,3.7308,3.7288,3.6843,3.5972,3.5239,3.4777,3.455,3.3024,3.1792,3.0884,3.0806,3.0343,2.9507,2.947,2.9206,2.8663,2.9266,2.9692,2.9806,3.0522,3.0931,3.0907,3.0924,3.0905,3.0926,3.1582,3.1966,0.0,3.2662,0.0,0.0,0.0,0.0,0.0,0.0,0.0,0.0,3.329,3.3486,3.3567,3.3599,3.3591,3.3666,3.4306,3.469,3.4668,3.5361,3.58,3.5726,3.5706,3.5706,3.5706,3.5706,3.5706,3.5723,3.6323,3.6748,3.69,3.7342,3.8038,3.8992,3.8602,3.8699,4.0429,4.012,3.9907,4.039,4.0097,3.9962,4.05,4.0672,4.0717,4.0784,4.071,4.0654,4.0687,4.0673,4.0614,4.0591,4.0582,4.0595,4.0595,4.1239,4.2074,4.2835,4.3547,4.4455,4.6197,4.6197,4.6197,4.6197,4.6158,4.5847,4.5707,4.57,4.568,4.5663,4.5611,4.5462,4.4705,4.3656,4.3846,4.3156,4.1849,4.1828,4.1572,4.108,4.108,4.0979,4.0818,4.0818,4.037,3.9573,3.9534,3.9089,3.8246,3.8246,3.7791,3.6952,3.6778,3.6028,3.4737,0.0,0.0,0.0,3.1705,3.1255,3.0479,3.0375,3.0617,3.1149,3.1321,0.0,3.2425,3.2631,3.2692,3.2626,3.2623,0.0,0.0,0.0,0.0,0.0,0.0,0.0,0.0,0.0,0.0,0.0,3.5814,3.5328,3.3351,3.4405,3.5472,3.6102,3.6182,3.6469,3.7137,3.672,3.6414,3.6433,3.6571,3.6419,3.5803,3.5726,3.5706,3.5706,3.5726,3.5726,3.5764,3.5842,3.6187,3.6726,3.6477,3.6826,3.8254,3.8254,3.8586,3.9539,3.9984,4.0236,3.9832,4.012,4.0062,4.002,4.0368,4.071,4.079,4.0749,4.0723,4.0726,4.0671,4.0661,4.0598,4.0584,4.06,4.0581,4.1277,4.2125,4.292,4.322,4.3782,4.6197,4.6197,4.6197,4.6197,0.0,4.6197,4.6197,4.6197,4.6197,4.5933,4.5545,4.5954,4.5445,4.4236,4.4689,4.4189,4.2958,4.2939,4.2724,4.2335,4.2336,4.2335,4.2336,4.2345,4.2103,4.1676,4.1263,4.0615,3.9789,3.936,3.87,3.7847,3.7417,3.6769,3.5941,3.5478,3.4198,3.2069,3.1564,3.1315,3.1344,3.1297,3.1707,3.2507,3.2538,0.0,0.0,0.0,0.0,0.0,0.0,0.0,0.0,3.3516,0.0,3.3748,3.4137,3.4386,3.4405,3.5162,3.582,3.6284,3.7058,3.6997,3.5698,3.6436,3.7096,3.748,3.7538,3.7712,3.8118,3.7806,3.7535,3.7538,3.7535,3.7364,3.7019,3.6939,3.6922,3.6942,3.6922,3.6784,3.6342,3.6284,3.6265,3.6284,3.5977,3.6151,3.7229,3.7212,3.727,3.8066,3.8528,3.8879,3.8856,3.8763,3.9188,3.9365,3.9517,3.9881,4.0678,4.0426,4.0265,4.0617,4.0765,4.0739,4.0707,4.0668,4.0654,4.067,4.0974,4.1539,4.2318,4.2822,4.3319,4.6197,4.6197,4.6197,4.6197,4.6197,4.6197,4.6197,4.6197,0.0,0.0,0.0,4.5886,4.5397,4.4129,4.4814,4.4656,4.3854,4.3835,4.3757,4.3601,4.3613,4.3616,4.3619,4.3606,4.3604,4.3586,4.2938,4.226,4.1558,4.0837,3.9978,3.8963,3.8241,3.7752,3.7397,3.6404,3.4851,3.2836,3.1851,3.1667,3.2204,3.2237,3.2619,3.3435,3.3453,3.3464,3.3568,3.3577,3.3557,3.3571,3.3571,3.3552,3.3571,3.4253,3.4626,3.4665,3.53,3.5764,3.5919,3.6516,3.7038,3.7326,3.8157,3.8525,3.8254,3.8351,3.8428,3.8431,3.8428,3.8489,3.8641,3.8505,3.8428,3.8428,3.8428,3.837,3.8215,3.8215,3.8115,3.8215,3.8138,3.7944,3.7229,3.6958,3.6671,3.6071,3.5823,3.5916,3.6477,3.6535,3.6671,3.727,3.7693,3.7657,3.7751,3.7848,3.7851,3.8995,3.8953,3.9224,4.0233,4.0216,4.0081,4.0678,4.0794,4.0794,4.0794,4.0768,4.0739,4.072,4.0701,4.0839,4.1574,4.2252,4.2779,4.6197,4.6197,4.6197,4.6197,4.6197,4.6197,4.6197,4.6197,4.6197,4.6139,4.6042,4.6139,4.6081,4.5845,4.5964,4.5556,4.4736,4.4717,4.4324,4.3622,4.3609,4.3608,4.361,4.3657,4.3685,4.3665,4.3569,4.3452,4.3315,4.3183,4.2343,4.0898,4.0598,3.9782,3.8296,3.6719,3.5718,3.5342,3.4488,3.376,3.3137,3.3119,3.3519,3.4351,3.4357,3.4673,3.5383,3.5359,3.5321,3.5339,3.5339,3.5336,3.5336,3.5436,3.5513,3.5513,3.5626,3.5994,3.6668,3.6845,3.7541,3.8998,3.9942,3.9823,3.837,3.8879,3.9307,3.9307,3.9327,3.9633,4.0274,3.973,3.9307,3.9304,3.9324,3.9033,3.8389,3.8312,3.8331,3.8351,3.8215,3.8215,3.7944,3.7384,3.69,3.6632,3.6055,3.5745,3.6052,3.7019,3.779,3.806,3.8467,3.8273,3.7442,3.8141,3.847,3.8392,3.9484,4.017,4.0696,4.0589,4.0537,4.0767,4.0821,4.0815,4.0812,4.0794,4.0822,4.0855,4.0795,4.0885,4.1159,4.1326,4.1759,4.6199,4.6196,4.6209,4.6197,4.6197,4.6197,4.6197,4.6201,4.6209,4.6204,4.6199,4.6197,4.6197,4.6197,4.6197,4.6,4.5616,4.5616,4.5374,4.5021,4.4996,4.5022,4.5024,4.5076,4.5117,4.5078,4.4608,4.4391,4.4352,4.3937,4.3309,4.2471,4.1592,4.0233,3.8549,3.7713,3.7062,3.6572,3.4851,3.3971,3.4009,3.4004,3.442,3.5279,3.5283,3.5401,3.5744,3.5723,3.571,3.5706,3.5706,3.5706,3.5706,3.5706,3.59,3.6303,3.6361,3.6726,3.7538,3.8044,3.8859,4.01,4.0565,4.0484,3.9691,3.9962,4.0197,4.0216,4.0197,4.0352,4.0755,4.0429,4.0216,4.0216,4.0197,4.0042,3.9688,3.9611,3.9611,3.9611,3.9611,3.9243,3.8312,3.7848,3.7171,3.6458,3.5881,3.5706,3.5706,3.6323,3.6864,3.6864,3.7077,3.698,3.6439,3.7326,3.806,3.8174,3.888,3.9804,4.0513,4.0563,4.0448,4.0805,4.0917,4.09,4.0917,4.0921,4.0941,4.0941,4.0933,4.0953,4.1003,4.1305,4.1905,4.6199,4.6195,4.6196,4.6196,4.6196,4.6196,4.6201,4.6196,4.6207,4.6204,4.6195,4.6213,4.6213,4.6212,4.6212,4.6211,4.6196,4.6198,4.6209,4.6203,4.6226,4.6227,4.6228,4.6269,4.6304,4.6225,4.5606,4.5306,4.5194,4.4605,4.4173,4.3824,4.2258,4.0703,3.9408,3.898,3.8463,3.7684,3.5655,3.4643,3.4877,3.4897,3.5235,3.5817,3.5887,3.5832,3.5747,3.572,3.5708,3.5709,3.5712,3.5784,3.5958,3.5974,3.6342,3.7077,3.719,3.7577,3.8447,3.9307,4.0081,4.0739,4.0794,4.0794,4.0794,4.0794,4.0794,4.0794,4.0755,4.0794,4.0794,4.0794,4.0794,4.0794,4.0794,4.0736,4.0794,4.0794,4.0794,4.0794,4.0794,4.0213,3.9127,3.8428,3.7519,3.6129,3.5706,3.5706,3.5706,3.5703,3.5702,3.5697,3.5706,3.5803,3.5772,3.6703,3.7604,3.8152,3.8544,3.9438,4.0405,4.0395,4.0266,4.0864,4.0984,4.0979,4.0987,4.0986,4.0992,4.1025,4.1013,4.1038,4.1079,4.1493,4.2069,4.6202,4.6199,4.6197,4.6201,4.6201,4.6203,4.6199,4.6198,4.6201,4.6201,4.6199,4.6199,4.6199,4.6199,4.6199,4.6199,4.6202,4.6202,4.6203,4.6206,4.6269,4.6288,4.6268,4.6296,4.6304,4.6285,4.6165,4.6096,4.6088,4.6017,4.5637,4.478,4.3137,4.2207,4.1869,4.0445,3.9633,3.9532,3.8557,3.7292,3.5869,3.5772,3.583,3.5886,3.5898,3.59,3.5866,3.5756,3.5704,3.5716,3.5753,3.6052,3.669,3.6784,3.7171,3.7999,3.8077,3.845,3.9327,4.0197,4.07,4.0794,4.0794,4.0794,4.0794,4.0794,4.0794,4.0794,4.0794,4.0794,4.0794,4.0794,4.0794,4.0794,4.0794,4.0794,4.0794,4.0794,4.0794,4.0794,4.0794,4.0716,4.0213,3.9011,3.7558,3.619,3.5803,3.5773,3.5847,3.5728,3.5717,3.5706,3.5699,3.5708,3.5842,3.6716,3.7714,3.8327,3.9083,3.9909,4.0656,4.0935,4.0937,4.0911,4.1007,4.1011,4.1006,4.0994,4.1041,4.1095,4.1087,4.1093,4.1168,4.1367,4.168,4.6269,4.6269,4.622,4.6212,4.6212,4.6212,4.6198,4.6204,4.6249,4.6269,4.625,4.6248,4.623,4.6204,4.6204,4.6227,4.6269,4.6269,4.6269,4.6246,4.6299,4.6295,4.6294,4.6306,4.6301,4.6301,4.6301,4.6306,4.6293,4.6306,4.5858,4.5031,4.4218,4.3628,4.3021,4.1411,4.0565,4.0544,3.9201,3.8149,3.7487,3.6941,3.6415,3.5947,3.5897,3.5882,3.5939,3.6291,3.6515,3.6498,3.6914,3.7326,3.7654,3.7654,3.8063,3.8917,3.9459,3.9884,4.0255,4.0603,4.0794,4.0794,4.0794,4.0794,4.0794,4.0794,4.0794,4.0794,4.0794,4.0794,4.0794,4.0794,4.0794,4.0794,4.0794,4.0794,4.0794,4.0794,4.0794,4.0794,4.0794,4.0584,3.9926,3.8511,3.748,3.6942,3.6439,3.5938,3.6331,3.6028,3.5735,3.5755,3.5762,3.5758,3.5905,3.7416,3.8269,3.8643,3.9622,4.0731,4.0851,4.1087,4.1116,4.1113,4.1113,4.1113,4.1118,4.1116,4.114,4.1172,4.1172,4.117,4.1191,4.1582,4.1894,4.6303,4.6305,4.625,4.6345,4.6521,4.6326,4.6229,4.623,4.6286,4.6303,4.6301,4.6288,4.6259,4.623,4.623,4.6269,4.6303,4.6303,4.6297,4.6302,4.6301,4.6301,4.6301,4.6301,4.6301,4.6301,4.6301,4.6301,4.6301,4.6301,4.5961,4.5408,4.5057,4.4595,4.3882,4.2478,4.1791,4.1672,4.0271,3.9453,3.9141,3.8363,3.7506,3.6707,3.661,3.66,3.6635,3.7142,3.7428,3.7376,3.7904,3.8332,3.8547,3.8547,3.8934,3.9771,4.0429,4.0794,4.0794,4.0794,4.0794,4.0794,4.0794,4.0794,4.0794,4.0794,4.0794,4.0794,4.0794,4.0794,4.0794,4.0794,4.0794,4.0794,4.0794,4.0794,4.0794,4.0794,4.0794,4.0794,4.0794,4.0468,3.9578,3.8492,3.7889,3.7906,3.7174,3.6562,3.7122,3.6849,3.6464,3.6254,3.639,3.6355,3.6111,3.6919,3.8056,3.8576,3.9313,4.0241,4.073,4.0936,4.1191,4.1152,4.1191,4.1191,4.1172,4.1191,4.1191,4.1191,4.1191,4.1191,4.1191,4.1719,4.1719,4.6302,4.6306,4.6284,4.6698,4.7362,4.66,4.6302,4.629,4.6305,4.6303,4.6304,4.6341,4.6321,4.6365,4.6426,4.6324,4.6303,4.6304,4.6303,4.6301,4.6301,4.6301,4.6301,4.6301,4.6301,4.6301,4.6301,4.6301,4.6301,4.6301,4.6293,4.617,4.5389,4.4908,4.4702,4.3841,4.3465,4.3289,4.2374,4.1674,4.0934,4.0096,3.9258,3.8479,3.8344,3.8264,3.8297,3.833,3.8313,3.8227,3.8348,3.8703,3.9355,3.9446,3.9826,4.0603,4.0774,4.0794,4.0794,4.0794,4.0794,4.0794,4.0794,4.0794,4.0794,4.0794,4.0794,4.0794,4.0794,4.0794,4.0794,4.0794,4.0794,4.0794,4.0794,4.0794,4.0794,4.0794,4.0794,4.0794,4.0794,4.0487,3.9675,3.9462,3.8937,3.8528,3.8141,3.8042,3.8136,3.8205,3.7737,3.7469,3.7627,3.7869,3.6388,3.699,3.7196,3.7656,3.8809,3.9297,3.9922,4.0527,4.0937,4.1191,4.1191,4.1191,4.1191,4.1191,4.1191,4.1191,4.1191,4.1191,4.1191,4.1191,4.1328,4.6301,4.6302,4.629,4.6489,4.6684,4.6411,4.6289,4.6301,4.6301,4.6301,4.6398,4.6884,4.7138,4.7138,4.7686,4.7316,4.6359,4.6301,4.6301,4.6301,4.6301,4.6301,4.6301,4.6301,4.6301,4.6301,4.6301,4.6301,4.6301,4.6301,4.628,4.621,4.5914,4.5721,4.5476,4.4316,4.3854,4.4228,4.3038,4.2159,4.1926,4.1555,4.101,4.0154,3.9063,3.8519,3.8519,3.8972,3.9186,3.912,3.9614,4.0026,4.028,4.0332,4.0448,4.0758,4.0794,4.0794,4.0794,4.0794,4.0794,4.0794,4.0794,4.0794,4.0794,4.0794,4.0794,4.0794,4.0794,4.0794,4.0794,4.0794,4.0794,4.0794,4.0794,4.0794,4.0794,4.0794,4.0794,4.0794,4.0794,4.0639,4.0313,3.9871,3.9617,3.9658,3.8493,3.817,3.8742,3.8398,3.7859,3.8079,3.8339,3.8379,3.7889,3.82,3.8613,3.8652,3.9199,4.0078,4.0801,4.0859,4.1172,4.1191,4.1191,4.1191,4.1191,4.1191,4.1191,4.1191,4.1191,4.1191,4.1191,4.1308,4.1543,4.6456,4.6671,4.6417,4.6456,4.669,4.6417,4.6301,4.6301,4.6301,4.6301,4.6418,4.6943,4.7333,4.7646,4.8173,4.8017,4.71,4.6866,4.6866,4.7062,4.6846,4.671,4.671,4.6729,4.6554,4.634,4.6301,4.6301,4.6301,4.6301,4.6263,4.6205,4.6204,4.6202,4.598,4.4988,4.4773,4.4931,4.3877,4.3155,4.3116,4.2862,4.2464,4.1772,4.0468,3.9599,3.9375,3.9847,4.0098,4.0111,4.0526,4.0801,4.0806,4.0794,4.0794,4.0794,4.0794,4.0794,4.0794,4.0794,4.0794,4.0794,4.0794,4.0794,4.0794,4.0794,4.0794,4.0794,4.0794,4.0794,4.0794,4.0794,4.0794,4.0794,4.0794,4.0794,4.0794,4.0794,4.0794,4.0794,4.0794,4.0794,4.0736,4.0252,4.0257,4.0787,3.9238,3.8964,3.9643,3.9312,3.8482,3.8965,3.9355,3.916,3.8867,3.9141,3.9141,3.9141,3.9473,4.0469,4.1035,4.1113,4.1191,4.1191,4.1191,4.1191,4.1191,4.1191,4.1191,4.1191,4.1191,4.1191,4.1308,4.1484,4.1855,4.6768,4.7294,4.6652,4.671,4.7216,4.6593,4.6301,4.6301,4.6301,4.6301,4.6319,4.6417,4.7022,4.7568,4.7958,4.8153,4.8623,4.8095,4.8017,4.8447,4.7919,4.7606,4.7607,4.7607,4.7158,4.6457,4.632,4.6301,4.6301,4.6305,4.6264,4.6208,4.6202,4.6199,4.6197,4.6022,4.6061,4.5905,4.5165,4.4796,4.4775,4.4012,4.3488,4.3278,4.2517,4.1774,4.1122,4.0993,4.0891,4.0883,4.0875,4.082,4.0999,4.0871,4.0794,4.0871,4.0832,4.0794,4.0794,4.0794,4.0794,4.0794,4.0794,4.0852,4.0948,4.0929,4.0968,4.1103,4.1064,4.0987,4.1026,4.1064,4.0968,4.0794,4.0794,4.0794,4.0794,4.0794,4.0794,4.0794,4.0794,4.0794,4.0794,4.0697,4.0717,4.0769,4.0526,4.0379,4.0714,4.0485,4.0497,4.0234,4.0254,4.0176,4.0,3.9844,3.9531,3.9355,3.9785,4.043,4.0723,4.0859,4.1152,4.1191,4.1191,4.1191,4.1191,4.1191,4.1191,4.1191,4.1191,4.1308,4.1582,4.1875,4.2344,4.6456,4.6671,4.6417,4.6456,4.6671,4.6397,4.6301,4.6301,4.6301,4.6301,4.6398,4.6924,4.7646,4.8447,4.9051,4.9773,5.0477,4.9715,4.9149,4.8818,4.8544,4.8426,4.8426,4.8407,4.7978,4.7198,4.6554,4.6301,4.6324,4.6316,4.6269,4.6205,4.621,4.6199,4.6201,4.6197,4.6197,4.6158,4.5944,4.5535,4.497,4.4637,4.4221,4.3601,4.3263,4.2982,4.2718,4.1594,4.1216,4.169,4.1687,4.1941,4.2218,4.1432,4.1087,4.149,4.1084,4.0794,4.0794,4.0832,4.0871,4.0813,4.0813,4.1103,4.1548,4.1622,4.1874,4.236,4.2512,4.2512,4.2531,4.2531,4.2031,4.0932,4.0794,4.0832,4.0794,4.0794,4.0794,4.0794,4.0794,4.0794,4.0797,4.0797,4.0837,4.0825,4.0513,4.0375,4.0864,4.0714,4.0564,4.0703,4.0976,4.1074,4.0742,4.0508,4.0351,4.0137,4.0351,4.0527,4.0703,4.082,4.1094,4.1191,4.1191,4.1191,4.1191,4.1191,4.1191,4.123,4.1269,4.1543,4.1933,4.2441,4.3008,4.6301,4.6301,4.6301,4.6301,4.6301,4.6301,4.6301,4.6301,4.6301,4.6301,4.6476,4.7216,4.8036,4.8856,4.9695,5.0574,5.1277,5.0808,5.0281,4.9755,4.9363,4.9285,4.915,4.8583,4.8114,4.7609,4.7033,4.6763,4.6725,4.6718,4.656,4.6253,4.6198,4.6209,4.6203,4.6197,4.6197,4.6197,4.6197,4.5944,4.5517,4.5379,4.5092,4.4534,4.415,4.396,4.3806,4.2529,4.2023,4.2468,4.2564,4.2821,4.3153,4.2318,4.1954,4.2241,4.2048,4.1645,4.1354,4.1622,4.1548,4.1374,4.1548,4.1932,4.2376,4.247,4.2783,4.3166,4.3263,4.3301,4.3282,4.3282,4.2763,4.1877,4.1451,4.1122,4.091,4.0794,4.0794,4.0794,4.0794,4.0794,4.0797,4.0831,4.087,4.0831,4.0538,4.0341,4.0884,4.0721,4.0879,4.1035,4.1113,4.1172,4.1191,4.1152,4.1152,4.1055,4.1016,4.0996,4.1055,4.1055,4.1191,4.1191,4.1191,4.1191,4.1191,4.1191,4.1211,4.1269,4.1445,4.1875,4.2363,4.3262,4.3887,4.6301,4.6301,4.6301,4.6301,4.6301,4.6301,4.6301,4.6301,4.6301,4.6301,4.6476,4.7216,4.8056,4.8856,4.9715,5.0574,5.1277,5.1336,5.1238,5.0984,5.0535,5.0164,5.0008,4.8816,4.8156,4.7949,4.7709,4.7596,4.7577,4.7575,4.713,4.6466,4.6417,4.6245,4.6225,4.6197,4.6197,4.6197,4.6197,4.6158,4.6119,4.6139,4.6068,4.585,4.5172,4.4752,4.4566,4.3879,4.3437,4.3452,4.3395,4.3466,4.346,4.3379,4.3166,4.3301,4.3321,4.2779,4.2415,4.2628,4.2802,4.2222,4.2667,4.334,4.3321,4.3324,4.3421,4.3692,4.3669,4.3614,4.3634,4.3653,4.3518,4.3282,4.2415,4.1625,4.0929,4.0794,4.0794,4.0794,4.0794,4.0803,4.0818,4.0848,4.092,4.0987,4.0964,4.1035,4.1094,4.1055,4.1152,4.1191,4.1191,4.1191,4.1191,4.1191,4.1269,4.166,4.1562,4.1465,4.1308,4.125,4.1406,4.1387,4.1328,4.1289,4.1289,4.1367,4.1445,4.1562,4.1855,4.2285,4.3027,4.3984,4.4609,4.6301,4.6301,4.6301,4.6301,4.6301,4.6301,4.6301,4.6301,4.6301,4.6359,4.6496,4.7216,4.8114,4.8857,4.9734,5.0574,5.1219,5.1394,5.1394,5.1375,5.1199,5.1062,5.0886,4.9988,4.9394,4.929,4.8729,4.8457,4.8472,4.8455,4.7988,4.718,4.7074,4.6779,4.6314,4.6197,4.6197,4.6197,4.6197,4.6197,4.6197,4.6196,4.6174,4.6043,4.5787,4.5592,4.5554,4.5308,4.484,4.4327,4.4259,4.4562,4.4875,4.404,4.3688,4.4075,4.3669,4.3243,4.3092,4.3227,4.3205,4.3011,4.3263,4.3576,4.421,4.4078,4.4369,4.4875,4.5146,4.5088,4.5088,4.5068,4.4852,4.4172,4.3015,4.1838,4.1142,4.0794,4.0794,4.0794,4.0835,4.0822,4.0848,4.0886,4.0961,4.1052,4.1105,4.1113,4.1172,4.1191,4.1191,4.1191,4.1191,4.1191,4.1191,4.1191,4.1445,4.2031,4.207,4.1914,4.1621,4.1328,4.1641,4.1914,4.1797,4.1738,4.1719,4.1738,4.1816,4.207,4.2402,4.291,4.3906,4.4824,4.5234,4.7159,4.6866,4.7218,4.6945,4.6397,4.669,4.6651,4.6417,4.671,4.6612,4.671,4.8036,4.87,4.8915,5.0086,5.0886,5.1355,5.1394,5.1394,5.1394,5.1375,5.116,5.0791,5.0271,5.0108,5.0077,4.9608,4.9364,4.9349,4.9319,4.8658,4.7657,4.748,4.7055,4.6256,4.6197,4.6197,4.6197,4.6197,4.6197,4.6197,4.6181,4.613,4.6047,4.5994,4.5935,4.5851,4.5808,4.5571,4.52,4.5123,4.5336,4.5649,4.4952,4.4601,4.5065,4.4601,4.4233,4.3978,4.4136,4.4175,4.4001,4.4078,4.4562,4.4968,4.4972,4.5242,4.5613,4.5803,4.5803,4.5803,4.5803,4.5416,4.4617,4.3688,4.2744,4.1932,4.1548,4.1409,4.1383,4.1152,4.0862,4.0906,4.0959,4.103,4.108,4.112,4.1168,4.1191,4.1211,4.1308,4.1426,4.1641,4.1797,4.2012,4.209,4.2324,4.2832,4.291,4.2676,4.248,4.207,4.2226,4.2539,4.2344,4.2285,4.2441,4.2578,4.2734,4.2988,4.3203,4.3691,4.4648,4.5332,4.5762,4.8387,4.7801,4.8485,4.7939,4.6846,4.7372,4.7353,4.6846,4.7412,4.7333,4.7276,4.909,4.952,4.9052,5.0575,5.1375,5.1394,5.1394,5.1394,5.1396,5.134,5.109,5.0565,5.0481,5.039,5.0331,5.0247,5.0228,5.0213,5.0155,4.9299,4.8288,4.7855,4.7191,4.6587,4.6314,4.6197,4.6197,4.6197,4.6197,4.619,4.6144,4.6082,4.601,4.5916,4.5858,4.5808,4.5803,4.5765,4.5784,4.5803,4.5745,4.5784,4.5768,4.5749,4.5707,4.5571,4.5281,4.4945,4.5258,4.5436,4.4929,4.5339,4.5784,4.5707,4.5629,4.5668,4.5784,4.5803,4.5803,4.5803,4.5803,4.5529,4.4968,4.4694,4.4307,4.363,4.2725,4.2222,4.2383,4.1593,4.1147,4.1112,4.1177,4.1305,4.2056,4.1973,4.2031,4.2051,4.209,4.2051,4.1933,4.2226,4.2539,4.2832,4.3105,4.3418,4.3769,4.3828,4.375,4.3848,4.3555,4.334,4.3262,4.3125,4.3301,4.3652,4.375,4.3672,4.3867,4.4062,4.457,4.5215,4.5703,4.6152,4.8701,4.8564,4.874,4.8603,4.833,4.8447,4.8427,4.8232,4.8427,4.8388,4.8545,4.9578,4.9948,4.9812,5.077,5.1394,5.1336,5.1355,5.1394,5.1397,5.1397,5.1322,5.1089,5.1053,5.1053,5.0998,5.1017,5.1028,5.0995,5.0844,5.0482,4.9488,4.869,4.8087,4.723,4.6568,4.6217,4.6197,4.6197,4.6215,4.6185,4.6132,4.6064,4.5989,4.5873,4.5831,4.581,4.5803,4.5803,4.5803,4.5803,4.5803,4.5803,4.5803,4.5803,4.5803,4.5803,4.5707,4.561,4.5668,4.5745,4.5571,4.5629,4.5803,4.5803,4.5803,4.5803,4.5803,4.5803,4.5803,4.5803,4.5803,4.5687,4.5494,4.5455,4.5416,4.5068,4.3924,4.3034,4.2631,4.2239,4.1967,4.2228,4.2105,4.2349,4.2907,4.3066,4.3125,4.3047,4.291,4.2793,4.2617,4.3066,4.3418,4.3594,4.3945,4.4375,4.4648,4.4707,4.4766,4.4844,4.4707,4.4355,4.4121,4.3965,4.4258,4.4668,4.4297,4.4101,4.4492,4.4902,4.5293,4.5703,4.6133,4.6289,4.9774,4.9462,4.9852,4.954,4.8935,4.9227,4.9169,4.8954,4.9247,4.9189,4.915,5.0105,5.0242,4.9598,5.0359,5.0788,5.0925,5.1238,5.1394,5.1401,5.1399,5.1386,5.1386,5.1363,5.1328,5.1299,5.1277,5.1309,5.1308,5.122,5.0794,5.0073,4.9547,4.8633,4.7659,4.6996,4.6607,4.6251,4.616,4.6152,4.6144,4.6064,4.5978,4.5907,4.5844,4.5803,4.5803,4.5803,4.5803,4.5803,4.5803,4.5803,4.5803,4.5803,4.5803,4.5803,4.5803,4.5803,4.5803,4.5803,4.5803,4.5803,4.5803,4.5803,4.5803,4.5803,4.5803,4.5803,4.5803,4.5803,4.5803,4.5803,4.5803,4.5803,4.5803,4.5803,4.561,4.4678,4.4036,4.377,4.3373,4.306,4.2993,4.3047,4.3105,4.3516,4.3496,4.3535,4.3457,4.3359,4.3437,4.3496,4.4004,4.4316,4.4414,4.4746,4.5273,4.5488,4.5605,4.5664,4.5742,4.5488,4.5176,4.5039,4.4941,4.5234,4.5488,4.5019,4.4824,4.5332,4.5723,4.5937,4.6055,4.623,4.6289,5.0964,5.0358,5.1101,5.0535,4.9442,4.9988,4.9929,4.9442,4.9968,4.9969,4.956,5.0828,5.0495,4.952,5.0047,5.0319,5.0555,5.0993,5.1386,5.139,5.1367,5.1384,5.1373,5.1333,5.1292,5.1305,5.1292,5.1304,5.13,5.1261,5.0969,5.0307,4.9995,4.9313,4.8204,4.7522,4.7127,4.659,4.6255,4.6096,4.6078,4.5978,4.5876,4.5815,4.5814,4.5803,4.5803,4.5803,4.5803,4.5803,4.5803,4.5803,4.5803,4.5803,4.5803,4.5803,4.5803,4.5803,4.5803,4.5803,4.5803,4.5803,4.5803,4.5803,4.5803,4.5842,4.5939,4.6055,4.6113,4.6016,4.5842,4.5803,4.5803,4.5803,4.5803,4.5803,4.5691,4.5195,4.5154,4.5292,4.4494,4.3905,4.4004,4.4121,4.4082,4.4043,4.4043,4.4023,4.4004,4.4082,4.4316,4.4492,4.498,4.5176,4.5273,4.5273,4.582,4.5957,4.6152,4.6191,4.6269,4.6035,4.5762,4.5976,4.6035,4.6133,4.6113,4.582,4.5859,4.6269,4.6269,4.6172,4.6211,4.6289,4.6289,5.1316,5.1199,5.1336,5.1219,5.1004,5.112,5.1043,5.1004,5.1023,5.1102,5.0984,5.1238,5.0827,5.0242,5.0769,5.112,5.1008,5.1255,5.144,5.1483,5.146,5.1435,5.1486,5.1489,5.1381,5.1294,5.1302,5.13,5.13,5.1281,5.1164,5.0928,5.0404,4.9742,4.9157,4.8337,4.7599,4.7205,4.6694,4.6358,4.616,4.5963,4.5854,4.581,4.5803,4.5803,4.5803,4.5803,4.5803,4.5803,4.5803,4.5803,4.5803,4.5803,4.5803,4.5803,4.5803,4.5803,4.5803,4.5803,4.5803,4.5803,4.5803,4.5803,4.5803,4.59,4.6268,4.6693,4.679,4.6577,4.5881,4.5842,4.5803,4.5803,4.5803,4.5803,4.5785,4.5738,4.5659,4.581,4.519,4.4766,4.4941,4.5078,4.5039,4.5098,4.5195,4.5254,4.5273,4.541,4.5644,4.582,4.6016,4.6074,4.6113,4.6035,4.6172,4.6152,4.625,4.623,4.6289,4.6289,4.6289,4.6289,4.6289,4.625,4.625,4.6289,4.6289,4.6289,4.6289,4.6289,4.6289,4.6289,4.6289,5.1394,5.1394,5.1394,5.1394,5.1394,5.1394,5.1394,5.1394,5.1394,5.1394,5.1394,5.1355,5.0905,5.0398,5.0476,5.073,5.0836,5.1263,5.1619,5.1914,5.2014,5.1983,5.1938,5.195,5.1655,5.1435,5.13,5.13,5.13,5.13,5.13,5.122,5.0833,5.0463,4.9968,4.9229,4.8492,4.8071,4.756,4.7051,4.6574,4.6183,4.5857,4.5817,4.5803,4.5803,4.5803,4.5803,4.5803,4.5803,4.5803,4.5803,4.5803,4.5803,4.5803,4.5803,4.5803,4.5803,4.5803,4.5803,4.5803,4.5803,4.5803,4.5803,4.5939,4.6229,4.6825,4.7386,4.7215,4.6945,4.6538,4.6136,4.5842,4.5803,4.5861,4.5881,4.5876,4.5974,4.6117,4.621,4.5895,4.5742,4.5879,4.5957,4.5957,4.6094,4.6269,4.6289,4.6289,4.6289,4.6289,4.6289,4.6269,4.6289,4.6289,4.6289,4.6289,4.6289,4.6289,4.6289,4.6289,4.6289,4.6289,4.6289,4.6289,4.6289,4.6289,4.6289,4.6289,4.6289,4.6289,4.6289,4.6289,4.6289,4.6426,5.1394,5.1394,5.1394,5.1394,5.1394,5.1394,5.1394,5.1394,5.1394,5.1394,5.1394,5.1355,5.0925,5.0299,5.0144,5.0206,5.0369,5.1169,5.1816,5.2379,5.2272,5.2318,5.2542,5.2324,5.1902,5.1376,5.13,5.13,5.13,5.13,5.13,5.1279,5.1279,5.0981,5.0343,4.9889,4.9476,4.9068,4.8562,4.8054,4.7191,4.6492,4.5919,4.5823,4.5803,4.5803,4.5803,4.5803,4.5803,4.5803,4.5803,4.5803,4.5803,4.5803,4.5803,4.5803,4.5803,4.5803,4.5803,4.5803,4.5803,4.5803,4.5803,4.5803,4.6113,4.6693,4.754,4.7947,4.8101,4.7602,4.737,4.677,4.65,4.6461,4.648,4.6398,4.6555,4.6704,4.6882,4.6862,4.6693,4.6562,4.6523,4.6269,4.6152,4.6133,4.6289,4.6289,4.6289,4.6289,4.6289,4.6289,4.6289,4.6289,4.6289,4.6289,4.6289,4.6289,4.6289,4.6289,4.6289,4.6289,4.6289,4.6289,4.6289,4.6289,4.6289,4.6308,4.6289,4.6289,4.6289,4.6445,4.6719,4.6875,4.6992,5.1394,5.1394,5.1394,5.1394,5.1394,5.1394,5.1394,5.1394,5.1394,5.1394,5.1394,5.1355,5.0944,5.0359,5.0185,5.0569,5.1052,5.1327,5.1825,5.2432,5.2035,5.2081,5.2386,5.1754,5.163,5.132,5.13,5.13,5.13,5.13,5.1296,5.1296,5.1269,5.1183,5.0868,5.0337,4.9854,4.9575,4.8913,4.8059,4.7298,4.6948,4.6406,4.5997,4.5803,4.5803,4.5803,4.5803,4.5803,4.5803,4.5803,4.5803,4.5803,4.5803,4.5803,4.5803,4.5803,4.5803,4.5803,4.5803,4.5803,4.5803,4.5803,4.5803,4.6248,4.7099,4.7792,4.727,4.8314,4.8836,4.8314,4.8082,4.8043,4.7908,4.7715,4.7803,4.79,4.7481,4.7663,4.7854,4.7767,4.7207,4.6875,4.6562,4.6289,4.6289,4.6308,4.6328,4.6289,4.6289,4.6289,4.6289,4.6289,4.6289,4.6289,4.6289,4.6289,4.6289,4.6308,4.6308,4.6289,4.6289,4.6289,4.6289,4.6308,4.6426,4.6562,4.6543,4.6367,4.6367,4.6445,4.6875,4.7363,4.748,4.75,5.1394,5.1394,5.1394,5.1394,5.1394,5.1394,5.1394,5.1394,5.1394,5.1394,5.1394,5.1394,5.118,5.0831,5.0843,5.101,5.1347,5.1357,5.1803,5.2425,5.2207,5.2197,5.243,5.2195,5.1883,5.1339,5.13,5.13,5.1298,5.1296,5.1292,5.1265,5.1239,5.1213,5.1261,5.0758,5.0558,5.0115,4.9238,4.8289,4.7706,4.6945,4.6213,4.5842,4.5842,4.5842,4.5803,4.5803,4.5803,4.5803,4.5803,4.5803,4.5803,4.5803,4.5803,4.5803,4.5803,4.5803,4.5803,4.5803,4.5803,4.5803,4.5842,4.6016,4.6538,4.7196,4.8159,4.8643,4.874,4.8972,4.901,4.8662,4.8469,4.843,4.8662,4.8637,4.8638,4.8567,4.8472,4.8666,4.8808,4.8281,4.7773,4.7441,4.707,4.6641,4.6601,4.6562,4.6445,4.6289,4.6289,4.6289,4.6289,4.6289,4.6289,4.6289,4.6289,4.6308,4.6348,4.6348,4.6308,4.6289,4.6543,4.6484,4.6367,4.6543,4.6836,4.6758,4.6582,4.6582,4.6621,4.7324,4.7949,4.7773,4.8008,5.1394,5.1394,5.1394,5.1394,5.1394,5.1394,5.1394,5.1394,5.1394,5.1394,5.1394,5.1395,5.1398,5.1389,5.1343,5.1328,5.1366,5.1322,5.1844,5.2308,5.2418,5.2374,5.2389,5.2351,5.1844,5.1298,5.13,5.129,5.1282,5.1278,5.1243,5.1228,5.1524,5.1506,5.1511,5.1622,5.1679,5.1159,4.9911,4.9092,4.8566,4.7579,4.679,4.6329,4.6116,4.6035,4.5842,4.5803,4.5803,4.5803,4.5803,4.5803,4.5803,4.5803,4.5803,4.5803,4.5803,4.5803,4.5803,4.5803,4.5803,4.5803,4.5881,4.6113,4.6922,4.7254,4.7931,4.9378,4.9513,4.9587,4.9684,4.9413,4.9355,4.9297,4.9243,4.9152,4.9135,4.9339,4.9557,4.9844,4.9883,4.957,4.9062,4.8594,4.8008,4.7226,4.6933,4.6894,4.6875,4.6836,4.6816,4.6933,4.6816,4.6699,4.6348,4.6328,4.6328,4.6465,4.6523,4.6641,4.6777,4.7051,4.7402,4.7148,4.6797,4.7226,4.7871,4.7324,4.6855,4.7324,4.7773,4.8144,4.8457,4.832,4.8691,5.1394,5.1394,5.1394,5.1394,5.1394,5.1394,5.1394,5.1394,5.1394,5.1395,5.1399,5.1397,5.1392,5.1383,5.1386,5.1363,5.1311,5.1303,5.1783,5.2005,5.1904,5.1963,5.2037,5.1842,5.1431,5.1292,5.1282,5.126,5.1242,5.1223,5.1225,5.1281,5.1886,5.214,5.2291,5.2447,5.2411,5.1854,5.0736,4.9993,4.9587,4.8972,4.8372,4.7254,4.6945,4.6654,4.59,4.5919,4.5977,4.5977,4.5842,4.5958,4.5997,4.5861,4.5823,4.5803,4.5803,4.5803,4.5803,4.5803,4.5803,4.5803,4.5881,4.6151,4.7003,4.7831,4.8701,4.9513,4.9803,5.0341,5.0593,5.0709,5.0318,5.0221,5.0097,5.0177,5.0259,5.0488,5.0727,5.1018,5.0879,5.0449,5.0254,4.9766,4.8926,4.8125,4.7949,4.7891,4.8066,4.8047,4.7871,4.7812,4.7617,4.7246,4.6523,4.6523,4.6914,4.709,4.7168,4.7344,4.7539,4.7871,4.8125,4.8203,4.8008,4.8457,4.8711,4.832,4.8183,4.8574,4.8867,4.8887,4.9414,4.9746,5.0156,5.1394,5.1394,5.1394,5.1394,5.1394,5.1394,5.1394,5.1394,5.1394,5.1386,5.1397,5.1398,5.1385,5.1386,5.1357,5.1326,5.1299,5.1307,5.1557,5.1602,5.1534,5.1534,5.1585,5.1527,5.1256,5.1251,5.1249,5.1552,5.1894,5.1461,5.1977,5.2331,5.2528,5.2264,5.2453,5.2725,5.2547,5.2047,5.0983,4.9977,4.9726,4.9107,4.8566,4.8043,4.7908,4.7444,4.679,4.6635,4.6616,4.648,4.6113,4.6171,4.6306,4.6074,4.5842,4.5803,4.5803,4.5842,4.5881,4.5861,4.5803,4.5803,4.5842,4.6229,4.7177,4.7521,4.8392,4.9243,5.0032,5.0457,5.0844,5.0879,5.0782,5.0879,5.0929,5.0998,5.1078,5.1172,5.124,5.1234,5.1269,5.1133,5.1016,5.0898,4.9961,4.9082,4.8984,4.8945,4.9121,4.9141,4.8906,4.8652,4.8457,4.8008,4.7305,4.7402,4.7617,4.7715,4.7832,4.8144,4.8398,4.8437,4.8691,4.8887,4.9101,4.9277,4.9355,4.9336,4.9414,4.9609,4.9453,4.9199,4.9941,5.0879,5.1152,5.1394,5.1394,5.1394,5.1394,5.1394,5.1394,5.1394,5.1394,5.1394,5.139,5.1385,5.1385,5.1366,5.1353,5.1334,5.1312,5.1294,5.1303,5.1306,5.132,5.1339,5.1292,5.1254,5.129,5.1361,5.1394,5.1286,5.1549,5.268,5.18,5.228,5.2944,5.3274,5.3158,5.3042,5.2709,5.2612,5.2206,5.1041,5.009,4.9974,4.9591,4.903,4.8875,4.8778,4.8333,4.7753,4.7505,4.7486,4.7215,4.6867,4.6596,4.6558,4.6384,4.59,4.5823,4.5823,4.5904,4.6113,4.619,4.6209,4.6306,4.6674,4.7119,4.7583,4.7869,4.8914,4.9858,5.0148,5.0302,5.0898,5.0898,5.0898,5.0898,5.0898,5.0972,5.11,5.1207,5.1287,5.1328,5.1367,5.1367,5.1328,5.1211,5.084,5.0156,5.0176,5.0098,5.0117,5.0039,4.9785,4.9531,4.9297,4.875,4.8203,4.8281,4.8359,4.8437,4.8613,4.9062,4.9277,4.9336,4.957,4.998,5.0137,5.0058,5.0117,5.0273,5.0391,5.0527,5.0273,5.0,5.0351,5.1172,5.125,5.1375,5.1394,5.1355,5.1375,5.1394,5.1394,5.1394,5.1395,5.1398,5.1393,5.1386,5.1386,5.1362,5.1312,5.1311,5.1292,5.1303,5.1306,5.13,5.13,5.1288,5.125,5.1203,5.1254,5.1389,5.1963,5.1832,5.2084,5.3427,5.2656,5.291,5.3708,5.4315,5.4559,5.46,5.3869,5.3502,5.3227,5.1734,5.1057,5.0844,5.0631,5.0148,4.9803,4.9649,4.9239,4.8585,4.8372,4.8372,4.8237,4.754,4.7289,4.737,4.6503,4.6074,4.6113,4.5958,4.6268,4.6964,4.7061,4.7177,4.7154,4.7502,4.8237,4.9184,4.9571,4.9664,5.0438,5.0689,5.0763,5.0898,5.0898,5.0898,5.0906,5.091,5.0984,5.1128,5.1232,5.13,5.1367,5.1387,5.1387,5.1387,5.1367,5.1367,5.1211,5.1308,5.125,5.1016,5.082,5.0488,5.0371,5.0117,4.9629,4.916,4.9062,4.9101,4.916,4.9433,4.9922,5.0273,5.043,5.0742,5.1074,5.0976,5.0723,5.0976,5.1289,5.1152,5.0976,5.1152,5.1074,5.1308,5.1348,5.1367,5.0866,5.1336,5.0788,5.0866,5.1355,5.1394,5.1394,5.1398,5.1394,5.1385,5.1384,5.1357,5.1331,5.1307,5.1292,5.1301,5.1306,5.13,5.13,5.1296,5.1272,5.123,5.1176,5.1153,5.1299,5.1512,5.1617,5.2325,5.3484,5.3201,5.4037,5.4952,5.5238,5.5543,5.5374,5.4832,5.4368,5.4058,5.2801,5.1761,5.1699,5.1269,5.0801,5.0496,5.0496,5.009,4.9339,4.9239,4.9262,4.9165,4.843,4.8198,4.8256,4.7525,4.6945,4.7115,4.7138,4.7061,4.7889,4.8333,4.8508,4.8353,4.8353,4.8972,4.9568,4.9707,5.0148,5.0651,5.0879,5.0898,5.0898,5.0898,5.0906,5.0933,5.0961,5.1066,5.1178,5.1252,5.1308,5.1367,5.1387,5.1387,5.1387,5.1387,5.1387,5.1387,5.1387,5.1387,5.1211,5.123,5.1074,5.1094,5.0898,5.0469,5.0117,5.0019,4.9883,4.9883,5.0312,5.0859,5.1172,5.123,5.125,5.125,5.1328,5.1387,5.1387,5.1387,5.1387,5.1367,5.1387,5.1387,5.1367,5.1367,5.1387,5.034,5.1258,5.0456,5.0613,5.1336,5.1394,5.1394,5.14,5.14,5.1387,5.1378,5.1336,5.1297,5.1298,5.13,5.13,5.1298,5.1282,5.1256,5.125,5.1206,5.1147,5.1102,5.1147,5.1585,5.1675,5.2105,5.2809,5.4434,5.4121,5.4677,5.5548,5.6008,5.5911,5.5698,5.5215,5.4735,5.4233,5.3134,5.2322,5.2264,5.1974,5.1409,5.1351,5.1254,5.096,5.036,5.0109,5.009,4.9838,4.9509,4.9142,4.9107,4.8624,4.7927,4.8024,4.8353,4.8275,4.8875,4.9587,4.9664,4.9451,4.9281,4.9533,4.9993,5.0186,5.0418,5.0743,5.0879,5.0898,5.0898,5.0898,5.0933,5.094,5.1027,5.1132,5.1206,5.1285,5.1328,5.1367,5.1387,5.1387,5.1387,5.1387,5.1387,5.1387,5.1387,5.1387,5.1387,5.1387,5.1387,5.1387,5.1367,5.0996,5.084,5.0918,5.0781,5.0644,5.0957,5.1367,5.1387,5.1328,5.1367,5.1387,5.1387,5.1387,5.1387,5.1387,5.1387,5.1387,5.1387,5.1387,5.1387,5.1465,5.1523,4.9754,5.1082,5.0417,5.0515,5.1258,5.1339,5.1398,5.14,5.1401,5.1367,5.1298,5.125,5.1211,5.1211,5.1259,5.13,5.129,5.1236,5.1223,5.1176,5.1134,5.1081,5.1072,5.1171,5.1803,5.2558,5.3115,5.373,5.5582,5.5161,5.5296,5.5795,5.5988,5.6008,5.5737,5.5427,5.5064,5.4619,5.3734,5.3231,5.327,5.2709,5.2322,5.2206,5.2012,5.1621,5.1115,5.0825,5.0786,5.0534,5.0148,4.9877,4.9494,4.8914,4.8624,4.8662,4.9223,4.9548,4.978,5.0457,5.0627,5.0438,5.0608,5.0825,5.0786,5.067,5.0763,5.0821,5.0898,5.0898,5.0898,5.0933,5.0963,5.1017,5.108,5.1168,5.1269,5.1325,5.1338,5.1367,5.1387,5.1387,5.1387,5.1387,5.1484,5.1387,5.1387,5.1387,5.1387,5.1387,5.1387,5.1387,5.1387,5.1387,5.1367,5.1328,5.1269,5.0996,5.1094,5.1387,5.1387,5.1387,5.1387,5.1387,5.1387,5.1387,5.1387,5.1387,5.1387,5.1406,5.1543,5.1758,5.1875,5.1797,5.1875,4.8584,4.9501,4.9267,4.9676,5.0498,5.1121,5.14,5.1402,5.1386,5.1103,5.0491,5.1076,5.0929,5.0443,5.1008,5.124,5.1261,5.1239,5.1218,5.1194,5.1175,5.105,5.1184,5.1532,5.2133,5.2755,5.3459,5.4194,5.5045,5.5219,5.5621,5.5969,5.6008,5.6008,5.5911,5.5756,5.564,5.5296,5.4329,5.4213,5.4078,5.356,5.327,5.3057,5.2631,5.2202,5.1796,5.1231,5.1057,5.0786,5.0689,5.0554,5.0496,4.9819,4.9339,4.9417,5.0012,5.0569,5.0593,5.0767,5.0898,5.0898,5.0898,5.0898,5.0898,5.0898,5.0898,5.0898,5.0898,5.0898,5.0898,5.0925,5.099,5.1071,5.1132,5.1211,5.1291,5.1358,5.1406,5.1621,5.1621,5.1758,5.1719,5.1562,5.1641,5.1484,5.1387,5.1387,5.1387,5.1387,5.1387,5.1387,5.1387,5.1387,5.1387,5.1367,5.1387,5.1367,5.1387,5.1387,5.1387,5.1387,5.1387,5.1387,5.1387,5.1387,5.1387,5.1406,5.1406,5.1699,5.1855,5.2129,5.2324,5.2383,5.2617,4.7744,4.8701,4.8446,4.8804,4.9653,5.0523,5.0722,5.0485,5.0748,5.0555,5.0202,5.0566,5.0492,5.022,5.0841,5.1239,5.1213,5.1139,5.1111,5.1142,5.1308,5.1205,5.1397,5.1769,5.2121,5.2747,5.3459,5.4271,5.4871,5.5524,5.6008,5.6008,5.6008,5.6008,5.5969,5.595,5.5969,5.5659,5.5273,5.5099,5.4813,5.4465,5.4159,5.3908,5.3366,5.296,5.2283,5.1618,5.1308,5.0979,5.0898,5.0898,5.0859,5.0399,5.0186,5.0244,5.0496,5.0801,5.0821,5.084,5.0898,5.0898,5.0898,5.0898,5.0898,5.0898,5.0898,5.0898,5.0898,5.0898,5.0898,5.0921,5.1024,5.1119,5.1181,5.1226,5.13,5.1384,5.1601,5.1894,5.209,5.2266,5.2207,5.2012,5.1875,5.1914,5.1699,5.1387,5.1387,5.1387,5.1387,5.1387,5.1387,5.1387,5.1387,5.1387,5.1387,5.1387,5.1387,5.1387,5.1387,5.1387,5.1387,5.1387,5.1387,5.1387,5.1387,5.1426,5.1484,5.1836,5.2383,5.2871,5.3203,5.3398,5.375,4.7198,4.8486,4.7862,4.8111,4.8864,4.9686,4.9585,4.8902,4.9558,4.9846,4.9775,4.9994,4.9963,4.9829,5.0503,5.1005,5.1067,5.1069,5.1192,5.1078,5.145,5.1486,5.1502,5.1776,5.2128,5.2496,5.3153,5.4116,5.4871,5.5543,5.6008,5.6008,5.6008,5.6008,5.6008,5.6008,5.5988,5.5892,5.5543,5.5296,5.5567,5.5296,5.489,5.4871,5.4542,5.4078,5.2883,5.2206,5.1838,5.1308,5.0917,5.0917,5.0863,5.0844,5.0825,5.0825,5.0844,5.0863,5.0898,5.0898,5.0898,5.0898,5.0898,5.0898,5.0898,5.0898,5.0898,5.0898,5.0898,5.0898,5.0898,5.0954,5.1053,5.1293,5.1456,5.1419,5.1359,5.166,5.2187,5.25,5.2851,5.3008,5.3144,5.2988,5.2812,5.2637,5.2441,5.2012,5.1875,5.1875,5.1621,5.1601,5.1445,5.1445,5.1387,5.1387,5.1387,5.1387,5.1465,5.1387,5.1387,5.1387,5.1387,5.1387,5.1387,5.1387,5.1406,5.1445,5.1719,5.2324,5.291,5.3633,5.4043,5.4336,5.4785,4.6534,4.6947,4.7354,4.8004,4.8768,4.9014,4.9014,4.8739,4.8212,4.8107,4.8277,4.9253,4.9569,4.921,5.004,5.0606,5.1004,5.1059,5.1411,5.1441,5.1637,5.1641,5.1796,5.209,5.2186,5.2476,5.3076,5.3942,5.4813,5.5524,5.6008,5.6008,5.6008,5.6008,5.6008,5.6008,5.5988,5.5988,5.5834,5.5659,5.5834,5.5911,5.5718,5.5505,5.5176,5.4735,5.3691,5.2805,5.238,5.1858,5.1192,5.0979,5.0898,5.0898,5.0898,5.0898,5.0898,5.0898,5.0898,5.0898,5.0898,5.0898,5.0898,5.0898,5.0898,5.0898,5.0898,5.0898,5.091,5.0914,5.0944,5.1017,5.1175,5.1488,5.1799,5.1658,5.1523,5.2148,5.2773,5.3223,5.3613,5.3828,5.4004,5.3945,5.375,5.3652,5.3613,5.3418,5.3262,5.3144,5.2363,5.2148,5.1621,5.1523,5.1582,5.1777,5.1973,5.1836,5.1855,5.168,5.1523,5.1758,5.1992,5.1562,5.1387,5.1719,5.1836,5.1504,5.1875,5.2832,5.3496,5.4258,5.498,5.5371,5.582,4.6301,4.6402,4.7162,4.7558,4.7709,4.8037,4.8007,4.7618,4.7429,4.7143,4.703,4.8421,4.9065,4.8834,4.982,5.0458,5.0959,5.0972,5.1141,5.1316,5.1618,5.1571,5.1854,5.2283,5.1989,5.2182,5.3076,5.3947,5.4813,5.5548,5.6008,5.6008,5.6008,5.6008,5.6008,5.6008,5.6008,5.6008,5.6008,5.6008,5.6008,5.6008,5.6008,5.5795,5.5601,5.518,5.4426,5.3463,5.2747,5.2109,5.1351,5.0979,5.0898,5.0898,5.0898,5.0898,5.0898,5.0898,5.0898,5.0898,5.0902,5.091,5.0906,5.0906,5.0898,5.0898,5.0898,5.091,5.0993,5.101,5.103,5.1081,5.1557,5.1954,5.2256,5.2325,5.2617,5.3164,5.3789,5.4336,5.4668,5.4902,5.498,5.4844,5.4648,5.4414,5.4433,5.4121,5.4101,5.4336,5.3555,5.3027,5.2715,5.2558,5.2832,5.2891,5.2871,5.2656,5.2363,5.2617,5.2754,5.2676,5.2598,5.2422,5.2422,5.2715,5.2676,5.2324,5.293,5.4043,5.4492,5.4883,5.5586,5.6191,5.6387,4.6303,4.6406,4.7027,4.691,4.6367,4.7002,4.6929,4.6391,4.6869,4.6741,4.6335,4.7869,4.8441,4.9046,4.9855,5.0468,5.0867,5.091,5.0972,5.1359,5.1687,5.166,5.1873,5.2221,5.1892,5.2221,5.3115,5.3966,5.4813,5.5543,5.6008,5.6008,5.6008,5.6008,5.6008,5.6008,5.6008,5.6008,5.6008,5.6008,5.6008,5.6008,5.6008,5.6008,5.595,5.5625,5.4909,5.4136,5.327,5.2554,5.1815,5.1211,5.0937,5.0898,5.0898,5.0898,5.0898,5.0898,5.0898,5.0898,5.0921,5.0937,5.0929,5.1002,5.1068,5.1033,5.1033,5.1326,5.1417,5.1189,5.1203,5.1499,5.2009,5.2459,5.2747,5.332,5.3828,5.4219,5.4707,5.5312,5.5605,5.584,5.5781,5.5664,5.5508,5.5254,5.5,5.4609,5.4492,5.4922,5.4805,5.457,5.4433,5.4336,5.4023,5.3808,5.3633,5.3476,5.3281,5.3691,5.3887,5.3516,5.3398,5.3633,5.3711,5.3633,5.3652,5.3437,5.4258,5.498,5.5039,5.5215,5.5957,5.6465,5.664,4.6293,4.6305,4.6425,4.6334,4.6244,4.6407,4.6339,4.6197,4.6222,4.6116,4.6402,4.7556,4.8421,4.8436,4.8626,4.9459,5.089,5.0898,5.1424,5.1954,5.1447,5.1544,5.1757,5.1892,5.1738,5.2453,5.3498,5.4465,5.4929,5.5582,5.6008,5.6008,5.6008,5.6008,5.6008,5.6008,5.6008,5.6008,5.6008,5.6008,5.6008,5.6008,5.6008,5.6008,5.5988,5.5911,5.5563,5.4967,5.4581,5.3923,5.2825,5.1776,5.1289,5.1076,5.1014,5.1192,5.1169,5.1138,5.1177,5.1173,5.1222,5.1454,5.1547,5.1694,5.1658,5.1483,5.1811,5.2647,5.2505,5.1639,5.16,5.216,5.2666,5.3047,5.3368,5.4531,5.541,5.5332,5.541,5.5879,5.625,5.6348,5.6328,5.625,5.625,5.6074,5.6055,5.5723,5.5625,5.582,5.5898,5.584,5.5781,5.5078,5.4316,5.4336,5.4219,5.4121,5.416,5.4492,5.4492,5.4023,5.4023,5.4492,5.4355,5.4141,5.418,5.4531,5.4726,5.5254,5.5234,5.5488,5.623,5.6797,5.7012]}]]